[[{"header":{"parameterUnit":"m.s-1","parameterCategory":1,"la1":31.0,"la2":29.5877,"lo1":-88.7671,"lo2":-86.6584,"dy":0.0162,"dx":0.0185,"nx":115,"ny":88,"refTime":"2024-02-13T06:00:00:Z","depth":0,"parameterNumber":2,"parameterNumberName":"U-component_of_WINDS"},"data":[0.0,0.0,0.0,0.0,0.0,0.0,0.0,0.0,0.0,0.0,0.0,0.0,0.0,0.0,0.0,0.0,0.0,0.0,0.0,0.0,0.0,0.0,0.0,0.0,0.0,0.0,0.0,0.0,0.0,0.0,0.0,0.0,0.0,0.0,0.0,0.0,0.0,0.0,0.0,0.0,0.0,0.0,0.0,0.0,0.0,0.0,0.0,0.0,0.0,0.0,0.0,0.0,0.0,0.0,0.0,0.0,0.0,0.0,0.0,0.0,0.0,0.0,0.0,0.0,0.0,0.0,0.0,0.0,0.0,0.0,0.0,0.0,0.0,0.0,0.0,0.0,0.0,0.0,0.0,0.0,0.0,0.0,0.0,0.0,0.0,0.0,0.0,0.0,0.0,0.0,0.0,0.0,0.0,0.0,0.0,0.0,0.0,0.0,0.0,0.0,0.0,0.0,0.0,0.0,0.0,0.0,0.0,0.0,0.0,0.0,0.0,0.0,0.0,0.0,0.0,0.0,0.0,0.0,0.0,0.0,0.0,0.0,0.0,0.0,0.0,0.0,0.0,0.0,0.0,0.0,0.0,0.0,0.0,0.0,0.0,0.0,0.0,0.0,0.0,0.0,0.0,0.0,0.0,0.0,0.0,0.0,0.0,0.0,0.0,0.0,0.0,0.0,0.0,0.0,0.0,0.0,0.0,0.0,0.0,0.0,0.0,0.0,0.0,0.0,0.0,0.0,0.0,0.0,0.0,0.0,0.0,0.0,0.0,0.0,0.0,0.0,0.0,0.0,0.0,0.0,0.0,0.0,0.0,0.0,0.0,0.0,0.0,0.0,0.0,0.0,0.0,0.0,0.0,0.0,0.0,0.0,0.0,0.0,0.0,0.0,0.0,0.0,0.0,0.0,0.0,0.0,0.0,0.0,0.0,0.0,0.0,0.0,0.0,0.0,0.0,0.0,0.0,0.0,0.0,0.0,0.0,0.0,0.0,0.0,0.0,0.0,0.0,0.0,0.0,0.0,0.0,0.0,0.0,0.0,0.0,0.0,0.0,0.0,0.0,0.0,0.0,0.0,0.0,0.0,0.0,0.0,0.0,0.0,0.0,0.0,0.0,0.0,0.0,0.0,0.0,0.0,0.0,0.0,0.0,0.0,0.0,0.0,0.0,0.0,0.0,0.0,0.0,0.0,0.0,0.0,0.0,0.0,0.0,0.0,0.0,0.0,0.0,0.0,0.0,0.0,0.0,0.0,0.0,0.0,0.0,0.0,0.0,0.0,0.0,0.0,0.0,0.0,0.0,0.0,0.0,0.0,0.0,0.0,0.0,0.0,0.0,0.0,0.0,0.0,0.0,0.0,0.0,0.0,0.0,0.0,0.0,0.0,0.0,0.0,0.0,0.0,0.0,0.0,0.0,0.0,0.0,0.0,0.0,0.0,0.0,0.0,0.0,0.0,0.0,0.0,0.0,0.0,0.0,0.0,0.0,0.0,0.0,0.0,0.0,0.0,0.0,0.0,0.0,0.0,0.0,0.0,0.0,0.0,0.0,0.0,0.0,0.0,0.0,0.0,0.0,0.0,0.0,0.0,0.0,0.0,0.0,0.0,0.0,0.0,0.0,0.0,0.0,0.0,0.0,0.0,0.0,0.0,0.0,0.0,0.0,0.0,0.0,0.0,0.0,0.0,0.0,0.0,0.0,0.0,0.0,0.0,0.0,0.0,0.0,0.0,0.0,0.0,0.0,0.0,0.0,0.0,0.0,0.0,0.0,0.0,0.0,0.0,0.0,0.0,0.0,0.0,0.0,0.0,0.0,0.0,0.0,0.0,0.0,0.0,0.0,0.0,0.0,0.0,0.0,0.0,0.0,0.0,0.0,0.0,0.0,0.0,0.0,0.0,0.0,0.0,0.0,0.0,0.0,0.0,0.0,0.0,0.0,0.0,0.0,0.0,0.0,0.0,0.0,0.0,0.0,0.0,0.0,0.0,0.0,0.0,0.0,0.0,0.0,0.0,0.0,0.0,0.0,0.0,0.0,0.0,0.0,0.0,0.0,0.0,0.0,0.0,0.0,0.0,0.0,0.0,0.0,0.0,0.0,0.0,0.0,0.0,0.0,0.0,0.0,0.0,0.0,0.0,0.0,0.0,0.0,0.0,0.0,0.0,0.0,0.0,0.0,0.0,0.0,0.0,0.0,0.0,0.0,0.0,0.0,0.0,0.0,0.0,0.0,0.0,0.0,0.0,0.0,0.0,0.0,0.0,0.0,0.0,0.0,0.0,0.0,0.0,0.0,0.0,0.0,0.0,0.0,0.0,0.0,0.0,0.0,0.0,0.0,0.0,0.0,0.0,0.0,0.0,0.0,0.0,0.0,0.0,0.0,0.0,0.0,0.0,0.0,0.0,0.0,0.0,0.0,0.0,0.0,0.0,0.0,0.0,0.0,0.0,0.0,0.0,0.0,0.0,0.0,0.0,0.0,0.0,0.0,0.0,0.0,0.0,0.0,0.0,0.0,0.0,0.0,0.0,0.0,0.0,0.0,0.0,0.0,0.0,0.0,0.0,0.0,0.0,0.0,0.0,0.0,0.0,0.0,0.0,0.0,0.0,0.0,0.0,0.0,0.0,0.0,0.0,0.0,0.0,0.0,0.0,0.0,0.0,0.0,0.0,0.0,0.0,0.0,0.0,0.0,0.0,0.0,0.0,0.0,0.0,0.0,0.0,0.0,0.0,0.0,0.0,0.0,0.0,0.0,0.0,0.0,0.0,0.0,0.0,0.0,0.0,0.0,0.0,0.0,0.0,0.0,0.0,0.0,0.0,0.0,0.0,0.0,0.0,0.0,0.0,0.0,0.0,0.0,0.0,0.0,0.0,0.0,0.0,0.0,0.0,0.0,0.0,0.0,0.0,0.0,0.0,0.0,0.0,0.0,0.0,0.0,0.0,0.0,0.0,0.0,0.0,0.0,0.0,0.0,0.0,0.0,0.0,0.0,0.0,0.0,0.0,0.0,0.0,0.0,0.0,0.0,0.0,0.0,0.0,0.0,0.0,0.0,0.0,0.0,0.0,0.0,0.0,0.0,0.0,0.0,0.0,0.0,0.0,0.0,0.0,0.0,0.0,0.0,0.0,0.0,0.0,0.0,0.0,0.0,0.0,0.0,0.0,0.0,0.0,0.0,0.0,0.0,0.0,0.0,0.0,0.0,0.0,0.0,0.0,0.0,0.0,0.0,0.0,0.0,0.0,0.0,0.0,0.0,0.0,0.0,0.0,0.0,0.0,0.0,0.0,0.0,0.0,0.0,0.0,0.0,0.0,0.0,0.0,0.0,0.0,0.0,0.0,0.0,0.0,0.0,0.0,0.0,0.0,0.0,0.0,0.0,0.0,0.0,0.0,0.0,0.0,0.0,0.0,0.0,0.0,0.0,0.0,0.0,0.0,0.0,0.0,0.0,0.0,0.0,0.0,0.0,0.0,0.0,0.0,0.0,0.0,0.0,0.0,0.0,0.0,0.0,0.0,0.0,0.0,0.0,0.0,0.0,0.0,0.0,0.0,0.0,0.0,0.0,0.0,0.0,0.0,0.0,0.0,0.0,0.0,0.0,0.0,0.0,0.0,0.0,0.0,0.0,0.0,0.0,0.0,0.0,0.0,0.0,0.0,0.0,0.0,0.0,0.0,0.0,0.0,0.0,0.0,0.0,0.0,0.0,0.0,0.0,0.0,0.0,0.0,0.0,0.0,0.0,0.0,0.0,0.0,0.0,0.0,0.0,0.0,0.0,0.0,0.0,0.0,0.0,0.0,0.0,0.0,0.0,0.0,0.0,0.0,0.0,0.0,0.0,0.0,0.0,0.0,0.0,0.0,0.0,0.0,0.0,0.0,0.0,0.0,0.0,0.0,0.0,0.0,0.0,0.0,0.0,0.0,0.0,0.0,0.0,0.0,0.0,0.0,0.0,0.0,0.0,0.0,0.0,0.0,0.0,0.0,0.0,0.0,0.0,0.0,0.0,0.0,0.0,0.0,0.0,0.0,0.0,0.0,0.0,0.0,0.0,0.0,0.0,0.0,0.0,0.0,0.0,0.0,0.0,0.0,0.0,0.0,0.0,0.0,0.0,0.0,0.0,0.0,0.0,0.0,0.0,0.0,0.0,0.0,0.0,0.0,0.0,0.0,0.0,0.0,0.0,0.0,0.0,0.0,0.0,0.0,0.0,0.0,0.0,0.0,0.0,0.0,0.0,0.0,0.0,0.0,0.0,0.0,0.0,0.0,0.0,0.0,3.4173,0.0,0.0,0.0,0.0,0.0,0.0,0.0,0.0,0.0,0.0,0.0,0.0,0.0,0.0,0.0,0.0,0.0,0.0,0.0,0.0,0.0,0.0,0.0,0.0,0.0,0.0,0.0,0.0,0.0,0.0,0.0,0.0,0.0,0.0,0.0,0.0,0.0,0.0,0.0,0.0,0.0,0.0,0.0,0.0,0.0,0.0,0.0,0.0,0.0,0.0,0.0,0.0,0.0,0.0,0.0,0.0,0.0,0.0,0.0,0.0,0.0,0.0,0.0,0.0,0.0,0.0,0.0,0.0,0.0,0.0,0.0,0.0,0.0,0.0,0.0,0.0,0.0,0.0,0.0,0.0,0.0,0.0,0.0,0.0,0.0,0.0,0.0,0.0,0.0,0.0,0.0,0.0,0.0,0.0,0.0,0.0,0.0,0.0,0.0,0.0,0.0,0.0,0.0,0.0,0.0,0.0,0.0,0.0,0.0,0.0,3.4878,3.4903,3.4903,3.468,3.4234,0.0,0.0,0.0,0.0,0.0,0.0,0.0,0.0,0.0,0.0,0.0,0.0,0.0,0.0,0.0,0.0,0.0,0.0,0.0,0.0,0.0,0.0,0.0,0.0,0.0,0.0,0.0,0.0,0.0,0.0,0.0,0.0,0.0,0.0,0.0,0.0,0.0,0.0,0.0,0.0,0.0,0.0,0.0,0.0,0.0,0.0,0.0,0.0,0.0,0.0,0.0,0.0,0.0,0.0,0.0,0.0,0.0,0.0,0.0,0.0,0.0,0.0,0.0,0.0,0.0,0.0,0.0,0.0,0.0,0.0,0.0,0.0,0.0,0.0,0.0,0.0,0.0,0.0,0.0,0.0,0.0,0.0,0.0,0.0,0.0,0.0,0.0,0.0,0.0,0.0,0.0,0.0,0.0,0.0,0.0,0.0,0.0,0.0,0.0,0.0,0.0,0.0,0.0,0.0,0.0,0.0,0.0,0.0,0.0,0.0,0.0,0.0,3.5479,3.507,3.4253,0.0,0.0,0.0,0.0,0.0,0.0,0.0,0.0,0.0,0.0,0.0,0.0,0.0,0.0,0.0,0.0,0.0,0.0,0.0,0.0,0.0,0.0,0.0,0.0,0.0,0.0,0.0,0.0,0.0,0.0,0.0,0.0,0.0,0.0,0.0,0.0,0.0,0.0,0.0,0.0,0.0,0.0,0.0,0.0,0.0,0.0,0.0,0.0,0.0,0.0,0.0,0.0,0.0,0.0,0.0,0.0,0.0,0.0,0.0,0.0,0.0,0.0,0.0,0.0,0.0,0.0,0.0,0.0,0.0,0.0,0.0,0.0,0.0,0.0,0.0,0.0,0.0,0.0,0.0,0.0,0.0,0.0,0.0,0.0,0.0,0.0,0.0,0.0,0.0,0.0,0.0,0.0,0.0,0.0,0.0,0.0,0.0,0.0,0.0,0.0,0.0,0.0,0.0,0.0,0.0,0.0,0.0,0.0,0.0,0.0,3.5479,3.5479,3.5479,0.0,3.429,0.0,0.0,0.0,0.0,0.0,0.0,0.0,0.0,0.0,0.0,0.0,0.0,0.0,0.0,0.0,0.0,0.0,0.0,0.0,0.0,0.0,0.0,0.0,0.0,0.0,0.0,0.0,0.0,0.0,0.0,0.0,0.0,0.0,0.0,0.0,0.0,0.0,0.0,0.0,0.0,0.0,0.0,0.0,0.0,0.0,0.0,0.0,0.0,0.0,0.0,0.0,0.0,0.0,0.0,0.0,0.0,0.0,0.0,0.0,0.0,0.0,0.0,0.0,0.0,0.0,0.0,0.0,0.0,0.0,0.0,0.0,0.0,0.0,0.0,0.0,0.0,0.0,0.0,0.0,0.0,0.0,0.0,0.0,0.0,0.0,0.0,0.0,0.0,0.0,0.0,0.0,0.0,0.0,0.0,0.0,0.0,0.0,0.0,0.0,0.0,0.0,0.0,0.0,0.0,0.0,0.0,0.0,0.0,0.0,0.0,3.6203,3.6222,3.5237,3.4569,0.0,0.0,0.0,0.0,0.0,0.0,0.0,0.0,0.0,0.0,0.0,0.0,0.0,0.0,0.0,0.0,0.0,0.0,0.0,0.0,0.0,0.0,0.0,0.0,0.0,0.0,0.0,0.0,0.0,0.0,0.0,0.0,0.0,0.0,0.0,0.0,0.0,0.0,0.0,0.0,0.0,0.0,0.0,0.0,0.0,0.0,0.0,0.0,0.0,0.0,0.0,0.0,0.0,0.0,0.0,0.0,0.0,0.0,0.0,0.0,0.0,0.0,0.0,0.0,0.0,0.0,0.0,0.0,0.0,0.0,0.0,0.0,0.0,0.0,0.0,0.0,0.0,0.0,0.0,0.0,0.0,0.0,0.0,0.0,0.0,0.0,0.0,0.0,0.0,0.0,0.0,0.0,0.0,0.0,0.0,0.0,0.0,0.0,0.0,0.0,0.0,0.0,0.0,0.0,0.0,0.0,0.0,0.0,0.0,0.0,3.6549,3.6593,3.6296,3.4959,3.4197,3.4173,0.0,0.0,0.0,0.0,0.0,0.0,0.0,0.0,0.0,0.0,0.0,0.0,0.0,0.0,0.0,0.0,0.0,0.0,0.0,0.0,0.0,0.0,0.0,0.0,0.0,0.0,0.0,0.0,0.0,0.0,0.0,0.0,0.0,0.0,0.0,0.0,0.0,0.0,0.0,0.0,0.0,0.0,0.0,0.0,0.0,0.0,0.0,0.0,0.0,0.0,0.0,0.0,0.0,0.0,0.0,0.0,0.0,0.0,0.0,0.0,0.0,0.0,0.0,0.0,0.0,0.0,0.0,0.0,0.0,0.0,0.0,0.0,0.0,0.0,0.0,0.0,0.0,0.0,0.0,0.0,0.0,0.0,0.0,0.0,0.0,0.0,0.0,0.0,0.0,0.0,0.0,0.0,0.0,0.0,0.0,0.0,0.0,0.0,0.0,0.0,0.0,0.0,0.0,0.0,0.0,0.0,0.0,0.0,3.5572,3.6296,3.6315,3.5572,3.4661,3.4173,0.0,0.0,0.0,0.0,0.0,0.0,0.0,0.0,0.0,0.0,0.0,0.0,0.0,0.0,0.0,0.0,0.0,0.0,0.0,0.0,0.0,0.0,0.0,0.0,0.0,0.0,0.0,0.0,0.0,0.0,0.0,0.0,0.0,0.0,0.0,0.0,0.0,0.0,0.0,0.0,0.0,0.0,0.0,0.0,0.0,0.0,0.0,0.0,0.0,0.0,0.0,0.0,0.0,0.0,0.0,0.0,0.0,0.0,0.0,0.0,0.0,0.0,0.0,0.0,0.0,0.0,0.0,0.0,0.0,0.0,0.0,0.0,0.0,0.0,0.0,0.0,0.0,0.0,0.0,0.0,0.0,0.0,0.0,0.0,0.0,0.0,0.0,0.0,0.0,0.0,0.0,0.0,0.0,0.0,0.0,0.0,0.0,0.0,0.0,0.0,0.0,0.0,0.0,0.0,0.0,0.0,0.0,0.0,0.0,3.5497,3.5795,3.5541,3.4772,3.4321,3.4124,0.0,0.0,0.0,0.0,0.0,0.0,0.0,0.0,0.0,0.0,0.0,0.0,0.0,0.0,0.0,0.0,0.0,0.0,0.0,0.0,0.0,0.0,0.0,0.0,0.0,0.0,0.0,0.0,0.0,0.0,0.0,0.0,0.0,0.0,0.0,0.0,0.0,0.0,0.0,0.0,0.0,0.0,0.0,0.0,0.0,0.0,0.0,0.0,0.0,0.0,0.0,0.0,0.0,0.0,0.0,0.0,0.0,0.0,0.0,0.0,0.0,0.0,0.0,0.0,0.0,0.0,0.0,0.0,0.0,0.0,0.0,0.0,0.0,0.0,0.0,0.0,0.0,0.0,0.0,0.0,0.0,0.0,0.0,0.0,0.0,0.0,0.0,0.0,0.0,0.0,0.0,0.0,0.0,0.0,0.0,0.0,0.0,0.0,0.0,0.0,0.0,0.0,0.0,0.0,0.0,0.0,0.0,0.0,0.0,3.5869,0.0,3.564,3.5107,3.4711,3.4506,0.0,0.0,0.0,0.0,0.0,0.0,0.0,0.0,0.0,0.0,0.0,0.0,0.0,0.0,0.0,0.0,0.0,0.0,0.0,0.0,0.0,0.0,0.0,0.0,0.0,0.0,0.0,0.0,0.0,0.0,0.0,0.0,0.0,0.0,0.0,0.0,0.0,0.0,0.0,0.0,0.0,0.0,0.0,0.0,0.0,0.0,0.0,0.0,0.0,0.0,0.0,0.0,0.0,0.0,0.0,0.0,0.0,0.0,0.0,0.0,0.0,0.0,0.0,0.0,0.0,0.0,0.0,0.0,0.0,0.0,0.0,0.0,0.0,0.0,0.0,0.0,0.0,0.0,0.0,0.0,0.0,0.0,0.0,0.0,0.0,0.0,0.0,0.0,0.0,0.0,0.0,0.0,0.0,0.0,0.0,0.0,0.0,0.0,0.0,0.0,0.0,0.0,0.0,0.0,0.0,0.0,0.0,0.0,3.5887,3.6649,3.6745,3.6689,3.6649,3.5799,3.5351,0.0,0.0,0.0,0.0,0.0,0.0,0.0,0.0,0.0,0.0,0.0,0.0,0.0,0.0,0.0,0.0,0.0,0.0,0.0,0.0,0.0,0.0,0.0,0.0,0.0,0.0,0.0,0.0,0.0,0.0,0.0,0.0,0.0,0.0,0.0,0.0,0.0,0.0,0.0,0.0,0.0,0.0,0.0,0.0,0.0,0.0,0.0,0.0,0.0,0.0,0.0,0.0,0.0,0.0,0.0,0.0,0.0,0.0,0.0,0.0,0.0,0.0,0.0,0.0,0.0,0.0,0.0,0.0,0.0,0.0,0.0,0.0,0.0,0.0,0.0,0.0,0.0,0.0,0.0,0.0,0.0,0.0,0.0,0.0,0.0,0.0,0.0,0.0,0.0,0.0,0.0,0.0,0.0,0.0,0.0,0.0,0.0,0.0,0.0,0.0,0.0,0.0,0.0,0.0,0.0,0.0,0.0,0.0,0.0,3.6763,3.6738,3.6712,3.666,3.5821,3.5309,0.0,0.0,0.0,0.0,0.0,0.0,0.0,0.0,0.0,0.0,0.0,0.0,0.0,0.0,0.0,0.0,0.0,0.0,0.0,0.0,0.0,0.0,0.0,0.0,0.0,0.0,0.0,0.0,0.0,0.0,0.0,0.0,0.0,0.0,0.0,0.0,0.0,0.0,0.0,0.0,0.0,0.0,0.0,0.0,0.0,0.0,0.0,0.0,0.0,0.0,0.0,0.0,0.0,0.0,0.0,0.0,0.0,0.0,0.0,0.0,0.0,0.0,0.0,0.0,0.0,0.0,0.0,0.0,0.0,0.0,0.0,0.0,0.0,0.0,0.0,0.0,0.0,0.0,0.0,0.0,0.0,0.0,0.0,0.0,0.0,0.0,0.0,0.0,0.0,0.0,0.0,0.0,0.0,0.0,0.0,0.0,0.0,0.0,0.0,0.0,0.0,0.0,0.0,0.0,0.0,0.0,0.0,0.0,0.0,3.7612,3.7623,3.7588,3.7561,3.6675,3.6021,3.5644,0.0,0.0,0.0,0.0,0.0,0.0,0.0,0.0,0.0,0.0,0.0,0.0,0.0,0.0,0.0,0.0,0.0,0.0,0.0,0.0,0.0,0.0,0.0,0.0,0.0,0.0,0.0,0.0,0.0,0.0,0.0,0.0,0.0,0.0,0.0,0.0,0.0,0.0,0.0,0.0,0.0,0.0,0.0,0.0,0.0,0.0,0.0,0.0,0.0,0.0,0.0,0.0,0.0,0.0,0.0,0.0,0.0,0.0,0.0,0.0,0.0,0.0,0.0,0.0,0.0,0.0,0.0,0.0,0.0,0.0,0.0,0.0,0.0,0.0,0.0,0.0,0.0,0.0,0.0,0.0,0.0,0.0,0.0,0.0,0.0,0.0,0.0,0.0,0.0,0.0,0.0,0.0,0.0,0.0,0.0,0.0,0.0,0.0,0.0,0.0,0.0,0.0,0.0,0.0,0.0,0.0,0.0,0.0,3.9064,3.9101,3.9055,3.8942,3.8126,3.7294,0.0,0.0,0.0,0.0,0.0,0.0,0.0,0.0,0.0,0.0,0.0,0.0,0.0,0.0,0.0,0.0,0.0,0.0,0.0,0.0,0.0,0.0,0.0,0.0,0.0,0.0,0.0,0.0,0.0,0.0,0.0,0.0,0.0,0.0,0.0,0.0,0.0,0.0,0.0,0.0,0.0,0.0,0.0,0.0,0.0,0.0,0.0,0.0,0.0,0.0,0.0,0.0,0.0,0.0,0.0,0.0,0.0,0.0,0.0,0.0,0.0,0.0,0.0,0.0,0.0,0.0,0.0,0.0,0.0,0.0,0.0,0.0,0.0,0.0,0.0,0.0,0.0,0.0,0.0,0.0,0.0,0.0,0.0,0.0,0.0,0.0,0.0,0.0,0.0,0.0,0.0,0.0,0.0,0.0,0.0,0.0,0.0,0.0,0.0,0.0,0.0,0.0,0.0,0.0,0.0,0.0,0.0,0.0,0.0,3.9008,3.9101,3.9045,3.8921,3.8116,3.7284,0.0,0.0,0.0,0.0,0.0,0.0,0.0,0.0,0.0,0.0,0.0,0.0,0.0,0.0,0.0,0.0,0.0,0.0,0.0,0.0,0.0,0.0,0.0,0.0,0.0,0.0,0.0,0.0,0.0,0.0,0.0,0.0,0.0,0.0,0.0,0.0,0.0,0.0,0.0,0.0,0.0,0.0,0.0,0.0,0.0,0.0,0.0,0.0,0.0,0.0,0.0,0.0,0.0,0.0,0.0,0.0,0.0,0.0,0.0,0.0,0.0,0.0,0.0,0.0,0.0,0.0,0.0,0.0,0.0,0.0,0.0,0.0,0.0,0.0,0.0,0.0,0.0,0.0,0.0,0.0,0.0,0.0,0.0,0.0,0.0,0.0,0.0,0.0,0.0,0.0,0.0,0.0,0.0,0.0,0.0,0.0,0.0,0.0,0.0,0.0,0.0,0.0,0.0,0.0,0.0,0.0,0.0,0.0,3.7466,3.9045,3.9101,3.9017,3.891,3.8449,3.7735,0.0,0.0,0.0,0.0,0.0,0.0,0.0,0.0,0.0,0.0,0.0,0.0,0.0,0.0,0.0,0.0,0.0,0.0,0.0,0.0,0.0,0.0,0.0,0.0,0.0,0.0,0.0,0.0,0.0,0.0,0.0,0.0,0.0,0.0,0.0,0.0,0.0,0.0,0.0,0.0,0.0,0.0,0.0,0.0,0.0,0.0,0.0,0.0,0.0,0.0,0.0,0.0,0.0,0.0,0.0,0.0,0.0,0.0,0.0,0.0,0.0,0.0,0.0,0.0,0.0,0.0,0.0,0.0,0.0,0.0,0.0,0.0,0.0,0.0,0.0,0.0,0.0,0.0,0.0,0.0,0.0,0.0,0.0,0.0,0.0,0.0,0.0,0.0,0.0,0.0,0.0,0.0,0.0,0.0,0.0,0.0,0.0,0.0,0.0,0.0,0.0,0.0,0.0,0.0,0.0,0.0,0.0,0.0,3.7485,3.9045,3.9101,3.9017,3.8921,3.891,3.8464,0.0,0.0,0.0,0.0,0.0,0.0,0.0,0.0,0.0,0.0,0.0,0.0,0.0,0.0,0.0,0.0,0.0,0.0,0.0,0.0,0.0,0.0,0.0,0.0,0.0,0.0,0.0,0.0,0.0,0.0,0.0,0.0,0.0,0.0,0.0,0.0,0.0,0.0,0.0,0.0,0.0,0.0,0.0,0.0,0.0,0.0,0.0,0.0,0.0,0.0,0.0,0.0,0.0,0.0,0.0,0.0,0.0,0.0,0.0,0.0,0.0,0.0,0.0,0.0,0.0,0.0,0.0,0.0,0.0,0.0,0.0,0.0,0.0,0.0,0.0,0.0,0.0,0.0,0.0,0.0,0.0,0.0,0.0,0.0,0.0,0.0,0.0,0.0,0.0,0.0,0.0,0.0,0.0,0.0,0.0,0.0,0.0,0.0,0.0,0.0,0.0,0.0,0.0,0.0,0.0,0.0,0.0,0.0,3.7466,3.9045,3.9101,3.9045,3.8979,3.8921,3.8483,0.0,0.0,0.0,0.0,0.0,0.0,0.0,0.0,0.0,0.0,0.0,0.0,0.0,0.0,0.0,0.0,0.0,0.0,0.0,0.0,0.0,0.0,0.0,0.0,0.0,0.0,0.0,0.0,0.0,0.0,0.0,0.0,0.0,0.0,0.0,0.0,0.0,0.0,0.0,0.0,0.0,0.0,0.0,0.0,0.0,0.0,0.0,0.0,4.5278,0.0,0.0,0.0,0.0,0.0,0.0,0.0,0.0,0.0,0.0,0.0,0.0,0.0,0.0,0.0,0.0,0.0,0.0,0.0,0.0,0.0,0.0,0.0,0.0,0.0,0.0,0.0,0.0,0.0,0.0,0.0,0.0,0.0,0.0,0.0,0.0,0.0,0.0,0.0,0.0,0.0,0.0,0.0,0.0,0.0,0.0,0.0,0.0,0.0,0.0,0.0,0.0,0.0,0.0,0.0,0.0,0.0,0.0,0.0,3.7299,3.8488,3.8915,3.9073,3.9007,3.8939,3.8483,0.0,0.0,0.0,0.0,0.0,0.0,0.0,0.0,0.0,0.0,0.0,0.0,0.0,0.0,0.0,0.0,0.0,0.0,0.0,0.0,0.0,0.0,0.0,0.0,0.0,0.0,0.0,0.0,0.0,0.0,0.0,0.0,0.0,0.0,0.0,0.0,0.0,0.0,0.0,0.0,0.0,0.0,0.0,0.0,0.0,0.0,0.0,0.0,0.0,0.0,0.0,0.0,0.0,0.0,0.0,0.0,0.0,0.0,0.0,0.0,0.0,0.0,0.0,0.0,0.0,0.0,0.0,0.0,0.0,0.0,0.0,0.0,0.0,0.0,0.0,0.0,0.0,0.0,0.0,0.0,0.0,0.0,0.0,0.0,0.0,0.0,0.0,0.0,0.0,0.0,0.0,0.0,0.0,0.0,0.0,0.0,0.0,0.0,0.0,0.0,0.0,0.0,0.0,0.0,0.0,0.0,0.0,3.6278,3.7095,3.7875,3.8692,3.9073,3.9007,3.881,3.8309,3.7458,0.0,0.0,0.0,0.0,0.0,0.0,0.0,0.0,0.0,0.0,0.0,0.0,0.0,0.0,0.0,0.0,0.0,0.0,0.0,0.0,0.0,0.0,0.0,0.0,0.0,0.0,0.0,0.0,0.0,0.0,0.0,0.0,0.0,0.0,0.0,0.0,0.0,0.0,4.2451,4.4158,0.0,0.0,0.0,0.0,0.0,0.0,0.0,0.0,4.6562,0.0,0.0,0.0,0.0,0.0,0.0,0.0,0.0,0.0,0.0,0.0,0.0,0.0,0.0,0.0,0.0,0.0,0.0,0.0,0.0,0.0,0.0,0.0,0.0,0.0,0.0,0.0,0.0,0.0,0.0,0.0,0.0,0.0,0.0,0.0,0.0,0.0,0.0,0.0,0.0,0.0,0.0,0.0,0.0,0.0,0.0,0.0,0.0,0.0,0.0,0.0,0.0,0.0,0.0,0.0,0.0,3.546,3.6278,3.7076,3.7875,3.8674,3.9101,3.9073,3.8331,3.7525,3.6731,0.0,0.0,0.0,0.0,0.0,0.0,0.0,0.0,0.0,0.0,0.0,0.0,0.0,0.0,0.0,0.0,0.0,0.0,0.0,0.0,0.0,0.0,0.0,0.0,0.0,0.0,0.0,0.0,0.0,0.0,0.0,0.0,0.0,0.0,0.0,0.0,0.0,0.0,0.0,4.6269,4.7517,0.0,0.0,0.0,0.0,0.0,0.0,0.0,0.0,4.9481,0.0,0.0,0.0,0.0,0.0,0.0,0.0,0.0,0.0,0.0,0.0,0.0,0.0,0.0,0.0,0.0,0.0,0.0,0.0,0.0,0.0,0.0,0.0,0.0,0.0,0.0,0.0,0.0,0.0,0.0,0.0,0.0,0.0,0.0,0.0,0.0,0.0,0.0,0.0,0.0,0.0,0.0,0.0,0.0,0.0,0.0,0.0,0.0,0.0,0.0,0.0,0.0,0.0,0.0,0.0,3.416,3.5423,3.6463,3.7262,3.8061,3.8469,3.8469,3.8007,3.7147,0.0,0.0,0.0,0.0,0.0,0.0,0.0,0.0,0.0,0.0,0.0,0.0,0.0,0.0,0.0,0.0,0.0,0.0,0.0,0.0,0.0,0.0,0.0,0.0,0.0,0.0,0.0,0.0,0.0,0.0,0.0,0.0,0.0,0.0,0.0,0.0,0.0,0.0,0.0,0.0,4.7315,4.8471,4.8967,0.0,0.0,0.0,0.0,0.0,0.0,5.0527,5.0398,0.0,0.0,0.0,0.0,0.0,0.0,0.0,0.0,0.0,0.0,0.0,0.0,0.0,0.0,0.0,0.0,0.0,0.0,0.0,0.0,0.0,0.0,0.0,0.0,0.0,0.0,0.0,0.0,0.0,0.0,0.0,0.0,0.0,0.0,0.0,0.0,0.0,0.0,0.0,0.0,0.0,0.0,0.0,0.0,0.0,0.0,0.0,0.0,0.0,0.0,0.0,0.0,0.0,0.0,0.0,3.3008,3.4643,3.5795,3.6445,3.7243,3.7652,3.7652,3.7441,3.6684,0.0,0.0,0.0,0.0,0.0,0.0,0.0,0.0,0.0,0.0,0.0,0.0,0.0,0.0,0.0,0.0,0.0,0.0,0.0,0.0,0.0,0.0,0.0,0.0,0.0,0.0,0.0,0.0,0.0,0.0,0.0,0.0,0.0,0.0,0.0,0.0,0.0,0.0,0.0,0.0,0.0,4.9352,5.082,5.1041,0.0,0.0,0.0,0.0,5.1041,5.1187,0.0,0.0,0.0,0.0,0.0,0.0,0.0,0.0,0.0,0.0,0.0,0.0,0.0,0.0,0.0,0.0,0.0,0.0,0.0,0.0,0.0,0.0,0.0,0.0,0.0,0.0,0.0,0.0,0.0,0.0,0.0,0.0,0.0,0.0,0.0,0.0,0.0,0.0,0.0,0.0,0.0,0.0,0.0,0.0,0.0,0.0,0.0,0.0,0.0,0.0,0.0,0.0,0.0,0.0,0.0,0.0,3.3027,3.4643,3.556,3.5665,3.6408,3.6835,3.6835,3.6096,3.5555,0.0,0.0,0.0,0.0,0.0,0.0,0.0,0.0,0.0,0.0,0.0,0.0,0.0,0.0,0.0,0.0,0.0,0.0,0.0,0.0,0.0,0.0,0.0,0.0,0.0,0.0,0.0,0.0,0.0,0.0,0.0,0.0,0.0,0.0,0.0,0.0,0.0,0.0,0.0,0.0,0.0,5.0839,5.172,5.1848,5.1848,0.0,0.0,5.1848,5.1867,5.2454,0.0,0.0,0.0,0.0,0.0,0.0,0.0,0.0,0.0,0.0,0.0,0.0,0.0,0.0,0.0,0.0,0.0,0.0,0.0,0.0,0.0,0.0,0.0,0.0,0.0,0.0,0.0,0.0,0.0,0.0,0.0,0.0,0.0,0.0,0.0,0.0,0.0,0.0,0.0,0.0,0.0,0.0,0.0,0.0,0.0,0.0,0.0,0.0,0.0,0.0,0.0,0.0,0.0,0.0,0.0,3.1968,3.2358,3.3918,3.5014,3.5479,3.5832,3.5999,3.5999,3.5639,3.518,0.0,0.0,0.0,0.0,0.0,0.0,0.0,0.0,0.0,0.0,0.0,0.0,0.0,0.0,0.0,0.0,0.0,0.0,0.0,0.0,0.0,0.0,0.0,0.0,0.0,0.0,0.0,0.0,0.0,0.0,0.0,0.0,0.0,0.0,0.0,0.0,0.0,0.0,0.0,0.0,0.0,0.0,5.2509,5.2674,0.0,0.0,0.0,5.2674,5.2674,0.0,0.0,0.0,0.0,0.0,0.0,0.0,0.0,0.0,0.0,0.0,0.0,0.0,0.0,0.0,0.0,0.0,0.0,0.0,0.0,0.0,0.0,0.0,0.0,0.0,0.0,0.0,0.0,0.0,0.0,0.0,0.0,0.0,0.0,0.0,0.0,0.0,0.0,0.0,0.0,0.0,0.0,0.0,0.0,0.0,0.0,0.0,0.0,0.0,0.0,0.0,0.0,0.0,0.0,0.0,0.0,0.0,3.1842,3.3199,3.4333,3.5144,3.5188,3.5188,3.5163,3.5163,0.0,0.0,0.0,0.0,0.0,0.0,0.0,0.0,0.0,0.0,0.0,0.0,0.0,0.0,0.0,0.0,0.0,0.0,0.0,0.0,0.0,0.0,0.0,0.0,0.0,0.0,0.0,3.1715,0.0,0.0,0.0,0.0,0.0,0.0,0.0,0.0,0.0,0.0,0.0,0.0,0.0,0.0,5.0839,5.2656,5.2894,5.2986,0.0,0.0,5.3206,5.3206,5.3206,5.2931,0.0,0.0,0.0,0.0,0.0,0.0,0.0,0.0,0.0,0.0,0.0,0.0,0.0,0.0,0.0,0.0,0.0,0.0,0.0,0.0,0.0,0.0,0.0,0.0,0.0,0.0,0.0,0.0,0.0,0.0,0.0,0.0,0.0,0.0,0.0,0.0,0.0,0.0,0.0,0.0,0.0,0.0,0.0,0.0,0.0,0.0,0.0,0.0,0.0,0.0,0.0,0.0,0.0,0.0,0.0,3.1801,3.2705,3.3543,3.4253,3.4362,3.4344,3.4271,3.4241,3.4148,0.0,0.0,0.0,0.0,0.0,0.0,0.0,0.0,0.0,0.0,0.0,0.0,0.0,0.0,0.0,0.0,0.0,0.0,0.0,0.0,0.0,0.0,0.0,0.0,0.0,0.0,0.0,0.0,0.0,0.0,0.0,0.0,0.0,0.0,0.0,0.0,0.0,0.0,0.0,0.0,0.0,4.9352,5.1738,5.2068,5.2344,0.0,0.0,5.3206,5.3206,5.3206,5.2889,5.1962,0.0,0.0,0.0,0.0,0.0,0.0,0.0,0.0,0.0,0.0,0.0,0.0,0.0,0.0,0.0,0.0,0.0,0.0,0.0,0.0,0.0,0.0,0.0,0.0,0.0,0.0,0.0,0.0,0.0,0.0,0.0,0.0,0.0,0.0,0.0,0.0,0.0,0.0,0.0,0.0,0.0,0.0,0.0,0.0,0.0,0.0,0.0,0.0,0.0,0.0,0.0,0.0,0.0,3.1027,3.1849,3.2691,3.3496,3.4279,3.4316,3.4293,3.4269,3.4148,3.4049,0.0,0.0,0.0,0.0,0.0,0.0,0.0,0.0,0.0,0.0,0.0,0.0,0.0,0.0,0.0,0.0,0.0,0.0,0.0,0.0,0.0,0.0,0.0,0.0,0.0,0.0,0.0,0.0,3.2614,3.3128,3.4385,0.0,0.0,0.0,0.0,0.0,0.0,0.0,0.0,0.0,0.0,4.9205,5.1646,5.1995,0.0,0.0,5.3206,5.3206,5.3206,5.3206,5.2889,5.1962,5.103,0.0,0.0,0.0,0.0,0.0,0.0,0.0,0.0,0.0,0.0,0.0,0.0,0.0,0.0,0.0,0.0,0.0,0.0,0.0,0.0,0.0,0.0,0.0,0.0,0.0,0.0,0.0,0.0,0.0,0.0,0.0,0.0,0.0,0.0,0.0,0.0,0.0,0.0,0.0,0.0,0.0,0.0,0.0,0.0,0.0,0.0,0.0,0.0,0.0,0.0,0.0,0.0,3.0767,3.1893,3.2493,3.3318,3.4367,3.434,3.4316,3.4293,3.4148,3.4023,0.0,0.0,0.0,0.0,0.0,0.0,0.0,0.0,0.0,0.0,0.0,0.0,0.0,0.0,0.0,0.0,0.0,0.0,0.0,0.0,0.0,0.0,0.0,0.0,0.0,0.0,0.0,0.0,3.2816,3.3495,3.4844,0.0,0.0,0.0,0.0,0.0,0.0,0.0,0.0,0.0,0.0,4.8471,5.0912,5.1481,5.1922,5.2729,5.3059,5.3206,5.3206,5.2962,5.2462,5.1553,0.0,0.0,0.0,0.0,0.0,0.0,0.0,0.0,0.0,0.0,0.0,0.0,0.0,0.0,0.0,0.0,0.0,0.0,0.0,0.0,0.0,0.0,0.0,0.0,0.0,0.0,0.0,0.0,0.0,0.0,3.1815,0.0,0.0,0.0,0.0,0.0,0.0,0.0,0.0,0.0,0.0,0.0,0.0,0.0,0.0,0.0,0.0,0.0,0.0,0.0,0.0,0.0,0.0,3.0269,3.1874,3.2091,3.2901,3.4367,3.4404,3.44,3.4349,3.4099,3.3998,3.3979,0.0,0.0,0.0,0.0,0.0,0.0,0.0,0.0,0.0,0.0,0.0,0.0,0.0,0.0,0.0,0.0,0.0,0.0,0.0,0.0,0.0,0.0,0.0,0.0,0.0,0.0,3.2559,3.3293,3.4082,0.0,0.0,0.0,0.0,0.0,0.0,0.0,0.0,0.0,0.0,4.5938,4.6856,4.9279,5.0325,5.1096,5.1903,5.2656,5.3188,5.3188,5.2425,5.1517,0.0,0.0,0.0,0.0,0.0,0.0,0.0,0.0,0.0,0.0,0.0,0.0,0.0,0.0,0.0,0.0,0.0,0.0,0.0,0.0,0.0,0.0,0.0,0.0,0.0,0.0,0.0,3.3243,3.2798,0.0,0.0,0.0,0.0,0.0,0.0,0.0,0.0,0.0,0.0,0.0,3.3762,3.4465,0.0,0.0,0.0,0.0,0.0,0.0,0.0,0.0,0.0,0.0,0.0,0.0,3.0852,3.2,3.2604,3.373,3.5323,3.5375,3.553,3.6005,3.5324,3.4286,3.2965,0.0,0.0,0.0,0.0,0.0,0.0,0.0,0.0,0.0,0.0,0.0,0.0,0.0,0.0,0.0,0.0,0.0,0.0,0.0,0.0,0.0,0.0,0.0,0.0,0.0,3.2522,0.0,0.0,0.0,0.0,0.0,0.0,0.0,0.0,0.0,0.0,0.0,4.3589,4.4929,4.5571,4.6581,4.8471,4.9462,5.0288,0.0,0.0,0.0,0.0,0.0,0.0,0.0,0.0,0.0,0.0,0.0,0.0,0.0,0.0,4.6675,4.6595,4.6208,4.576,4.533,0.0,0.0,0.0,0.0,0.0,0.0,0.0,0.0,0.0,0.0,0.0,0.0,0.0,0.0,3.4086,0.0,3.3589,0.0,0.0,0.0,0.0,0.0,0.0,0.0,0.0,3.4789,3.4806,3.4415,3.4854,3.4746,0.0,3.4227,3.4114,0.0,0.0,0.0,0.0,0.0,0.0,0.0,0.0,3.1155,3.2079,3.2924,3.4167,3.5803,3.581,3.6157,3.6851,3.5899,3.4694,3.3286,3.2459,3.1714,0.0,0.0,0.0,0.0,0.0,0.0,0.0,0.0,0.0,0.0,0.0,0.0,0.0,0.0,0.0,0.0,0.0,0.0,0.0,0.0,0.0,0.0,0.0,3.3185,0.0,0.0,0.0,0.0,0.0,0.0,0.0,0.0,0.0,4.2176,4.2745,4.3479,4.4562,4.5406,4.6379,4.7719,0.0,0.0,0.0,0.0,0.0,0.0,0.0,5.025,5.0314,4.9123,4.7886,4.6959,4.6637,4.6542,4.6655,0.0,0.0,4.7108,4.6723,4.6223,4.5863,4.5376,4.4996,4.4667,4.4233,4.3869,0.0,0.0,0.0,0.0,0.0,0.0,0.0,0.0,3.3868,3.4363,0.0,3.433,0.0,0.0,0.0,0.0,0.0,3.3762,0.0,0.0,3.4914,3.5198,3.5643,3.5634,3.5522,3.5321,3.447,3.416,3.4159,3.2871,0.0,0.0,0.0,0.0,0.0,0.0,3.1175,3.2119,3.3004,3.4245,3.5897,3.5889,3.6194,3.6883,3.5858,3.5101,3.4746,3.302,3.2002,3.1828,3.0884,0.0,0.0,0.0,0.0,0.0,0.0,0.0,0.0,0.0,0.0,0.0,0.0,0.0,0.0,0.0,0.0,0.0,0.0,0.0,0.0,3.2783,0.0,0.0,0.0,0.0,0.0,0.0,0.0,0.0,0.0,0.0,4.2359,4.2378,4.2928,4.447,0.0,0.0,0.0,0.0,4.9536,4.9536,5.0196,5.0967,5.1775,5.0383,4.9391,5.0107,0.0,0.0,4.6495,4.6381,4.6398,4.6381,4.6477,4.6482,4.6201,4.6126,4.569,4.4331,4.4144,4.3782,4.3039,4.2969,4.2936,3.4326,0.0,0.0,0.0,0.0,3.3301,3.322,3.3465,3.3615,3.3881,3.4209,3.3952,0.0,0.0,0.0,0.0,0.0,0.0,3.4572,3.4805,3.5332,3.5623,3.5602,3.5555,3.5169,3.4551,3.4237,3.3827,3.3382,3.3027,3.2325,3.1338,0.0,0.0,0.0,0.0,3.1817,3.2257,3.3594,3.5155,3.6772,3.6806,3.7066,3.7601,3.6619,3.5652,3.4838,3.3592,3.2811,3.259,3.1671,0.0,0.0,0.0,0.0,0.0,0.0,0.0,0.0,0.0,0.0,0.0,0.0,0.0,0.0,0.0,0.0,0.0,0.0,0.0,3.2867,3.3359,3.3852,0.0,0.0,0.0,0.0,0.0,0.0,0.0,0.0,0.0,4.3075,4.3149,4.3314,0.0,0.0,4.5993,4.6214,4.7645,4.8673,4.8673,4.8854,0.0,0.0,4.9072,4.8429,4.9075,4.7805,4.6637,4.6319,4.627,4.627,4.6253,4.6253,4.631,4.6318,4.6051,4.5577,4.4755,4.4191,4.3642,4.2847,4.267,4.2727,3.4751,3.501,3.3814,3.3561,3.3809,3.3066,3.2898,3.3202,3.3339,3.3684,3.4099,3.3817,3.3826,3.4061,3.3647,0.0,0.0,0.0,3.4563,3.5157,3.5659,3.596,3.6071,3.5684,3.5062,3.4211,3.3809,3.3398,3.2979,3.3042,3.2462,3.1271,0.0,0.0,2.9446,3.1136,3.1933,3.1826,3.371,3.5367,3.6663,3.7591,3.8172,3.8321,3.711,3.6038,3.5294,3.4021,3.317,3.2916,3.2296,3.1868,0.0,0.0,0.0,0.0,0.0,0.0,0.0,0.0,0.0,0.0,0.0,3.0662,0.0,0.0,0.0,0.0,3.1892,3.2665,3.3447,3.3811,0.0,0.0,0.0,0.0,0.0,0.0,0.0,4.0939,4.1965,4.2844,4.332,4.3375,4.3428,4.3497,4.4892,4.5902,4.5902,0.0,4.8247,4.8229,4.8169,4.8422,4.9168,4.8457,4.7826,4.7904,4.7237,4.6512,4.627,4.6189,4.6189,4.6189,4.6189,4.6239,4.6301,4.5923,4.5409,4.4759,4.4353,4.3799,4.2723,4.253,4.2609,3.5024,3.4985,3.398,3.3813,3.4137,3.2967,3.2639,3.2943,3.3024,3.361,3.4407,3.376,3.3791,3.4321,3.3489,0.0,3.331,3.3352,3.4196,3.5679,3.5774,3.6109,3.6633,3.5792,3.4972,3.4193,3.3323,3.2948,3.2997,3.3011,3.2355,3.112,3.1294,3.0673,2.946,3.1082,3.171,3.1149,3.343,3.4994,3.5835,3.7959,3.904,3.8878,3.7221,3.6166,3.5878,3.4238,3.3183,3.2916,3.2705,3.2557,3.2371,0.0,0.0,0.0,0.0,0.0,0.0,0.0,0.0,0.0,0.0,0.0,0.0,0.0,0.0,0.0,3.201,0.0,3.3411,3.4154,0.0,0.0,0.0,3.7212,3.7294,3.944,4.0881,4.0808,0.0,0.0,4.3214,4.3214,4.3268,4.3463,4.4783,4.5792,4.5847,4.711,4.8114,4.8169,4.809,4.8265,4.8844,4.8218,4.7461,4.6987,4.6702,4.6495,4.627,4.6189,4.6189,4.6189,4.6189,4.6189,4.6189,4.5721,4.5059,4.4375,4.4316,4.3993,4.2644,4.2391,4.253,3.4643,3.4894,3.4134,3.3811,3.3739,3.2644,3.2353,3.2623,3.2805,3.3073,3.3355,3.3194,3.3242,3.3435,3.3188,3.3117,3.3165,3.3274,3.3882,3.4803,3.4896,3.5281,3.5822,3.5001,3.4437,3.4157,3.3323,3.2916,3.2916,3.3042,3.2343,3.1028,3.1261,3.0715,2.9405,3.0541,3.1468,3.1996,3.2637,3.3639,3.5011,3.6073,3.6802,3.7322,3.6192,3.5441,3.5162,3.4018,3.3214,3.2916,3.2705,3.2539,3.2406,3.223,0.0,0.0,0.0,0.0,0.0,0.0,0.0,0.0,0.0,3.2208,3.2853,0.0,3.2918,0.0,3.311,3.3535,3.4244,3.448,0.0,0.0,3.7384,3.8031,3.8067,4.0227,4.1482,4.0846,4.223,4.3214,4.3214,4.3214,4.3196,4.3305,4.4127,4.4967,4.5588,4.6462,4.7357,4.7922,4.7988,4.7956,4.8019,4.7674,4.716,4.6731,4.6637,4.6495,4.6221,4.6189,4.6189,4.6189,4.6189,4.6189,4.6189,4.5607,4.4834,4.4062,4.3658,4.319,4.2268,4.2181,4.2228,3.4349,3.448,3.4057,3.369,3.3347,3.2651,3.235,3.2371,3.2541,3.2707,3.282,3.2802,3.2898,3.3011,3.3024,3.3024,3.3073,3.3165,3.3646,3.4402,3.4514,3.4749,3.5097,3.4618,3.4159,3.3687,3.3194,3.2916,3.2916,3.3024,3.2373,3.0936,3.1209,3.0827,2.986,3.0561,3.1036,3.124,3.2011,3.3337,3.5258,3.5571,3.6067,3.6752,3.5847,3.5174,3.4897,3.3957,3.3244,3.2916,3.269,3.2489,3.2319,3.2284,3.2126,0.0,0.0,0.0,0.0,0.0,0.0,0.0,0.0,0.0,0.0,0.0,3.3615,3.396,3.3996,3.4292,3.4916,3.5313,3.589,3.679,3.7618,3.8156,3.8241,4.0106,4.1142,4.0724,4.2069,4.305,4.3087,4.305,4.305,4.305,4.3469,4.4197,4.5383,4.6275,4.7037,4.782,4.7884,4.7717,4.7554,4.7356,4.7088,4.6795,4.6637,4.6542,4.6301,4.6204,4.6189,4.6189,4.6189,4.6189,4.6137,4.5291,4.4366,4.3875,4.3037,4.2344,4.1903,4.1909,4.2097,3.405,3.4102,3.3937,3.3587,3.3088,3.2853,3.2521,3.2144,3.2284,3.2439,3.2606,3.2606,3.2758,3.2995,3.3045,3.313,3.3283,3.3221,3.3625,3.4271,3.4312,3.4308,3.4308,3.4308,3.3898,3.3104,3.3042,3.2948,3.2916,3.3042,3.2379,3.1117,3.121,3.0992,3.0438,3.0672,3.0526,2.9931,3.1651,3.3526,3.5447,3.5443,3.5754,3.6398,3.5625,3.5008,3.4751,3.3884,3.3244,3.2916,3.2657,3.2458,3.2354,3.2301,3.2388,0.0,3.2652,0.0,0.0,0.0,0.0,0.0,0.0,0.0,0.0,3.3542,3.3971,3.4679,3.4751,3.5015,3.563,3.6299,3.6748,3.6874,3.7467,3.7969,3.8194,3.9533,4.0492,4.051,4.1904,4.29,4.29,4.29,4.29,4.2938,4.2956,4.3574,4.5071,4.5997,4.6717,4.7588,4.7705,4.7554,4.7363,4.7249,4.7088,4.6842,4.6684,4.6572,4.6429,4.6301,4.6221,4.6221,4.6189,4.6189,4.6189,4.4975,4.3957,4.384,4.271,4.1692,4.1622,4.1797,4.1962,3.3797,3.4084,3.4153,3.3986,3.3603,3.3252,3.265,3.191,3.209,3.2301,3.2523,3.2573,3.3011,3.3596,3.3613,3.4036,3.4638,3.4097,3.3984,3.4175,3.3625,3.3368,3.335,3.335,3.3265,3.3028,3.3028,3.2948,3.2916,3.3024,3.2667,3.1815,3.1483,3.0968,3.0346,0.0,0.0,0.0,3.2219,3.3261,3.3033,3.3492,3.4095,3.4811,3.4482,0.0,3.4,3.3611,3.3244,3.2916,3.2657,0.0,0.0,0.0,0.0,0.0,0.0,0.0,0.0,0.0,0.0,0.0,3.5137,3.4751,3.3556,3.405,3.4788,3.5494,3.5517,3.5774,3.6489,3.6638,3.6982,3.7593,3.7809,3.7916,3.809,3.9445,4.0456,4.051,4.1922,4.2882,4.29,4.29,4.29,4.29,4.29,4.3319,4.4245,4.504,4.5856,4.6613,4.7139,4.7345,4.732,4.716,4.698,4.6842,4.6795,4.6684,4.6447,4.6398,4.6301,4.6221,4.6189,4.6189,4.6172,4.4975,4.384,4.3745,4.2566,4.156,4.1471,4.1648,4.1797,3.3726,0.0,3.4184,3.4087,0.0,3.3606,3.3195,3.2559,3.2147,3.2317,3.2932,3.2967,3.3459,3.4306,3.4217,3.4482,3.496,3.4266,3.3977,3.4008,3.3387,3.3042,3.3042,3.3086,3.3086,3.3042,3.3011,3.2997,3.2948,3.3011,3.2696,3.2002,3.1827,3.1626,3.1421,3.2112,3.18,3.0516,3.135,3.1902,3.2202,3.2514,3.3007,3.3659,0.0,0.0,0.0,0.0,0.0,0.0,0.0,0.0,0.0,0.0,0.0,3.4469,3.4486,3.4579,3.4799,3.4978,3.5118,3.5204,3.5457,3.5327,3.4655,3.503,3.5512,3.6226,3.6248,3.654,3.7144,3.7217,3.7362,3.7756,3.781,3.7828,3.8095,3.9409,4.0384,4.0601,4.1885,4.29,4.29,4.29,4.29,4.29,4.29,4.3045,4.3462,4.4204,4.511,4.6305,4.6927,4.7302,4.7276,4.7143,4.6998,4.6888,4.6842,4.6749,4.6542,4.6429,4.635,4.6221,4.614,4.6122,4.595,4.4879,4.381,4.3623,4.2566,4.1612,4.1426,4.156,4.1692,3.369,3.3761,3.4101,3.4056,3.3771,3.3889,3.3723,3.3363,0.0,0.0,0.0,3.3576,3.4088,3.4937,3.4828,3.4972,3.5189,3.4429,3.4089,3.4088,3.3312,3.2965,3.2979,3.3073,3.3086,3.3073,3.3024,3.3011,3.2997,3.3011,3.2737,3.2236,3.2202,3.2219,3.2407,3.3981,3.362,3.128,3.1166,3.1657,3.2704,3.2828,3.3131,3.364,3.4166,3.4336,3.4137,3.3909,3.3947,3.4237,3.3969,3.4074,3.4681,3.4638,3.4687,3.4888,3.4923,3.4999,3.5168,3.5367,3.5492,3.5632,3.5769,3.5933,3.605,3.5987,3.623,3.6958,3.696,3.7144,3.7632,3.7667,3.7667,3.7667,3.7667,3.7721,3.7918,3.9175,4.0149,4.051,4.1703,4.2737,4.2882,4.29,4.29,4.29,4.29,4.29,4.2991,4.3643,4.4729,4.6173,4.6783,4.7122,4.7258,4.7116,4.6998,4.698,4.6888,4.6795,4.6637,4.6525,4.6398,4.6221,4.609,4.6023,4.5885,4.4872,4.3877,4.3685,4.266,4.169,4.1443,4.1515,4.1604,3.3575,3.3745,3.4,3.4235,3.4349,3.3994,3.3679,3.3448,3.3602,3.3921,3.4347,3.4286,3.476,3.5574,3.5556,3.5962,3.6626,3.5292,3.4748,3.4852,3.3481,3.287,3.2916,3.2979,3.2979,3.2948,3.3042,3.3024,3.2948,3.3024,3.3032,3.2901,3.2455,3.201,3.1634,3.2004,3.2034,3.1734,3.4532,3.5743,3.5221,3.5848,3.618,3.6159,3.6083,3.603,3.5765,3.5557,3.5367,3.5214,3.4818,3.492,3.5545,3.5479,3.568,3.6387,3.6496,3.6536,3.6693,3.6791,3.6943,3.7255,3.7345,3.7182,3.6638,3.6584,3.6908,3.7629,3.7595,3.7613,3.7703,3.7649,3.7613,3.7613,3.7613,3.7649,3.7739,3.8599,3.948,4.0239,4.1197,4.2137,4.2719,4.2864,4.29,4.29,4.29,4.29,4.3009,4.3588,4.4672,4.5947,4.6326,4.6593,4.7062,4.7088,4.6998,4.6998,4.698,4.6888,4.6637,4.659,4.6447,4.6204,4.609,4.599,4.5955,4.5242,4.4356,4.3663,4.2835,4.223,4.1538,4.1515,4.156,3.3646,3.3748,3.3984,3.425,3.4529,3.4598,3.4588,3.4607,3.4933,3.4984,3.4879,3.4879,3.5392,3.6185,3.6162,3.6399,3.6821,3.5337,3.4799,3.4836,3.3468,3.2805,3.282,3.2934,3.2948,3.2948,3.3011,3.3024,3.3042,3.3073,3.3135,3.3196,3.2984,3.2839,3.27,3.3261,3.3585,3.371,3.4032,3.405,3.3672,3.4391,3.4928,3.524,3.5514,3.5807,3.6035,3.581,3.5804,3.5984,3.5687,3.5823,3.645,3.6751,3.7096,3.7486,3.7521,3.7544,3.7584,3.7259,3.7206,3.7466,3.7522,3.747,3.7202,3.7272,3.7468,3.7774,3.7739,3.7667,3.7631,3.7613,3.7577,3.7577,3.7577,3.7613,3.7774,3.8832,3.955,3.9769,4.1176,4.2244,4.2192,4.2573,4.2882,4.29,4.29,4.29,4.29,4.3188,4.3963,4.5346,4.5966,4.6467,4.7062,4.7088,4.6998,4.6998,4.6998,4.6888,4.6637,4.659,4.6495,4.627,4.604,4.5939,4.5871,4.5161,4.4347,4.3583,4.2932,4.2213,4.1562,4.1408,4.1471,3.3732,3.3799,3.4034,3.43,3.4611,3.5105,3.5383,3.5549,3.5827,3.5737,3.5408,3.5503,3.5972,3.6667,3.6602,3.6626,3.6619,3.5262,3.4672,3.464,3.3401,3.2773,3.2823,3.2852,3.2916,3.2979,3.2979,3.3011,3.3055,3.3086,3.3165,3.3292,3.3422,3.3549,3.3661,3.4394,3.4834,3.4858,3.3228,3.2525,3.2957,3.3666,3.4314,3.4795,3.5496,3.6069,3.6486,3.6272,3.6332,3.6789,3.6701,3.6887,3.7394,3.7993,3.8392,3.8392,3.8392,3.8286,3.8076,3.7646,3.7379,3.7317,3.7354,3.7411,3.754,3.7703,3.7775,3.7685,3.7667,3.7649,3.7613,3.7577,3.754,3.754,3.754,3.7647,3.7916,3.8883,3.953,3.9406,4.0955,4.1951,4.1845,4.2336,4.2864,4.2882,4.29,4.2862,4.2862,4.2804,4.334,4.4435,4.5378,4.6065,4.6766,4.6999,4.6962,4.6998,4.6998,4.6888,4.6702,4.659,4.6495,4.627,4.5972,4.5838,4.5735,4.5268,4.449,4.3764,4.3135,4.2345,4.1435,4.1272,4.1426,3.3799,3.3949,3.4151,3.4448,3.4691,3.5152,3.5308,3.5383,3.5684,3.5871,3.5925,3.6096,3.6357,3.6684,3.6661,3.6708,3.6649,3.5335,3.4707,3.4623,3.3298,3.2672,3.2791,3.287,3.2916,3.2916,3.2979,3.3011,3.3011,3.3104,3.3183,3.3292,3.3422,3.3509,3.3538,3.3752,3.3881,3.3944,3.3802,3.4489,3.6046,3.6869,3.7257,3.7274,3.793,3.8285,3.8141,3.7935,3.7769,3.781,3.8071,3.8249,3.8333,3.886,3.9199,3.9217,3.9199,3.8901,3.8199,3.8139,3.7884,3.7235,3.7259,3.7334,3.7429,3.7411,3.7503,3.7577,3.7613,3.7613,3.7577,3.7503,3.7411,3.7429,3.7429,3.7696,3.8249,3.8093,3.8382,3.9871,4.0267,4.0648,4.1447,4.2242,4.2824,4.2862,4.2842,4.2804,4.2765,4.2688,4.2821,4.3637,4.442,4.5201,4.59,4.6551,4.6908,4.6998,4.6998,4.6888,4.6684,4.659,4.6512,4.6253,4.5972,4.5838,4.5736,4.5511,4.5079,4.4181,4.3487,4.2753,4.1615,4.1209,4.1272,3.3834,3.4053,3.4218,3.4448,3.4756,3.5135,3.5308,3.5337,3.5656,3.5861,3.6019,3.6148,3.6335,3.6444,3.6544,3.6626,3.6643,3.522,3.4633,3.4603,3.3212,3.259,3.269,3.2805,3.2852,3.2916,3.2948,3.3011,3.3073,3.3196,3.3304,3.3352,3.3441,3.3452,3.3509,3.3605,3.389,3.4449,3.4523,3.5147,3.6214,3.6279,3.6666,3.7521,3.7747,3.8264,3.8915,3.8375,3.833,3.9121,3.8747,3.8638,3.908,3.9693,3.9989,4.0007,4.0007,3.9656,3.8883,3.8433,3.8068,3.7831,3.7411,3.7203,3.7334,3.7317,3.7372,3.7447,3.7521,3.7577,3.7503,3.7411,3.7392,3.7354,3.7334,3.7514,3.7838,3.8089,3.8413,3.874,3.9924,4.0697,4.0899,4.1875,4.2598,4.2709,4.2688,4.2688,4.2706,4.2588,4.2651,4.3023,4.3948,4.4918,4.5659,4.648,4.6908,4.6998,4.6998,4.6888,4.6778,4.6637,4.6542,4.635,4.6073,4.5871,4.5821,4.5632,4.5286,4.444,4.3249,4.221,4.1202,4.1105,4.1169,3.3935,3.417,3.4317,3.4562,3.4835,3.5135,3.5337,3.5383,3.5639,3.5861,3.6019,3.6122,3.6191,3.6301,3.6485,3.6643,3.6551,3.543,3.4789,3.4565,3.3407,3.2786,3.2623,3.274,3.2838,3.2902,3.2948,3.3136,3.3404,3.3599,3.3816,3.4027,3.4063,3.4093,3.4146,3.4233,3.4593,3.5162,3.5292,3.5771,3.6431,3.6103,3.6389,3.7474,3.7558,3.8091,3.9185,3.8594,3.8726,3.9823,3.9316,3.9292,3.9916,4.0486,4.0797,4.0797,4.0779,4.0446,3.9673,3.9076,3.8626,3.8244,3.7686,3.7337,3.7238,3.7241,3.7259,3.7279,3.7447,3.7466,3.7392,3.7337,3.7279,3.7259,3.7259,3.735,3.7671,3.8082,3.816,3.8093,3.9631,4.0981,4.0984,4.183,4.2609,4.2609,4.257,4.257,4.2548,4.2508,4.2463,4.2517,4.3685,4.4714,4.5427,4.6373,4.6837,4.6998,4.6998,4.6934,4.6842,4.6684,4.6542,4.6381,4.6154,4.5972,4.5821,4.5632,4.5338,4.4406,4.3371,4.2302,4.1522,4.1363,4.1254,3.4151,3.4333,3.4578,3.4835,3.5105,3.5245,3.5383,3.5475,3.5594,3.5756,3.5975,3.6019,3.6105,3.6301,3.6561,3.6725,3.6684,3.6015,3.5372,3.4723,3.3917,3.3247,3.2641,3.274,3.2838,3.2902,3.3023,3.3426,3.4231,3.4398,3.4857,3.562,3.5566,3.5652,3.5654,3.569,3.5914,3.604,3.6182,3.6615,3.7331,3.7397,3.7397,3.7588,3.8039,3.8364,3.8569,3.8865,3.9121,3.9175,4.0121,4.066,4.0801,4.1243,4.1499,4.1516,4.1516,4.12,4.0551,4.0305,3.9691,3.8462,3.8164,3.7782,3.7302,3.7214,3.7235,3.7297,3.7297,3.7297,3.7297,3.7203,3.7147,3.7108,3.7091,3.7464,3.81,3.7724,3.7836,3.8371,3.9394,4.0613,4.2056,4.2494,4.257,4.257,4.2526,4.2503,4.2468,4.2387,4.2328,4.2614,4.35,4.4624,4.4821,4.6034,4.6873,4.6998,4.6998,4.6998,4.6842,4.6684,4.6525,4.6381,4.6204,4.6023,4.5821,4.5528,4.5165,4.4595,4.4302,4.3371,4.2181,4.1992,4.1799,3.43,3.4594,3.4739,3.4947,3.5105,3.5245,3.5383,3.5508,3.5639,3.58,3.5975,3.6079,3.6251,3.6461,3.6602,3.6702,3.6696,3.6103,3.5653,3.5267,3.4162,3.3495,3.3367,3.2905,3.2755,3.2955,3.3419,3.416,3.4972,3.5141,3.5399,3.5698,3.5802,3.5833,3.589,3.5964,3.6309,3.6845,3.7026,3.7441,3.8157,3.8267,3.8218,3.8138,3.83,3.8605,3.9085,3.912,3.9535,4.0524,4.0762,4.1032,4.1527,4.1595,4.1604,4.1604,4.1604,4.1481,4.1183,4.0727,4.0253,3.9708,3.9147,3.8532,3.7923,3.7712,3.7576,3.7228,3.7105,3.7087,3.7087,3.7087,3.7069,3.7031,3.7048,3.7136,3.7408,3.74,3.7496,3.7962,3.8999,4.0521,4.1864,4.2427,4.2409,4.2409,4.2387,4.2387,4.2387,4.2346,4.2287,4.2519,4.3554,4.4607,4.4607,4.5963,4.698,4.698,4.6998,4.6998,4.6888,4.6731,4.659,4.6495,4.6301,4.6055,4.5922,4.5684,4.5217,4.4699,4.444,4.4061,4.2957,4.2785,4.2371,3.4497,3.4756,3.4899,3.5041,3.5198,3.5291,3.5446,3.5628,3.5745,3.5888,3.6079,3.6208,3.6335,3.6502,3.6684,3.6725,3.6713,3.6365,3.6057,3.5759,3.474,3.4198,3.4093,3.3632,3.345,3.3705,3.4169,3.4932,3.5765,3.5918,3.6143,3.6497,3.6548,3.6626,3.6703,3.6729,3.715,3.7717,3.7881,3.8157,3.8652,3.8707,3.8609,3.8478,3.8415,3.8605,3.9125,3.9319,3.9894,4.0863,4.1118,4.1396,4.1788,4.171,4.1604,4.1604,4.1604,4.1604,4.1552,4.1113,4.0744,4.0524,3.9989,3.9357,3.862,3.8251,3.7848,3.7426,3.7075,3.697,3.7009,3.7048,3.7031,3.7009,3.697,3.7009,3.7069,3.7164,3.7562,3.8262,3.9213,4.0574,4.1895,4.2216,4.2328,4.2287,4.2287,4.2287,4.2287,4.2287,4.2287,4.2394,4.3358,4.4214,4.4624,4.5695,4.673,4.6873,4.698,4.6998,4.6934,4.6795,4.6637,4.659,4.6398,4.6204,4.6005,4.577,4.5321,4.4802,4.4734,4.4561,4.3923,4.3544,4.3145,3.4804,3.4899,3.5041,3.5182,3.5291,3.5429,3.5611,3.5773,3.5834,3.5993,3.6208,3.6276,3.6402,3.6544,3.6748,3.6829,3.6851,3.6882,3.657,3.5934,3.5723,3.5396,3.4995,3.4854,3.4888,3.5114,3.5186,3.5684,3.6557,3.6696,3.7086,3.7819,3.7923,3.7965,3.831,3.8145,3.8368,3.8535,3.8579,3.8652,3.8707,3.8707,3.8627,3.8446,3.8415,3.8441,3.8452,3.9535,4.02,4.0468,4.1385,4.1849,4.1692,4.1604,4.1604,4.1604,4.1604,4.1604,4.1604,4.1552,4.1183,4.0744,4.0516,4.0147,3.9392,3.8743,3.8286,3.8058,3.7584,3.7128,3.711,3.7132,3.7097,3.697,3.697,3.7027,3.7009,3.7105,3.7768,3.9238,3.9889,4.0628,4.1787,4.2287,4.2287,4.2287,4.2287,4.2287,4.2287,4.2287,4.2287,4.2412,4.3108,4.3911,4.4589,4.5285,4.6105,4.6748,4.6908,4.6998,4.698,4.6842,4.6702,4.6607,4.6416,4.6221,4.6023,4.5821,4.5718,4.5338,4.5269,4.5113,4.4768,4.4369,4.3973,3.4994,3.5041,3.5198,3.5291,3.5429,3.5566,3.5622,3.5834,3.5993,3.6165,3.6276,3.6402,3.6527,3.6708,3.6869,3.697,3.7031,3.7126,3.6985,3.6605,3.6169,3.5892,3.5685,3.5315,3.5438,3.5953,3.6024,3.647,3.722,3.7451,3.77,3.7966,3.814,3.8241,3.8303,3.8368,3.8446,3.8578,3.8658,3.8707,3.8707,3.8707,3.8627,3.8478,3.8415,3.8605,3.9143,3.9896,4.0507,4.1009,4.1757,4.2037,4.178,4.1648,4.1604,4.1604,4.1604,4.1604,4.1604,4.1604,4.1516,4.1288,4.1236,4.0884,4.0253,3.9866,3.9445,3.9041,3.869,3.8409,3.79,3.776,3.7567,3.704,3.697,3.6987,3.7132,3.7602,3.8536,3.9597,4.0317,4.1163,4.1966,4.2287,4.2287,4.2287,4.2287,4.2287,4.2287,4.2287,4.2287,4.2358,4.3072,4.3786,4.4517,4.5285,4.607,4.6694,4.6972,4.6998,4.698,4.6934,4.6795,4.6607,4.6416,4.627,4.6073,4.5922,4.5838,4.5787,4.558,4.5459,4.5372,4.5077,4.4662,3.5182,3.5198,3.5337,3.5458,3.5566,3.5684,3.5817,3.5949,3.6165,3.6293,3.6385,3.6527,3.6708,3.6851,3.697,3.7087,3.7147,3.7259,3.722,3.7091,3.6685,3.6496,3.6555,3.6238,3.6257,3.6738,3.6827,3.7113,3.765,3.781,3.7916,3.7985,3.8106,3.8259,3.8307,3.8368,3.8446,3.851,3.8627,3.8707,3.8707,3.8707,3.864,3.8564,3.8739,3.9225,3.9924,4.0546,4.1032,4.142,4.1899,4.2019,4.1823,4.1692,4.1604,4.1604,4.1604,4.1604,4.1604,4.1604,4.1604,4.1604,4.1604,4.1411,4.092,4.0709,4.0217,3.9866,3.9445,3.9111,3.8673,3.8567,3.8322,3.7918,3.7303,3.7163,3.7396,3.8029,3.9,3.9949,4.0726,4.1448,4.2037,4.2287,4.2287,4.2287,4.2287,4.2287,4.2287,4.2287,4.2287,4.2465,4.3036,4.3768,4.4561,4.5346,4.6114,4.6632,4.7025,4.7043,4.6998,4.6934,4.6842,4.6637,4.6447,4.6301,4.6122,4.6023,4.5922,4.5871,4.5821,4.57,4.5562,4.5665,4.5354,3.5337,3.5337,3.5549,3.5622,3.5667,3.5888,3.6062,3.6208,3.6318,3.6402,3.6527,3.6708,3.6908,3.7009,3.7069,3.7203,3.7297,3.7334,3.7334,3.7334,3.7246,3.7248,3.7251,3.729,3.7345,3.7452,3.7487,3.7541,3.7613,3.7828,3.7917,3.7934,3.8106,3.8225,3.8307,3.8368,3.8415,3.8478,3.8609,3.8707,3.8707,3.8707,3.8713,3.8656,3.9232,3.9917,4.0741,4.1397,4.1666,4.1564,4.1925,4.203,4.1841,4.171,4.1604,4.1604,4.1604,4.1604,4.1604,4.1604,4.1604,4.156,4.1604,4.1604,4.1429,4.099,4.0656,4.0516,4.0007,3.955,3.9427,3.9375,3.9305,3.9129,3.8111,3.7707,3.8076,3.8523,3.9421,4.0435,4.1024,4.1431,4.2198,4.2287,4.2287,4.2287,4.2287,4.2287,4.2287,4.2287,4.2287,4.259,4.3036,4.381,4.4603,4.539,4.6159,4.6767,4.7106,4.7043,4.6998,4.6934,4.6888,4.6684,4.6495,4.635,4.6253,4.6154,4.6073,4.6023,4.5939,4.5838,4.5838,4.5889,4.5871,3.5549,3.5532,3.58,3.5888,3.5932,3.6131,3.6259,3.6318,3.6502,3.6626,3.6748,3.6869,3.7027,3.7087,3.7261,3.7337,3.7392,3.7466,3.7521,3.7521,3.7521,3.7503,3.754,3.7577,3.7577,3.7577,3.7613,3.7577,3.7631,3.7828,3.7917,3.7899,3.8106,3.8225,3.8241,3.8336,3.8433,3.8446,3.8609,3.8707,3.8744,3.8744,3.9001,3.952,3.9699,4.0422,4.1557,4.2213,4.2459,4.2304,4.2226,4.2139,4.1945,4.1841,4.1692,4.1604,4.1604,4.1604,4.1604,4.1604,4.156,4.1471,4.156,4.156,4.1471,4.1385,4.1306,4.1271,4.106,4.0727,4.0305,4.0165,3.9954,3.9392,3.8954,3.876,3.9048,3.9723,4.0394,4.0807,4.1487,4.2019,4.2198,4.2287,4.2287,4.2287,4.2287,4.2287,4.2287,4.2287,4.2287,4.2537,4.2983,4.3853,4.4664,4.5451,4.6185,4.6928,4.7151,4.7088,4.7025,4.6934,4.6842,4.6731,4.6637,4.6495,4.6381,4.6284,4.6253,4.6172,4.609,4.6023,4.609,4.614,4.609,3.5756,3.58,3.6002,3.6148,3.6148,3.6343,3.6461,3.6502,3.6708,3.6846,3.6908,3.7066,3.7164,3.7223,3.7354,3.7429,3.7503,3.7594,3.7577,3.7577,3.7577,3.7577,3.7577,3.7577,3.7577,3.7613,3.7649,3.7667,3.7685,3.7828,3.7916,3.7985,3.8106,3.8192,3.8207,3.8336,3.8401,3.8415,3.8596,3.8836,3.9166,3.9203,3.9643,4.029,4.0628,4.1369,4.2377,4.2776,4.2822,4.2591,4.2391,4.2205,4.2055,4.1884,4.178,4.1692,4.1648,4.1604,4.1604,4.1604,4.156,4.1515,4.1515,4.1515,4.1471,4.1515,4.1515,4.1569,4.1604,4.1376,4.1095,4.0955,4.0744,4.0446,4.027,4.0147,3.9891,4.0382,4.0925,4.1345,4.1861,4.2287,4.2287,4.2287,4.2287,4.2287,4.2287,4.2287,4.2287,4.2287,4.2323,4.2519,4.3221,4.4157,4.5011,4.5825,4.6478,4.7142,4.7223,4.716,4.7025,4.6934,4.6888,4.6824,4.6731,4.6637,4.6525,4.6429,4.6332,4.6301,4.627,4.6256,4.6274,4.6189,4.6189,3.6062,3.6062,3.6276,3.6343,3.6402,3.6626,3.6725,3.6766,3.6948,3.7009,3.7066,3.722,3.7317,3.7429,3.7429,3.7503,3.7594,3.7594,3.7577,3.7613,3.7613,3.7613,3.7613,3.7613,3.7613,3.7649,3.7703,3.7721,3.7846,3.8005,3.8164,3.8343,3.8448,3.85,3.8767,3.8755,3.8674,3.8903,3.914,3.9515,3.9937,4.0047,4.0432,4.1152,4.1891,4.2391,4.2923,4.3104,4.2955,4.2631,4.2432,4.2358,4.2192,4.2094,4.2088,4.2097,4.2044,4.1877,4.1727,4.1727,4.1604,4.156,4.1471,4.1471,4.1515,4.1471,4.1515,4.1604,4.1604,4.1552,4.1516,4.1552,4.1464,4.1323,4.1446,4.1305,4.0951,4.0884,4.1233,4.1979,4.2187,4.2287,4.2287,4.2287,4.2287,4.2287,4.2287,4.2287,4.2287,4.2287,4.2287,4.2341,4.331,4.461,4.543,4.6191,4.6816,4.7425,4.7294,4.7205,4.707,4.698,4.6934,4.6888,4.6842,4.6749,4.6637,4.6542,4.653,4.6398,4.635,4.634,4.6362,4.6274,4.6189,3.6276,3.6402,3.6561,3.6626,3.669,3.6869,3.6987,3.7044,3.7217,3.7362,3.7294,3.737,3.7463,3.75,3.7646,3.7577,3.7719,3.7756,3.7577,3.7613,3.7649,3.7685,3.7721,3.7793,3.7775,3.7864,3.7882,3.79,3.8043,3.8617,3.8922,3.9029,3.9533,4.0038,4.007,4.0011,4.0331,4.0416,4.0459,4.0561,4.0763,4.0891,4.1222,4.2011,4.2732,4.3156,4.325,4.3178,4.3012,4.2842,4.2739,4.2862,4.3036,4.301,4.3146,4.3253,4.2961,4.2642,4.2447,4.2026,4.1577,4.1541,4.155,4.1515,4.1471,4.1515,4.156,4.1604,4.1604,4.1604,4.1604,4.1604,4.1604,4.1604,4.1692,4.1727,4.1672,4.1662,4.1817,4.205,4.2228,4.2287,4.2287,4.2287,4.2287,4.2287,4.2287,4.2287,4.2287,4.2287,4.2394,4.2465,4.3584,4.4832,4.5563,4.6367,4.7126,4.7511,4.7381,4.7294,4.7205,4.707,4.7025,4.698,4.6952,4.6906,4.6795,4.6891,4.685,4.6648,4.6552,4.6751,4.6776,4.6534,4.6224,3.7627,3.7711,3.7871,3.7994,3.8076,3.8161,3.8241,3.8302,3.8415,3.8472,3.851,3.8552,3.8552,3.8607,3.8645,3.8701,3.8665,3.8758,3.8776,3.8831,3.8904,3.8959,3.896,3.8906,3.8852,3.86,3.8492,3.8671,3.9139,3.9517,3.9823,3.9823,4.0365,4.0525,4.0722,4.0862,4.0857,4.0906,4.1064,4.1258,4.1607,4.1699,4.2047,4.2708,4.3279,4.3593,4.3925,4.3871,4.3961,4.401,4.3945,4.371,4.3644,4.3822,4.4076,4.4139,4.3835,4.3525,4.324,4.2703,4.2139,4.2041,4.1761,4.1568,4.1471,4.1515,4.1515,4.1604,4.1604,4.1604,4.1604,4.1604,4.1604,4.1604,4.1736,4.1841,4.1945,4.2012,4.2097,4.2145,4.2246,4.2287,4.2287,4.2287,4.2287,4.2287,4.2287,4.2287,4.2287,4.2341,4.2662,4.3042,4.4056,4.5,4.5737,4.6506,4.7337,4.7572,4.7511,4.7425,4.7338,4.7249,4.7098,4.7088,4.7033,4.6998,4.6906,4.7037,4.7329,4.7323,4.7333,4.7378,4.7156,4.6755,4.6463,3.9118,3.9193,3.9294,3.9412,3.9552,3.9562,3.9532,3.9607,3.9757,3.9619,3.9797,3.9875,3.9626,3.9843,3.9789,3.9878,3.9899,3.9978,3.9854,3.991,3.9984,4.004,4.0095,4.0095,4.0077,3.9554,3.9481,3.9805,4.0203,4.0655,4.0762,4.0799,4.1016,4.1376,4.1265,4.1314,4.1565,4.1669,4.1721,4.1919,4.2378,4.2488,4.2837,4.3259,4.3699,4.4013,4.4455,4.4693,4.4985,4.5469,4.5497,4.4989,4.4492,4.446,4.4946,4.4867,4.4653,4.4392,4.4135,4.3399,4.2756,4.2763,4.1971,4.1568,4.156,4.1515,4.1515,4.156,4.1604,4.1604,4.1604,4.1604,4.1604,4.1648,4.1736,4.1884,4.1987,4.2079,4.2205,4.2246,4.2287,4.2287,4.2287,4.2287,4.2287,4.2287,4.2287,4.2305,4.2323,4.2537,4.2912,4.3525,4.4503,4.5684,4.6477,4.6735,4.7567,4.7657,4.7572,4.7547,4.7486,4.7381,4.7249,4.7187,4.7132,4.7204,4.7461,4.7832,4.8034,4.8075,4.7921,4.7736,4.7373,4.6941,4.6702,3.9453,3.954,3.9522,3.9638,3.9753,3.9793,3.9904,3.9836,4.0018,3.9893,3.9946,3.9911,4.0039,3.9985,3.9932,3.9988,4.03,4.0486,4.047,4.0489,4.0563,4.0637,4.0727,4.089,4.098,4.1143,4.0888,4.0689,4.0907,4.1304,4.1685,4.1903,4.234,4.2649,4.272,4.2973,4.2823,4.2748,4.28,4.2983,4.3094,4.3185,4.3296,4.3644,4.4103,4.4545,4.4875,4.5315,4.5663,4.577,4.6218,4.6259,4.5983,4.5839,4.6006,4.6159,4.5774,4.5372,4.5138,4.3905,4.3172,4.2775,4.2193,4.163,4.1622,4.156,4.156,4.156,4.1604,4.1604,4.1604,4.1604,4.1648,4.1754,4.1884,4.197,4.2079,4.2163,4.2246,4.2287,4.2287,4.2287,4.2287,4.2287,4.2287,4.2287,4.2287,4.243,4.2555,4.2912,4.3358,4.4103,4.4957,4.6176,4.7325,4.7362,4.7699,4.7699,4.7675,4.7723,4.7644,4.7529,4.7435,4.7734,4.7813,4.7893,4.824,4.8621,4.8574,4.8455,4.8247,4.7956,4.7576,4.7227,4.6989,4.0855,4.0884,4.0866,4.0966,4.1065,4.1083,4.1105,4.1127,4.1145,4.1185,4.1243,4.1243,4.1264,4.1303,4.1286,4.1343,4.1384,4.1515,4.1609,4.1609,4.1722,4.1796,4.176,4.1923,4.2195,4.2395,4.2194,4.1993,4.2013,4.2377,4.2558,4.2686,4.3105,4.334,4.3376,4.3373,4.3481,4.3479,4.3479,4.3497,4.3497,4.3516,4.3663,4.4158,4.4562,4.5112,4.592,4.6214,4.667,4.7016,4.7323,4.7328,4.7202,4.703,4.6924,4.6972,4.6641,4.6308,4.6028,4.4979,4.4216,4.3543,4.2793,4.207,4.1727,4.1604,4.1604,4.1604,4.1604,4.1604,4.1604,4.1648,4.1736,4.1823,4.197,4.2037,4.2121,4.2228,4.2269,4.2328,4.2287,4.2287,4.2287,4.2287,4.2287,4.2287,4.2287,4.2501,4.2769,4.3251,4.3768,4.4993,4.5857,4.656,4.7548,4.7603,4.7699,4.7699,4.788,4.7928,4.8085,4.8157,4.8449,4.883,4.882,4.8747,4.8851,4.9097,4.899,4.8782,4.8413,4.8052,4.7791,4.75,4.7204,4.2097,4.2145,4.2145,4.2205,4.2346,4.2328,4.231,4.2369,4.2315,4.2338,4.2503,4.2472,4.2458,4.2555,4.2555,4.2613,4.2649,4.2711,4.2734,4.2736,4.2848,4.3014,4.3105,4.3196,4.3159,4.3121,4.3193,4.3358,4.3067,4.314,4.3232,4.3231,4.3375,4.3411,4.3446,4.3463,4.3479,4.3479,4.3479,4.3534,4.3699,4.3773,4.4011,4.4745,4.5002,4.581,4.6471,4.7131,4.7552,4.7897,4.8096,4.8072,4.7966,4.7819,4.7633,4.7312,4.7178,4.7025,4.6674,4.5968,4.506,4.4509,4.3721,4.2873,4.2115,4.1868,4.1648,4.1604,4.1604,4.1604,4.1648,4.1754,4.1823,4.1892,4.2019,4.2145,4.2246,4.2287,4.2369,4.2387,4.2346,4.2328,4.2328,4.2287,4.2287,4.2287,4.2287,4.2733,4.3054,4.365,4.4407,4.585,4.6769,4.7168,4.7639,4.7681,4.7699,4.7699,4.8061,4.8308,4.8634,4.8924,4.9368,4.9767,4.9676,4.9575,4.9625,4.9478,4.9305,4.9037,4.8561,4.8086,4.7582,4.7287,4.7026,4.2246,4.2287,4.2287,4.2346,4.2445,4.2463,4.2508,4.257,4.257,4.2566,4.2584,4.2588,4.2613,4.2673,4.2747,4.2783,4.2822,4.2936,4.3067,4.3049,4.316,4.3214,4.3214,4.3323,4.3393,4.3463,4.3532,4.3532,4.3479,4.3444,4.3497,4.3532,4.3497,4.3497,4.3497,4.3497,4.3479,4.3479,4.3479,4.3791,4.4323,4.4433,4.4599,4.5076,4.5902,4.6581,4.6654,4.7425,4.8121,4.8194,4.8226,4.8187,4.8108,4.7966,4.7819,4.7615,4.7425,4.7232,4.7008,4.6418,4.5766,4.5275,4.4617,4.3811,4.3015,4.2264,4.1859,4.1604,4.1604,4.1692,4.1754,4.178,4.1909,4.2037,4.2163,4.2328,4.2387,4.2409,4.245,4.2468,4.2427,4.2369,4.2369,4.2328,4.2287,4.2287,4.2412,4.2894,4.3578,4.436,4.509,4.6475,4.7144,4.7524,4.7657,4.7699,4.788,4.7826,4.8242,4.8768,4.9383,4.9854,5.0343,5.0615,5.0525,5.0181,4.9865,4.9683,4.9607,4.9048,4.8304,4.7722,4.7212,4.6987,4.6888,4.257,4.2486,4.2468,4.2508,4.2548,4.2548,4.2588,4.2609,4.2609,4.2627,4.2703,4.2765,4.2844,4.2902,4.3013,4.3049,4.3031,4.3105,4.3142,4.3178,4.3269,4.3322,4.3375,4.3463,4.3566,4.3652,4.3701,4.3753,4.3701,4.3667,4.3667,4.3667,4.36,4.3548,4.3548,4.3532,4.3479,4.3479,4.3532,4.3713,4.4118,4.4593,4.5088,4.5478,4.6636,4.7058,4.7388,4.7774,4.8306,4.8306,4.8247,4.8226,4.8187,4.8126,4.8024,4.7819,4.7717,4.7529,4.724,4.6829,4.6373,4.5847,4.5312,4.4769,4.3873,4.3041,4.252,4.2476,4.207,4.1929,4.1955,4.1952,4.2079,4.2222,4.2453,4.2445,4.2566,4.2548,4.257,4.2548,4.2562,4.2575,4.2624,4.2655,4.2673,4.256,4.2959,4.3584,4.4545,4.5677,4.6392,4.7144,4.7482,4.7657,4.7657,4.7717,4.817,4.8297,4.8586,4.922,5.018,5.0778,5.1158,5.1556,5.1692,5.113,5.0254,4.9766,4.9557,4.8783,4.7921,4.7482,4.7097,4.7033,4.6934,4.2862,4.2745,4.2688,4.2688,4.2745,4.2727,4.2727,4.2765,4.2765,4.2804,4.2917,4.2956,4.3069,4.316,4.3178,4.3178,4.3214,4.3251,4.3268,4.3322,4.3393,4.3497,4.3566,4.3634,4.3719,4.3837,4.3818,4.3851,4.3865,4.3865,4.3851,4.3818,4.3719,4.3667,4.3634,4.36,4.36,4.3618,4.391,4.4183,4.4533,4.5303,4.5877,4.6504,4.715,4.7758,4.8015,4.8307,4.8363,4.8306,4.8306,4.8286,4.8208,4.8187,4.8126,4.7966,4.7884,4.7759,4.7529,4.7281,4.6934,4.6426,4.5864,4.5401,4.4805,4.3953,4.3386,4.3404,4.3067,4.2749,4.2676,4.2797,4.281,4.2882,4.2844,4.2803,4.2757,4.2868,4.285,4.2775,4.2843,4.3055,4.3086,4.3112,4.3054,4.291,4.3394,4.4181,4.5311,4.6596,4.7053,4.7554,4.7597,4.7693,4.779,4.7898,4.8333,4.8858,4.9148,4.9709,5.0687,5.1357,5.1792,5.219,5.2462,5.1574,5.0362,4.9902,4.9415,4.847,4.7626,4.7375,4.7133,4.7097,4.7069,4.3178,4.3141,4.2976,4.2938,4.3067,4.3067,4.3086,4.3105,4.3142,4.3142,4.3178,4.3214,4.3213,4.3232,4.3286,4.3251,4.3232,4.3375,4.3444,4.3513,4.3634,4.3719,4.3753,4.3786,4.3818,4.3883,4.3915,4.3929,4.3992,4.3961,4.3929,4.3915,4.3818,4.3804,4.3826,4.39,4.3904,4.407,4.4509,4.5226,4.5817,4.6535,4.7089,4.735,4.7941,4.82,4.7482,4.8089,4.8419,4.8324,4.8306,4.8324,4.8286,4.8247,4.8187,4.8126,4.8006,4.7884,4.7783,4.7597,4.7389,4.6988,4.6542,4.606,4.5713,4.4929,4.4449,4.4236,4.3979,4.3979,4.4138,4.4349,4.3924,4.3799,4.3688,4.3606,4.3487,4.3312,4.3276,4.3054,4.3249,4.366,4.3998,4.4173,4.3948,4.3763,4.4366,4.5138,4.5924,4.6988,4.7301,4.7615,4.7657,4.7753,4.788,4.8206,4.8786,4.951,5.0035,5.0542,5.1249,5.1792,5.2226,5.2335,5.2408,5.143,5.0687,5.038,4.9694,4.8207,4.7453,4.7635,4.7698,4.7778,4.7607,4.3582,4.356,4.3479,4.3322,4.3142,4.316,4.3178,4.3196,4.325,4.3321,4.3444,4.3437,4.349,4.3548,4.3584,4.3584,4.3584,4.3652,4.3704,4.3686,4.3753,4.3837,4.3837,4.3939,4.3897,4.3961,4.3942,4.3974,4.4005,4.4005,4.3974,4.3942,4.3971,4.3883,4.3925,4.4336,4.4506,4.4779,4.5312,4.5996,4.6308,4.7083,4.7546,4.7603,4.8307,4.8494,4.8218,4.8366,4.842,4.8437,4.8399,4.8453,4.8489,4.8433,4.8412,4.8391,4.8251,4.8192,4.8038,4.7795,4.7554,4.7371,4.7032,4.6747,4.6613,4.5978,4.5533,4.5293,4.5007,4.49,4.4703,4.4796,4.4683,4.4646,4.4584,4.4484,4.427,4.4077,4.4041,4.3999,4.4285,4.466,4.5021,4.5305,4.5029,4.4749,4.5402,4.6062,4.6735,4.7247,4.756,4.7838,4.7916,4.8261,4.8424,4.8822,4.9293,5.0053,5.085,5.1321,5.1756,5.2063,5.2408,5.248,5.2408,5.1737,5.123,5.0914,4.9965,4.8529,4.8189,4.8433,4.8443,4.8414,4.8297,4.3781,4.3777,4.38,4.3634,4.3393,4.3411,4.3393,4.3393,4.3426,4.3513,4.3682,4.3656,4.3726,4.3786,4.3804,4.3771,4.3771,4.3822,4.4003,4.4132,4.4295,4.4253,4.4318,4.4281,4.4294,4.4135,4.4005,4.4005,4.4005,4.4005,4.4228,4.4345,4.435,4.4355,4.4541,4.5045,4.5423,4.5642,4.6212,4.6691,4.6891,4.7593,4.8076,4.8062,4.8581,4.8713,4.8733,4.8864,4.9011,4.9047,4.9062,4.9134,4.9095,4.904,4.9001,4.8962,4.8882,4.8824,4.8689,4.8065,4.7753,4.7536,4.7432,4.7309,4.7219,4.6816,4.6442,4.6344,4.5939,4.5605,4.5484,4.5821,4.5708,4.5647,4.5567,4.5427,4.5088,4.4856,4.4947,4.4997,4.5341,4.5608,4.5879,4.6223,4.629,4.6086,4.6392,4.685,4.7163,4.756,4.7784,4.8061,4.8242,4.8659,4.9112,4.9709,5.0253,5.0615,5.1339,5.181,5.2226,5.2444,5.2498,5.2498,5.2335,5.2063,5.1665,5.1194,5.01,4.8808,4.8883,4.9199,4.919,4.9144,4.9241,4.3809,4.3777,4.3818,4.3786,4.3786,4.3753,4.3753,4.3719,4.3753,4.3786,4.3818,4.3832,4.3851,4.3855,4.3994,4.4087,4.4142,4.4156,4.4485,4.5055,4.5013,4.5157,4.5101,4.4971,4.4469,4.4116,4.4023,4.4042,4.4135,4.4228,4.4562,4.5157,4.5379,4.5329,4.5379,4.6085,4.6457,4.6587,4.7293,4.7556,4.7797,4.837,4.8614,4.8911,4.8985,4.908,4.9361,4.9695,4.9843,4.9804,5.017,5.0352,5.0365,5.038,5.0362,5.0266,5.0281,5.0273,5.0291,4.879,4.8097,4.7844,4.7795,4.7529,4.7468,4.7317,4.714,4.6978,4.7003,4.7057,4.7183,4.7191,4.6789,4.6579,4.6458,4.6354,4.6033,4.5852,4.5979,4.6051,4.6269,4.654,4.6776,4.7047,4.7373,4.7458,4.7609,4.7717,4.7693,4.7946,4.8206,4.8442,4.8695,4.9365,4.9927,5.0651,5.1176,5.1484,5.1774,5.2172,5.2371,5.2462,5.2498,5.2498,5.2389,5.2226,5.1792,5.1321,5.0624,5.0118,4.9856,4.9974,4.9902,5.0018,5.0261,4.4147,4.4128,4.4135,4.4135,4.4123,4.3947,4.3883,4.3865,4.3961,4.4055,4.4116,4.4135,4.4135,4.4265,4.4699,4.4904,4.501,4.5655,4.6065,4.6047,4.5743,4.5432,4.5307,4.4997,4.4476,4.4098,4.4042,4.4488,4.4896,4.4841,4.5342,4.5955,4.6513,4.655,4.6457,4.6847,4.7293,4.7441,4.8017,4.85,4.8537,4.8816,4.9187,4.9652,4.9707,4.9895,5.0286,5.0657,5.0731,5.0693,5.1097,5.1072,5.1032,5.0993,5.0637,5.0251,4.9973,4.9621,4.9398,4.8656,4.8844,4.8538,4.8218,4.7898,4.7693,4.7615,4.7493,4.754,4.771,4.7692,4.7414,4.7518,4.7325,4.7349,4.7301,4.7265,4.7083,4.7065,4.7102,4.7138,4.7301,4.7283,4.7428,4.7772,4.8116,4.8116,4.8152,4.7916,4.782,4.8308,4.8713,4.8967,4.9293,5.0035,5.0723,5.1285,5.1719,5.1973,5.2136,5.2335,5.248,5.2498,5.2498,5.2498,5.2462,5.2389,5.2082,5.1864,5.1937,5.1719,5.1167,5.1013,5.1212,5.1401,5.1597,4.4314,4.4333,4.4632,4.4696,4.4666,4.4513,4.4581,4.4835,4.4948,4.5058,4.5144,4.5144,4.5163,4.5331,4.5611,4.591,4.5947,4.6377,4.7012,4.6968,4.6302,4.6016,4.5687,4.5264,4.5053,4.4668,4.4804,4.5249,4.5677,4.5714,4.6178,4.6921,4.7701,4.7738,4.7664,4.7906,4.811,4.824,4.863,4.9002,4.9187,4.9485,4.9782,5.032,5.0618,5.0803,5.125,5.1528,5.1658,5.162,5.1728,5.1759,5.1701,5.1345,5.1048,5.0606,5.005,4.979,4.9585,4.9218,4.9299,4.914,4.8803,4.8738,4.8635,4.8756,4.8677,4.8598,4.846,4.8417,4.8374,4.8424,4.8387,4.8405,4.8188,4.817,4.8025,4.7989,4.7699,4.779,4.7862,4.7898,4.8152,4.8496,4.8858,4.8731,4.8605,4.8387,4.8261,4.8822,4.942,4.9727,5.0053,5.0741,5.1303,5.1737,5.2118,5.2444,5.2498,5.2498,5.2498,5.2498,5.2498,5.2498,5.248,5.2462,5.248,5.2408,5.2317,5.2208,5.1991,5.2063,5.2462,5.2452,5.2358,4.4344,4.4456,4.5212,4.5567,4.5536,4.5611,4.6003,4.6632,4.6632,4.6613,4.6632,4.6551,4.6457,4.6576,4.6707,4.6744,4.6887,4.6962,4.7486,4.7623,4.7155,4.6869,4.6619,4.64,4.5847,4.5727,4.5844,4.6085,4.6494,4.6773,4.7181,4.7738,4.8537,4.8723,4.8816,4.902,4.9057,4.9094,4.9317,4.9745,5.006,5.0172,5.0636,5.1138,5.1454,5.1584,5.1955,5.2252,5.2456,5.2715,5.3063,5.3302,5.313,5.257,5.2254,5.1698,5.0879,5.0362,5.0028,4.9515,4.9588,4.9446,4.9935,5.0138,4.9944,4.9574,4.9477,4.9597,4.9615,4.9815,4.9898,4.9844,4.9789,4.9535,4.9184,4.9021,4.884,4.8586,4.8188,4.8116,4.817,4.8351,4.8912,4.9293,4.9401,4.9546,4.9492,4.9601,4.9528,4.9709,5.0271,5.0741,5.1086,5.152,5.19,5.2009,5.2009,5.2136,5.2444,5.2498,5.2498,5.2498,5.2498,5.2498,5.2498,5.2498,5.2498,5.2498,5.2462,5.2389,5.2299,5.2335,5.2498,5.2498,5.2452,4.5265,4.5377,4.6202,4.6548,4.6671,4.7177,4.7271,4.6952,4.6915,4.6915,4.6934,4.6934,4.7054,4.6952,4.7477,4.7721,4.8002,4.8359,4.8771,4.8628,4.7966,4.7716,4.7372,4.6973,4.6499,4.6359,4.6475,4.6958,4.7423,4.7794,4.8184,4.8649,4.9408,4.9652,4.9968,5.0358,5.0172,5.006,5.0283,5.0636,5.0915,5.1008,5.1546,5.2011,5.2252,5.2438,5.2921,5.3162,5.331,5.3477,5.3567,5.3471,5.2693,5.2317,5.1964,5.0391,4.9577,4.8985,4.9077,4.937,4.9517,4.957,5.0116,5.0031,4.9839,4.9737,4.9913,5.0253,5.058,5.0707,5.07,5.0682,5.0548,5.0232,4.9862,4.9572,4.9311,4.8949,4.8586,4.8586,4.8623,4.8949,4.951,4.9709,4.9836,5.0144,5.0343,5.0397,5.0524,5.0597,5.0778,5.1212,5.1321,5.152,5.1756,5.1882,5.1828,5.1846,5.2208,5.248,5.2498,5.2498,5.2498,5.2498,5.2498,5.2498,5.2498,5.2498,5.2516,5.2516,5.2444,5.2462,5.2498,5.2534,5.2516,4.6223,4.6336,4.7124,4.7669,4.8044,4.8514,4.842,4.8025,4.7988,4.7988,4.8007,4.8025,4.8007,4.8119,4.8514,4.872,4.8776,4.8996,4.9296,4.9059,4.8559,4.8071,4.7639,4.742,4.7117,4.7066,4.7363,4.7936,4.8401,4.903,4.9496,4.9586,5.0296,5.0613,5.0964,5.143,5.1636,5.1377,5.1341,5.1584,5.1769,5.1899,5.2382,5.2865,5.3032,5.3367,5.3701,5.3794,5.3794,5.3701,5.3587,5.3048,5.227,5.1842,5.0858,4.9453,4.8935,4.8565,4.8563,4.8802,4.9003,4.9224,4.9627,4.9566,4.9925,5.0099,5.0495,5.0909,5.1201,5.142,5.1358,5.126,5.1053,5.0828,5.0421,4.9989,4.9644,4.9257,4.913,4.9112,4.9275,4.9546,4.9836,4.9999,5.0108,5.0162,5.0234,5.0307,5.056,5.0832,5.0977,5.1267,5.1212,5.1212,5.1484,5.1774,5.1828,5.1919,5.2263,5.248,5.248,5.2498,5.2498,5.2498,5.2498,5.2534,5.2625,5.2552,5.2534,5.2625,5.2733,5.2715,5.2715,5.2661,5.2625,4.7105,4.7162,4.7969,4.8701,4.9434,4.9434,4.9415,4.9509,4.934,4.9452,4.9377,4.9434,4.9302,4.9133,4.9283,4.9321,4.9302,4.9371,4.939,4.9289,4.8715,4.8263,4.8175,4.7909,4.7909,4.8174,4.8472,4.8785,4.934,4.9971,5.049,5.0542,5.1327,5.1703,5.1852,5.2543,5.2768,5.2658,5.2306,5.227,5.2568,5.2791,5.3014,5.359,5.372,5.3794,5.3794,5.3794,5.3757,5.3478,5.3144,5.2679,5.1751,5.1028,4.9751,4.9325,4.9047,4.9064,4.8969,4.9095,4.893,4.8838,4.8563,4.915,4.9786,5.0167,5.0547,5.1219,5.1548,5.1712,5.1688,5.1408,5.1164,5.0842,5.0446,5.005,4.9717,4.9401,4.9257,4.9329,4.9601,4.9836,4.9782,4.9927,5.009,5.0108,5.0144,5.0234,5.0506,5.0886,5.1067,5.123,5.1212,5.1176,5.1357,5.1647,5.1846,5.2045,5.2317,5.2462,5.248,5.2498,5.2498,5.257,5.2661,5.2733,5.2788,5.2969,5.3186,5.3186,5.3222,5.3059,5.2969,5.286,5.2661,4.7913,4.7988,4.8833,4.9321,4.9471,4.9509,4.9509,4.9509,4.9509,4.9509,4.9509,4.949,4.9509,4.9509,4.9509,4.9509,4.949,4.944,4.944,4.939,4.899,4.8795,4.8856,4.8698,4.881,4.8903,4.9164,4.965,5.0206,5.0893,5.1435,5.1491,5.2202,5.2632,5.2688,5.3398,5.3643,5.3569,5.3439,5.3181,5.3349,5.3478,5.3683,5.3794,5.3794,5.3795,5.3776,5.3738,5.3385,5.2958,5.2772,5.1955,5.0729,5.0286,4.9954,4.9769,4.999,5.0043,5.0021,4.9905,4.9884,5.0031,5.0013,4.9829,4.9903,5.0086,5.0486,5.1234,5.1747,5.1875,5.1852,5.1499,5.1104,5.0763,5.038,5.0039,4.9717,4.9492,4.9311,4.9474,4.9764,4.9818,4.9727,4.9818,5.0035,5.009,5.0108,5.0198,5.047,5.0778,5.0904,5.1067,5.1212,5.1249,5.1375,5.1556,5.1792,5.1991,5.2208,5.2353,5.2534,5.2824,5.3078,5.2896,5.2878,5.3186,5.3603,5.4074,5.42,5.4074,5.3784,5.3657,5.3259,5.3059,5.2752,4.8859,4.8953,4.9386,4.9593,4.9612,4.9563,4.9612,4.9612,4.9593,4.9612,4.9582,4.9521,4.949,4.949,4.9509,4.9509,4.949,4.9409,4.939,4.9358,4.9327,4.9225,4.9262,4.9286,4.9496,4.9608,5.0235,5.0773,5.1147,5.1874,5.2379,5.2492,5.311,5.3559,5.3615,5.4027,5.4217,5.4181,5.42,5.411,5.3963,5.3907,5.3944,5.3926,5.387,5.3758,5.3423,5.3349,5.2902,5.2345,5.2066,5.1435,5.0673,5.0563,5.0583,5.062,5.0749,5.1005,5.0982,5.0977,5.0952,5.1044,5.0857,5.0398,5.0343,5.0472,5.0178,5.0817,5.111,5.1257,5.1293,5.1051,5.0529,5.0117,4.9755,4.9434,4.9143,4.8931,4.8677,4.8514,4.8912,4.9347,4.9293,4.9293,4.9564,5.009,5.009,5.0144,5.0416,5.0796,5.0886,5.1031,5.1267,5.1285,5.1321,5.152,5.1756,5.1955,5.2281,5.2661,5.3078,5.3458,5.3675,5.3657,5.3766,5.4074,5.4508,5.4888,5.5106,5.5033,5.4653,5.4273,5.3838,5.3512,5.3494,4.9655,4.9711,4.9711,4.9711,4.9711,4.9711,4.9711,4.9711,4.9711,4.9711,4.9682,4.9582,4.9521,4.9521,4.9509,4.9509,4.949,4.944,4.934,4.9358,4.9295,4.9501,4.9575,4.9524,5.0011,5.0736,5.1424,5.1753,5.2067,5.2817,5.3343,5.3508,5.3883,5.439,5.4409,5.4409,5.434,5.4324,5.4289,5.4217,5.4181,5.4091,5.4091,5.4072,5.3923,5.3568,5.312,5.2636,5.2246,5.1968,5.1618,5.1191,5.1044,5.1137,5.138,5.1528,5.1732,5.171,5.1558,5.1572,5.1529,5.143,5.1169,5.1114,5.1151,5.093,5.0637,5.0508,5.0802,5.0912,5.0967,5.0747,5.0226,4.987,4.951,4.9222,4.8986,4.8768,4.8496,4.8188,4.8586,4.913,4.9184,4.9148,4.9438,4.9945,5.0162,5.0198,5.0361,5.0796,5.1086,5.1303,5.1538,5.1502,5.1502,5.1719,5.2063,5.2516,5.2915,5.3259,5.3621,5.4019,5.4381,5.4635,5.4798,5.4979,5.516,5.545,5.5649,5.5812,5.5432,5.4979,5.4707,5.4472,5.4599,4.9702,4.9711,4.9711,4.9711,4.9711,4.9711,4.9711,4.9711,4.9711,4.9711,4.9711,4.9711,4.9653,4.9612,4.9521,4.9509,4.9539,4.9527,4.9509,4.9459,4.974,5.0003,5.0322,5.0603,5.0979,5.1673,5.2423,5.2869,5.3048,5.371,5.4146,5.418,5.4198,5.4409,5.4409,5.4409,5.439,5.4375,5.4375,5.4321,5.4287,5.4233,5.4127,5.3885,5.3456,5.3157,5.2783,5.2204,5.1852,5.1647,5.1665,5.1502,5.1653,5.1971,5.2326,5.2623,5.2864,5.3084,5.3003,5.2961,5.3027,5.335,5.3162,5.2747,5.2619,5.2234,5.1848,5.1279,5.1426,5.1426,5.1389,5.0949,5.0505,5.0323,5.0034,4.995,4.9785,4.968,4.951,4.942,4.9546,4.9818,4.9908,4.9908,4.9981,5.0361,5.0452,5.0542,5.1049,5.1212,5.143,5.1719,5.2045,5.2136,5.2299,5.2317,5.2607,5.3096,5.3621,5.4074,5.4418,5.4635,5.4961,5.5395,5.5613,5.5776,5.5957,5.6084,5.6156,5.6247,5.6029,5.5703,5.5486,5.5377,5.5468]},{"header":{"parameterUnit":"m.s-1","parameterCategory":1,"la1":31.0,"la2":29.5877,"lo1":-88.7671,"lo2":-86.6584,"dy":0.0162,"dx":0.0185,"nx":115,"ny":88,"refTime":"2024-02-13T06:00:00:Z","depth":0,"parameterNumber":3,"parameterNumberName":"V-component_of_WINDS"},"data":[0.0,0.0,0.0,0.0,0.0,0.0,0.0,0.0,0.0,0.0,0.0,0.0,0.0,0.0,0.0,0.0,0.0,0.0,0.0,0.0,0.0,0.0,0.0,0.0,0.0,0.0,0.0,0.0,0.0,0.0,0.0,0.0,0.0,0.0,0.0,0.0,0.0,0.0,0.0,0.0,0.0,0.0,0.0,0.0,0.0,0.0,0.0,0.0,0.0,0.0,0.0,0.0,0.0,0.0,0.0,0.0,0.0,0.0,0.0,0.0,0.0,0.0,0.0,0.0,0.0,0.0,0.0,0.0,0.0,0.0,0.0,0.0,0.0,0.0,0.0,0.0,0.0,0.0,0.0,0.0,0.0,0.0,0.0,0.0,0.0,0.0,0.0,0.0,0.0,0.0,0.0,0.0,0.0,0.0,0.0,0.0,0.0,0.0,0.0,0.0,0.0,0.0,0.0,0.0,0.0,0.0,0.0,0.0,0.0,0.0,0.0,0.0,0.0,0.0,0.0,0.0,0.0,0.0,0.0,0.0,0.0,0.0,0.0,0.0,0.0,0.0,0.0,0.0,0.0,0.0,0.0,0.0,0.0,0.0,0.0,0.0,0.0,0.0,0.0,0.0,0.0,0.0,0.0,0.0,0.0,0.0,0.0,0.0,0.0,0.0,0.0,0.0,0.0,0.0,0.0,0.0,0.0,0.0,0.0,0.0,0.0,0.0,0.0,0.0,0.0,0.0,0.0,0.0,0.0,0.0,0.0,0.0,0.0,0.0,0.0,0.0,0.0,0.0,0.0,0.0,0.0,0.0,0.0,0.0,0.0,0.0,0.0,0.0,0.0,0.0,0.0,0.0,0.0,0.0,0.0,0.0,0.0,0.0,0.0,0.0,0.0,0.0,0.0,0.0,0.0,0.0,0.0,0.0,0.0,0.0,0.0,0.0,0.0,0.0,0.0,0.0,0.0,0.0,0.0,0.0,0.0,0.0,0.0,0.0,0.0,0.0,0.0,0.0,0.0,0.0,0.0,0.0,0.0,0.0,0.0,0.0,0.0,0.0,0.0,0.0,0.0,0.0,0.0,0.0,0.0,0.0,0.0,0.0,0.0,0.0,0.0,0.0,0.0,0.0,0.0,0.0,0.0,0.0,0.0,0.0,0.0,0.0,0.0,0.0,0.0,0.0,0.0,0.0,0.0,0.0,0.0,0.0,0.0,0.0,0.0,0.0,0.0,0.0,0.0,0.0,0.0,0.0,0.0,0.0,0.0,0.0,0.0,0.0,0.0,0.0,0.0,0.0,0.0,0.0,0.0,0.0,0.0,0.0,0.0,0.0,0.0,0.0,0.0,0.0,0.0,0.0,0.0,0.0,0.0,0.0,0.0,0.0,0.0,0.0,0.0,0.0,0.0,0.0,0.0,0.0,0.0,0.0,0.0,0.0,0.0,0.0,0.0,0.0,0.0,0.0,0.0,0.0,0.0,0.0,0.0,0.0,0.0,0.0,0.0,0.0,0.0,0.0,0.0,0.0,0.0,0.0,0.0,0.0,0.0,0.0,0.0,0.0,0.0,0.0,0.0,0.0,0.0,0.0,0.0,0.0,0.0,0.0,0.0,0.0,0.0,0.0,0.0,0.0,0.0,0.0,0.0,0.0,0.0,0.0,0.0,0.0,0.0,0.0,0.0,0.0,0.0,0.0,0.0,0.0,0.0,0.0,0.0,0.0,0.0,0.0,0.0,0.0,0.0,0.0,0.0,0.0,0.0,0.0,0.0,0.0,0.0,0.0,0.0,0.0,0.0,0.0,0.0,0.0,0.0,0.0,0.0,0.0,0.0,0.0,0.0,0.0,0.0,0.0,0.0,0.0,0.0,0.0,0.0,0.0,0.0,0.0,0.0,0.0,0.0,0.0,0.0,0.0,0.0,0.0,0.0,0.0,0.0,0.0,0.0,0.0,0.0,0.0,0.0,0.0,0.0,0.0,0.0,0.0,0.0,0.0,0.0,0.0,0.0,0.0,0.0,0.0,0.0,0.0,0.0,0.0,0.0,0.0,0.0,0.0,0.0,0.0,0.0,0.0,0.0,0.0,0.0,0.0,0.0,0.0,0.0,0.0,0.0,0.0,0.0,0.0,0.0,0.0,0.0,0.0,0.0,0.0,0.0,0.0,0.0,0.0,0.0,0.0,0.0,0.0,0.0,0.0,0.0,0.0,0.0,0.0,0.0,0.0,0.0,0.0,0.0,0.0,0.0,0.0,0.0,0.0,0.0,0.0,0.0,0.0,0.0,0.0,0.0,0.0,0.0,0.0,0.0,0.0,0.0,0.0,0.0,0.0,0.0,0.0,0.0,0.0,0.0,0.0,0.0,0.0,0.0,0.0,0.0,0.0,0.0,0.0,0.0,0.0,0.0,0.0,0.0,0.0,0.0,0.0,0.0,0.0,0.0,0.0,0.0,0.0,0.0,0.0,0.0,0.0,0.0,0.0,0.0,0.0,0.0,0.0,0.0,0.0,0.0,0.0,0.0,0.0,0.0,0.0,0.0,0.0,0.0,0.0,0.0,0.0,0.0,0.0,0.0,0.0,0.0,0.0,0.0,0.0,0.0,0.0,0.0,0.0,0.0,0.0,0.0,0.0,0.0,0.0,0.0,0.0,0.0,0.0,0.0,0.0,0.0,0.0,0.0,0.0,0.0,0.0,0.0,0.0,0.0,0.0,0.0,0.0,0.0,0.0,0.0,0.0,0.0,0.0,0.0,0.0,0.0,0.0,0.0,0.0,0.0,0.0,0.0,0.0,0.0,0.0,0.0,0.0,0.0,0.0,0.0,0.0,0.0,0.0,0.0,0.0,0.0,0.0,0.0,0.0,0.0,0.0,0.0,0.0,0.0,0.0,0.0,0.0,0.0,0.0,0.0,0.0,0.0,0.0,0.0,0.0,0.0,0.0,0.0,0.0,0.0,0.0,0.0,0.0,0.0,0.0,0.0,0.0,0.0,0.0,0.0,0.0,0.0,0.0,0.0,0.0,0.0,0.0,0.0,0.0,0.0,0.0,0.0,0.0,0.0,0.0,0.0,0.0,0.0,0.0,0.0,0.0,0.0,0.0,0.0,0.0,0.0,0.0,0.0,0.0,0.0,0.0,0.0,0.0,0.0,0.0,0.0,0.0,0.0,0.0,0.0,0.0,0.0,0.0,0.0,0.0,0.0,0.0,0.0,0.0,0.0,0.0,0.0,0.0,0.0,0.0,0.0,0.0,0.0,0.0,0.0,0.0,0.0,0.0,0.0,0.0,0.0,0.0,0.0,0.0,0.0,0.0,0.0,0.0,0.0,0.0,0.0,0.0,0.0,0.0,0.0,0.0,0.0,0.0,0.0,0.0,0.0,0.0,0.0,0.0,0.0,0.0,0.0,0.0,0.0,0.0,0.0,0.0,0.0,0.0,0.0,0.0,0.0,0.0,0.0,0.0,0.0,0.0,0.0,0.0,0.0,0.0,0.0,0.0,0.0,0.0,0.0,0.0,0.0,0.0,0.0,0.0,0.0,0.0,0.0,0.0,0.0,0.0,0.0,0.0,0.0,0.0,0.0,0.0,0.0,0.0,0.0,0.0,0.0,0.0,0.0,0.0,0.0,0.0,0.0,0.0,0.0,0.0,0.0,0.0,0.0,0.0,0.0,0.0,0.0,0.0,0.0,0.0,0.0,0.0,0.0,0.0,0.0,0.0,0.0,0.0,0.0,0.0,0.0,0.0,0.0,0.0,0.0,0.0,0.0,0.0,0.0,0.0,0.0,0.0,0.0,0.0,0.0,0.0,0.0,0.0,0.0,0.0,0.0,0.0,0.0,0.0,0.0,0.0,0.0,0.0,0.0,0.0,0.0,0.0,0.0,0.0,0.0,0.0,0.0,0.0,0.0,0.0,0.0,0.0,0.0,0.0,0.0,0.0,0.0,0.0,0.0,0.0,0.0,0.0,0.0,0.0,0.0,0.0,0.0,0.0,0.0,0.0,0.0,0.0,0.0,0.0,0.0,0.0,0.0,0.0,0.0,0.0,0.0,0.0,0.0,0.0,0.0,0.0,0.0,0.0,0.0,0.0,0.0,0.0,0.0,0.0,0.0,0.0,0.0,0.0,0.0,0.0,0.0,0.0,0.0,0.0,0.0,0.0,0.0,0.0,0.0,0.0,0.0,0.0,0.0,0.0,0.0,0.0,0.0,0.0,0.0,0.0,0.0,0.0,0.0,0.0,0.0,0.0,0.0,0.0,0.0,0.0,0.0,0.0,-1.1186,0.0,0.0,0.0,0.0,0.0,0.0,0.0,0.0,0.0,0.0,0.0,0.0,0.0,0.0,0.0,0.0,0.0,0.0,0.0,0.0,0.0,0.0,0.0,0.0,0.0,0.0,0.0,0.0,0.0,0.0,0.0,0.0,0.0,0.0,0.0,0.0,0.0,0.0,0.0,0.0,0.0,0.0,0.0,0.0,0.0,0.0,0.0,0.0,0.0,0.0,0.0,0.0,0.0,0.0,0.0,0.0,0.0,0.0,0.0,0.0,0.0,0.0,0.0,0.0,0.0,0.0,0.0,0.0,0.0,0.0,0.0,0.0,0.0,0.0,0.0,0.0,0.0,0.0,0.0,0.0,0.0,0.0,0.0,0.0,0.0,0.0,0.0,0.0,0.0,0.0,0.0,0.0,0.0,0.0,0.0,0.0,0.0,0.0,0.0,0.0,0.0,0.0,0.0,0.0,0.0,0.0,0.0,0.0,0.0,0.0,-1.1417,-1.1341,-1.1341,-1.1268,-1.1123,0.0,0.0,0.0,0.0,0.0,0.0,0.0,0.0,0.0,0.0,0.0,0.0,0.0,0.0,0.0,0.0,0.0,0.0,0.0,0.0,0.0,0.0,0.0,0.0,0.0,0.0,0.0,0.0,0.0,0.0,0.0,0.0,0.0,0.0,0.0,0.0,0.0,0.0,0.0,0.0,0.0,0.0,0.0,0.0,0.0,0.0,0.0,0.0,0.0,0.0,0.0,0.0,0.0,0.0,0.0,0.0,0.0,0.0,0.0,0.0,0.0,0.0,0.0,0.0,0.0,0.0,0.0,0.0,0.0,0.0,0.0,0.0,0.0,0.0,0.0,0.0,0.0,0.0,0.0,0.0,0.0,0.0,0.0,0.0,0.0,0.0,0.0,0.0,0.0,0.0,0.0,0.0,0.0,0.0,0.0,0.0,0.0,0.0,0.0,0.0,0.0,0.0,0.0,0.0,0.0,0.0,0.0,0.0,0.0,0.0,0.0,0.0,-1.1528,-1.1395,-1.1129,0.0,0.0,0.0,0.0,0.0,0.0,0.0,0.0,0.0,0.0,0.0,0.0,0.0,0.0,0.0,0.0,0.0,0.0,0.0,0.0,0.0,0.0,0.0,0.0,0.0,0.0,0.0,0.0,0.0,0.0,0.0,0.0,0.0,0.0,0.0,0.0,0.0,0.0,0.0,0.0,0.0,0.0,0.0,0.0,0.0,0.0,0.0,0.0,0.0,0.0,0.0,0.0,0.0,0.0,0.0,0.0,0.0,0.0,0.0,0.0,0.0,0.0,0.0,0.0,0.0,0.0,0.0,0.0,0.0,0.0,0.0,0.0,0.0,0.0,0.0,0.0,0.0,0.0,0.0,0.0,0.0,0.0,0.0,0.0,0.0,0.0,0.0,0.0,0.0,0.0,0.0,0.0,0.0,0.0,0.0,0.0,0.0,0.0,0.0,0.0,0.0,0.0,0.0,0.0,0.0,0.0,0.0,0.0,0.0,0.0,-1.1528,-1.1528,-1.1528,0.0,-1.1141,0.0,0.0,0.0,0.0,0.0,0.0,0.0,0.0,0.0,0.0,0.0,0.0,0.0,0.0,0.0,0.0,0.0,0.0,0.0,0.0,0.0,0.0,0.0,0.0,0.0,0.0,0.0,0.0,0.0,0.0,0.0,0.0,0.0,0.0,0.0,0.0,0.0,0.0,0.0,0.0,0.0,0.0,0.0,0.0,0.0,0.0,0.0,0.0,0.0,0.0,0.0,0.0,0.0,0.0,0.0,0.0,0.0,0.0,0.0,0.0,0.0,0.0,0.0,0.0,0.0,0.0,0.0,0.0,0.0,0.0,0.0,0.0,0.0,0.0,0.0,0.0,0.0,0.0,0.0,0.0,0.0,0.0,0.0,0.0,0.0,0.0,0.0,0.0,0.0,0.0,0.0,0.0,0.0,0.0,0.0,0.0,0.0,0.0,0.0,0.0,0.0,0.0,0.0,0.0,0.0,0.0,0.0,0.0,0.0,0.0,-1.1763,-1.1769,-1.1449,-1.1232,0.0,0.0,0.0,0.0,0.0,0.0,0.0,0.0,0.0,0.0,0.0,0.0,0.0,0.0,0.0,0.0,0.0,0.0,0.0,0.0,0.0,0.0,0.0,0.0,0.0,0.0,0.0,0.0,0.0,0.0,0.0,0.0,0.0,0.0,0.0,0.0,0.0,0.0,0.0,0.0,0.0,0.0,0.0,0.0,0.0,0.0,0.0,0.0,0.0,0.0,0.0,0.0,0.0,0.0,0.0,0.0,0.0,0.0,0.0,0.0,0.0,0.0,0.0,0.0,0.0,0.0,0.0,0.0,0.0,0.0,0.0,0.0,0.0,0.0,0.0,0.0,0.0,0.0,0.0,0.0,0.0,0.0,0.0,0.0,0.0,0.0,0.0,0.0,0.0,0.0,0.0,0.0,0.0,0.0,0.0,0.0,0.0,0.0,0.0,0.0,0.0,0.0,0.0,0.0,0.0,0.0,0.0,0.0,0.0,0.0,-1.1964,-1.189,-1.1793,-1.1359,-1.1111,-1.1186,0.0,0.0,0.0,0.0,0.0,0.0,0.0,0.0,0.0,0.0,0.0,0.0,0.0,0.0,0.0,0.0,0.0,0.0,0.0,0.0,0.0,0.0,0.0,0.0,0.0,0.0,0.0,0.0,0.0,0.0,0.0,0.0,0.0,0.0,0.0,0.0,0.0,0.0,0.0,0.0,0.0,0.0,0.0,0.0,0.0,0.0,0.0,0.0,0.0,0.0,0.0,0.0,0.0,0.0,0.0,0.0,0.0,0.0,0.0,0.0,0.0,0.0,0.0,0.0,0.0,0.0,0.0,0.0,0.0,0.0,0.0,0.0,0.0,0.0,0.0,0.0,0.0,0.0,0.0,0.0,0.0,0.0,0.0,0.0,0.0,0.0,0.0,0.0,0.0,0.0,0.0,0.0,0.0,0.0,0.0,0.0,0.0,0.0,0.0,0.0,0.0,0.0,0.0,0.0,0.0,0.0,0.0,0.0,-1.1558,-1.1793,-1.1799,-1.1558,-1.1262,-1.1186,0.0,0.0,0.0,0.0,0.0,0.0,0.0,0.0,0.0,0.0,0.0,0.0,0.0,0.0,0.0,0.0,0.0,0.0,0.0,0.0,0.0,0.0,0.0,0.0,0.0,0.0,0.0,0.0,0.0,0.0,0.0,0.0,0.0,0.0,0.0,0.0,0.0,0.0,0.0,0.0,0.0,0.0,0.0,0.0,0.0,0.0,0.0,0.0,0.0,0.0,0.0,0.0,0.0,0.0,0.0,0.0,0.0,0.0,0.0,0.0,0.0,0.0,0.0,0.0,0.0,0.0,0.0,0.0,0.0,0.0,0.0,0.0,0.0,0.0,0.0,0.0,0.0,0.0,0.0,0.0,0.0,0.0,0.0,0.0,0.0,0.0,0.0,0.0,0.0,0.0,0.0,0.0,0.0,0.0,0.0,0.0,0.0,0.0,0.0,0.0,0.0,0.0,0.0,0.0,0.0,0.0,0.0,0.0,0.0,-1.1534,-1.163,-1.1462,-1.1047,-1.1234,-1.1335,0.0,0.0,0.0,0.0,0.0,0.0,0.0,0.0,0.0,0.0,0.0,0.0,0.0,0.0,0.0,0.0,0.0,0.0,0.0,0.0,0.0,0.0,0.0,0.0,0.0,0.0,0.0,0.0,0.0,0.0,0.0,0.0,0.0,0.0,0.0,0.0,0.0,0.0,0.0,0.0,0.0,0.0,0.0,0.0,0.0,0.0,0.0,0.0,0.0,0.0,0.0,0.0,0.0,0.0,0.0,0.0,0.0,0.0,0.0,0.0,0.0,0.0,0.0,0.0,0.0,0.0,0.0,0.0,0.0,0.0,0.0,0.0,0.0,0.0,0.0,0.0,0.0,0.0,0.0,0.0,0.0,0.0,0.0,0.0,0.0,0.0,0.0,0.0,0.0,0.0,0.0,0.0,0.0,0.0,0.0,0.0,0.0,0.0,0.0,0.0,0.0,0.0,0.0,0.0,0.0,0.0,0.0,0.0,0.0,-1.1655,0.0,-1.1409,-1.1153,-1.1362,-1.1546,0.0,0.0,0.0,0.0,0.0,0.0,0.0,0.0,0.0,0.0,0.0,0.0,0.0,0.0,0.0,0.0,0.0,0.0,0.0,0.0,0.0,0.0,0.0,0.0,0.0,0.0,0.0,0.0,0.0,0.0,0.0,0.0,0.0,0.0,0.0,0.0,0.0,0.0,0.0,0.0,0.0,0.0,0.0,0.0,0.0,0.0,0.0,0.0,0.0,0.0,0.0,0.0,0.0,0.0,0.0,0.0,0.0,0.0,0.0,0.0,0.0,0.0,0.0,0.0,0.0,0.0,0.0,0.0,0.0,0.0,0.0,0.0,0.0,0.0,0.0,0.0,0.0,0.0,0.0,0.0,0.0,0.0,0.0,0.0,0.0,0.0,0.0,0.0,0.0,0.0,0.0,0.0,0.0,0.0,0.0,0.0,0.0,0.0,0.0,0.0,0.0,0.0,0.0,0.0,0.0,0.0,0.0,0.0,-1.1661,-1.1908,-1.1674,-1.1656,-1.1908,-1.1805,-1.1914,0.0,0.0,0.0,0.0,0.0,0.0,0.0,0.0,0.0,0.0,0.0,0.0,0.0,0.0,0.0,0.0,0.0,0.0,0.0,0.0,0.0,0.0,0.0,0.0,0.0,0.0,0.0,0.0,0.0,0.0,0.0,0.0,0.0,0.0,0.0,0.0,0.0,0.0,0.0,0.0,0.0,0.0,0.0,0.0,0.0,0.0,0.0,0.0,0.0,0.0,0.0,0.0,0.0,0.0,0.0,0.0,0.0,0.0,0.0,0.0,0.0,0.0,0.0,0.0,0.0,0.0,0.0,0.0,0.0,0.0,0.0,0.0,0.0,0.0,0.0,0.0,0.0,0.0,0.0,0.0,0.0,0.0,0.0,0.0,0.0,0.0,0.0,0.0,0.0,0.0,0.0,0.0,0.0,0.0,0.0,0.0,0.0,0.0,0.0,0.0,0.0,0.0,0.0,0.0,0.0,0.0,0.0,0.0,0.0,-1.168,-1.176,-1.184,-1.2,-1.1986,-1.2158,0.0,0.0,0.0,0.0,0.0,0.0,0.0,0.0,0.0,0.0,0.0,0.0,0.0,0.0,0.0,0.0,0.0,0.0,0.0,0.0,0.0,0.0,0.0,0.0,0.0,0.0,0.0,0.0,0.0,0.0,0.0,0.0,0.0,0.0,0.0,0.0,0.0,0.0,0.0,0.0,0.0,0.0,0.0,0.0,0.0,0.0,0.0,0.0,0.0,0.0,0.0,0.0,0.0,0.0,0.0,0.0,0.0,0.0,0.0,0.0,0.0,0.0,0.0,0.0,0.0,0.0,0.0,0.0,0.0,0.0,0.0,0.0,0.0,0.0,0.0,0.0,0.0,0.0,0.0,0.0,0.0,0.0,0.0,0.0,0.0,0.0,0.0,0.0,0.0,0.0,0.0,0.0,0.0,0.0,0.0,0.0,0.0,0.0,0.0,0.0,0.0,0.0,0.0,0.0,0.0,0.0,0.0,0.0,0.0,-1.204,-1.2134,-1.2304,-1.2386,-1.2449,-1.2491,-1.2622,0.0,0.0,0.0,0.0,0.0,0.0,0.0,0.0,0.0,0.0,0.0,0.0,0.0,0.0,0.0,0.0,0.0,0.0,0.0,0.0,0.0,0.0,0.0,0.0,0.0,0.0,0.0,0.0,0.0,0.0,0.0,0.0,0.0,0.0,0.0,0.0,0.0,0.0,0.0,0.0,0.0,0.0,0.0,0.0,0.0,0.0,0.0,0.0,0.0,0.0,0.0,0.0,0.0,0.0,0.0,0.0,0.0,0.0,0.0,0.0,0.0,0.0,0.0,0.0,0.0,0.0,0.0,0.0,0.0,0.0,0.0,0.0,0.0,0.0,0.0,0.0,0.0,0.0,0.0,0.0,0.0,0.0,0.0,0.0,0.0,0.0,0.0,0.0,0.0,0.0,0.0,0.0,0.0,0.0,0.0,0.0,0.0,0.0,0.0,0.0,0.0,0.0,0.0,0.0,0.0,0.0,0.0,0.0,-1.2693,-1.2705,-1.2784,-1.3124,-1.3035,-1.2932,0.0,0.0,0.0,0.0,0.0,0.0,0.0,0.0,0.0,0.0,0.0,0.0,0.0,0.0,0.0,0.0,0.0,0.0,0.0,0.0,0.0,0.0,0.0,0.0,0.0,0.0,0.0,0.0,0.0,0.0,0.0,0.0,0.0,0.0,0.0,0.0,0.0,0.0,0.0,0.0,0.0,0.0,0.0,0.0,0.0,0.0,0.0,0.0,0.0,0.0,0.0,0.0,0.0,0.0,0.0,0.0,0.0,0.0,0.0,0.0,0.0,0.0,0.0,0.0,0.0,0.0,0.0,0.0,0.0,0.0,0.0,0.0,0.0,0.0,0.0,0.0,0.0,0.0,0.0,0.0,0.0,0.0,0.0,0.0,0.0,0.0,0.0,0.0,0.0,0.0,0.0,0.0,0.0,0.0,0.0,0.0,0.0,0.0,0.0,0.0,0.0,0.0,0.0,0.0,0.0,0.0,0.0,0.0,0.0,-1.2674,-1.2705,-1.2875,-1.3307,-1.3124,-1.302,0.0,0.0,0.0,0.0,0.0,0.0,0.0,0.0,0.0,0.0,0.0,0.0,0.0,0.0,0.0,0.0,0.0,0.0,0.0,0.0,0.0,0.0,0.0,0.0,0.0,0.0,0.0,0.0,0.0,0.0,0.0,0.0,0.0,0.0,0.0,0.0,0.0,0.0,0.0,0.0,0.0,0.0,0.0,0.0,0.0,0.0,0.0,0.0,0.0,0.0,0.0,0.0,0.0,0.0,0.0,0.0,0.0,0.0,0.0,0.0,0.0,0.0,0.0,0.0,0.0,0.0,0.0,0.0,0.0,0.0,0.0,0.0,0.0,0.0,0.0,0.0,0.0,0.0,0.0,0.0,0.0,0.0,0.0,0.0,0.0,0.0,0.0,0.0,0.0,0.0,0.0,0.0,0.0,0.0,0.0,0.0,0.0,0.0,0.0,0.0,0.0,0.0,0.0,0.0,0.0,0.0,0.0,0.0,-1.2174,-1.2687,-1.2705,-1.296,-1.3398,-1.3239,-1.327,0.0,0.0,0.0,0.0,0.0,0.0,0.0,0.0,0.0,0.0,0.0,0.0,0.0,0.0,0.0,0.0,0.0,0.0,0.0,0.0,0.0,0.0,0.0,0.0,0.0,0.0,0.0,0.0,0.0,0.0,0.0,0.0,0.0,0.0,0.0,0.0,0.0,0.0,0.0,0.0,0.0,0.0,0.0,0.0,0.0,0.0,0.0,0.0,0.0,0.0,0.0,0.0,0.0,0.0,0.0,0.0,0.0,0.0,0.0,0.0,0.0,0.0,0.0,0.0,0.0,0.0,0.0,0.0,0.0,0.0,0.0,0.0,0.0,0.0,0.0,0.0,0.0,0.0,0.0,0.0,0.0,0.0,0.0,0.0,0.0,0.0,0.0,0.0,0.0,0.0,0.0,0.0,0.0,0.0,0.0,0.0,0.0,0.0,0.0,0.0,0.0,0.0,0.0,0.0,0.0,0.0,0.0,0.0,-1.218,-1.2687,-1.2705,-1.296,-1.3307,-1.3398,-1.3432,0.0,0.0,0.0,0.0,0.0,0.0,0.0,0.0,0.0,0.0,0.0,0.0,0.0,0.0,0.0,0.0,0.0,0.0,0.0,0.0,0.0,0.0,0.0,0.0,0.0,0.0,0.0,0.0,0.0,0.0,0.0,0.0,0.0,0.0,0.0,0.0,0.0,0.0,0.0,0.0,0.0,0.0,0.0,0.0,0.0,0.0,0.0,0.0,0.0,0.0,0.0,0.0,0.0,0.0,0.0,0.0,0.0,0.0,0.0,0.0,0.0,0.0,0.0,0.0,0.0,0.0,0.0,0.0,0.0,0.0,0.0,0.0,0.0,0.0,0.0,0.0,0.0,0.0,0.0,0.0,0.0,0.0,0.0,0.0,0.0,0.0,0.0,0.0,0.0,0.0,0.0,0.0,0.0,0.0,0.0,0.0,0.0,0.0,0.0,0.0,0.0,0.0,0.0,0.0,0.0,0.0,0.0,0.0,-1.2174,-1.2687,-1.2705,-1.2875,-1.3137,-1.3307,-1.3439,0.0,0.0,0.0,0.0,0.0,0.0,0.0,0.0,0.0,0.0,0.0,0.0,0.0,0.0,0.0,0.0,0.0,0.0,0.0,0.0,0.0,0.0,0.0,0.0,0.0,0.0,0.0,0.0,0.0,0.0,0.0,0.0,0.0,0.0,0.0,0.0,0.0,0.0,0.0,0.0,0.0,0.0,0.0,0.0,0.0,0.0,0.0,0.0,-1.648,0.0,0.0,0.0,0.0,0.0,0.0,0.0,0.0,0.0,0.0,0.0,0.0,0.0,0.0,0.0,0.0,0.0,0.0,0.0,0.0,0.0,0.0,0.0,0.0,0.0,0.0,0.0,0.0,0.0,0.0,0.0,0.0,0.0,0.0,0.0,0.0,0.0,0.0,0.0,0.0,0.0,0.0,0.0,0.0,0.0,0.0,0.0,0.0,0.0,0.0,0.0,0.0,0.0,0.0,0.0,0.0,0.0,0.0,0.0,-1.2119,-1.2506,-1.2644,-1.279,-1.3052,-1.3313,-1.3439,0.0,0.0,0.0,0.0,0.0,0.0,0.0,0.0,0.0,0.0,0.0,0.0,0.0,0.0,0.0,0.0,0.0,0.0,0.0,0.0,0.0,0.0,0.0,0.0,0.0,0.0,0.0,0.0,0.0,0.0,0.0,0.0,0.0,0.0,0.0,0.0,0.0,0.0,0.0,0.0,0.0,0.0,0.0,0.0,0.0,0.0,0.0,0.0,0.0,0.0,0.0,0.0,0.0,0.0,0.0,0.0,0.0,0.0,0.0,0.0,0.0,0.0,0.0,0.0,0.0,0.0,0.0,0.0,0.0,0.0,0.0,0.0,0.0,0.0,0.0,0.0,0.0,0.0,0.0,0.0,0.0,0.0,0.0,0.0,0.0,0.0,0.0,0.0,0.0,0.0,0.0,0.0,0.0,0.0,0.0,0.0,0.0,0.0,0.0,0.0,0.0,0.0,0.0,0.0,0.0,0.0,0.0,-1.1787,-1.2053,-1.2306,-1.2572,-1.279,-1.3052,-1.3269,-1.3284,-1.3173,0.0,0.0,0.0,0.0,0.0,0.0,0.0,0.0,0.0,0.0,0.0,0.0,0.0,0.0,0.0,0.0,0.0,0.0,0.0,0.0,0.0,0.0,0.0,0.0,0.0,0.0,0.0,0.0,0.0,0.0,0.0,0.0,0.0,0.0,0.0,0.0,0.0,0.0,-1.5451,-1.6072,0.0,0.0,0.0,0.0,0.0,0.0,0.0,0.0,-1.6947,0.0,0.0,0.0,0.0,0.0,0.0,0.0,0.0,0.0,0.0,0.0,0.0,0.0,0.0,0.0,0.0,0.0,0.0,0.0,0.0,0.0,0.0,0.0,0.0,0.0,0.0,0.0,0.0,0.0,0.0,0.0,0.0,0.0,0.0,0.0,0.0,0.0,0.0,0.0,0.0,0.0,0.0,0.0,0.0,0.0,0.0,0.0,0.0,0.0,0.0,0.0,0.0,0.0,0.0,0.0,0.0,-1.1522,-1.1787,-1.2047,-1.2306,-1.2566,-1.2705,-1.279,-1.2918,-1.2921,-1.2648,0.0,0.0,0.0,0.0,0.0,0.0,0.0,0.0,0.0,0.0,0.0,0.0,0.0,0.0,0.0,0.0,0.0,0.0,0.0,0.0,0.0,0.0,0.0,0.0,0.0,0.0,0.0,0.0,0.0,0.0,0.0,0.0,0.0,0.0,0.0,0.0,0.0,0.0,0.0,-1.684,-1.7295,0.0,0.0,0.0,0.0,0.0,0.0,0.0,0.0,-1.8009,0.0,0.0,0.0,0.0,0.0,0.0,0.0,0.0,0.0,0.0,0.0,0.0,0.0,0.0,0.0,0.0,0.0,0.0,0.0,0.0,0.0,0.0,0.0,0.0,0.0,0.0,0.0,0.0,0.0,0.0,0.0,0.0,0.0,0.0,0.0,0.0,0.0,0.0,0.0,0.0,0.0,0.0,0.0,0.0,0.0,0.0,0.0,0.0,0.0,0.0,0.0,0.0,0.0,0.0,0.0,-1.1099,-1.151,-1.1848,-1.2107,-1.2367,-1.2499,-1.2499,-1.2717,-1.27,0.0,0.0,0.0,0.0,0.0,0.0,0.0,0.0,0.0,0.0,0.0,0.0,0.0,0.0,0.0,0.0,0.0,0.0,0.0,0.0,0.0,0.0,0.0,0.0,0.0,0.0,0.0,0.0,0.0,0.0,0.0,0.0,0.0,0.0,0.0,0.0,0.0,0.0,0.0,0.0,-1.7221,-1.7642,-1.7822,0.0,0.0,0.0,0.0,0.0,0.0,-1.839,-1.8343,0.0,0.0,0.0,0.0,0.0,0.0,0.0,0.0,0.0,0.0,0.0,0.0,0.0,0.0,0.0,0.0,0.0,0.0,0.0,0.0,0.0,0.0,0.0,0.0,0.0,0.0,0.0,0.0,0.0,0.0,0.0,0.0,0.0,0.0,0.0,0.0,0.0,0.0,0.0,0.0,0.0,0.0,0.0,0.0,0.0,0.0,0.0,0.0,0.0,0.0,0.0,0.0,0.0,0.0,0.0,-1.0725,-1.1256,-1.163,-1.1842,-1.2101,-1.2234,-1.2234,-1.2437,-1.2363,0.0,0.0,0.0,0.0,0.0,0.0,0.0,0.0,0.0,0.0,0.0,0.0,0.0,0.0,0.0,0.0,0.0,0.0,0.0,0.0,0.0,0.0,0.0,0.0,0.0,0.0,0.0,0.0,0.0,0.0,0.0,0.0,0.0,0.0,0.0,0.0,0.0,0.0,0.0,0.0,0.0,-1.7963,-1.8497,-1.8577,0.0,0.0,0.0,0.0,-1.8577,-1.8631,0.0,0.0,0.0,0.0,0.0,0.0,0.0,0.0,0.0,0.0,0.0,0.0,0.0,0.0,0.0,0.0,0.0,0.0,0.0,0.0,0.0,0.0,0.0,0.0,0.0,0.0,0.0,0.0,0.0,0.0,0.0,0.0,0.0,0.0,0.0,0.0,0.0,0.0,0.0,0.0,0.0,0.0,0.0,0.0,0.0,0.0,0.0,0.0,0.0,0.0,0.0,0.0,0.0,0.0,0.0,0.0,-1.0731,-1.1256,-1.1468,-1.1588,-1.183,-1.1968,-1.1968,-1.1903,-1.1983,0.0,0.0,0.0,0.0,0.0,0.0,0.0,0.0,0.0,0.0,0.0,0.0,0.0,0.0,0.0,0.0,0.0,0.0,0.0,0.0,0.0,0.0,0.0,0.0,0.0,0.0,0.0,0.0,0.0,0.0,0.0,0.0,0.0,0.0,0.0,0.0,0.0,0.0,0.0,0.0,0.0,-1.8504,-1.8824,-1.8871,-1.8871,0.0,0.0,-1.8871,-1.8878,-1.9092,0.0,0.0,0.0,0.0,0.0,0.0,0.0,0.0,0.0,0.0,0.0,0.0,0.0,0.0,0.0,0.0,0.0,0.0,0.0,0.0,0.0,0.0,0.0,0.0,0.0,0.0,0.0,0.0,0.0,0.0,0.0,0.0,0.0,0.0,0.0,0.0,0.0,0.0,0.0,0.0,0.0,0.0,0.0,0.0,0.0,0.0,0.0,0.0,0.0,0.0,0.0,0.0,0.0,0.0,0.0,-1.0387,-1.0514,-1.1021,-1.1377,-1.1528,-1.1642,-1.1697,-1.1697,-1.1666,-1.1686,0.0,0.0,0.0,0.0,0.0,0.0,0.0,0.0,0.0,0.0,0.0,0.0,0.0,0.0,0.0,0.0,0.0,0.0,0.0,0.0,0.0,0.0,0.0,0.0,0.0,0.0,0.0,0.0,0.0,0.0,0.0,0.0,0.0,0.0,0.0,0.0,0.0,0.0,0.0,0.0,0.0,0.0,-1.9112,-1.9172,0.0,0.0,0.0,-1.9172,-1.9172,0.0,0.0,0.0,0.0,0.0,0.0,0.0,0.0,0.0,0.0,0.0,0.0,0.0,0.0,0.0,0.0,0.0,0.0,0.0,0.0,0.0,0.0,0.0,0.0,0.0,0.0,0.0,0.0,0.0,0.0,0.0,0.0,0.0,0.0,0.0,0.0,0.0,0.0,0.0,0.0,0.0,0.0,0.0,0.0,0.0,0.0,0.0,0.0,0.0,0.0,0.0,0.0,0.0,0.0,0.0,0.0,0.0,-1.0269,-1.0707,-1.1073,-1.1419,-1.1348,-1.1348,-1.1425,-1.1425,0.0,0.0,0.0,0.0,0.0,0.0,0.0,0.0,0.0,0.0,0.0,0.0,0.0,0.0,0.0,0.0,0.0,0.0,0.0,0.0,0.0,0.0,0.0,0.0,0.0,0.0,0.0,-1.1543,0.0,0.0,0.0,0.0,0.0,0.0,0.0,0.0,0.0,0.0,0.0,0.0,0.0,0.0,-1.8504,-1.9165,-1.9252,-1.9285,0.0,0.0,-1.9366,-1.9366,-1.9366,-1.9265,0.0,0.0,0.0,0.0,0.0,0.0,0.0,0.0,0.0,0.0,0.0,0.0,0.0,0.0,0.0,0.0,0.0,0.0,0.0,0.0,0.0,0.0,0.0,0.0,0.0,0.0,0.0,0.0,0.0,0.0,0.0,0.0,0.0,0.0,0.0,0.0,0.0,0.0,0.0,0.0,0.0,0.0,0.0,0.0,0.0,0.0,0.0,0.0,0.0,0.0,0.0,0.0,0.0,0.0,0.0,-1.0333,-1.039,-1.0657,-1.1129,-1.0917,-1.0911,-1.1135,-1.1291,-1.1509,0.0,0.0,0.0,0.0,0.0,0.0,0.0,0.0,0.0,0.0,0.0,0.0,0.0,0.0,0.0,0.0,0.0,0.0,0.0,0.0,0.0,0.0,0.0,0.0,0.0,0.0,0.0,0.0,0.0,0.0,0.0,0.0,0.0,0.0,0.0,0.0,0.0,0.0,0.0,0.0,0.0,-1.7963,-1.8831,-1.8951,-1.9052,0.0,0.0,-1.9366,-1.9366,-1.9366,-1.9381,-1.9299,0.0,0.0,0.0,0.0,0.0,0.0,0.0,0.0,0.0,0.0,0.0,0.0,0.0,0.0,0.0,0.0,0.0,0.0,0.0,0.0,0.0,0.0,0.0,0.0,0.0,0.0,0.0,0.0,0.0,0.0,0.0,0.0,0.0,0.0,0.0,0.0,0.0,0.0,0.0,0.0,0.0,0.0,0.0,0.0,0.0,0.0,0.0,0.0,0.0,0.0,0.0,0.0,0.0,-0.9932,-1.0118,-1.0307,-1.0481,-1.0726,-1.0738,-1.0812,-1.0887,-1.126,-1.1558,0.0,0.0,0.0,0.0,0.0,0.0,0.0,0.0,0.0,0.0,0.0,0.0,0.0,0.0,0.0,0.0,0.0,0.0,0.0,0.0,0.0,0.0,0.0,0.0,0.0,0.0,0.0,0.0,-1.187,-1.2058,-1.26,0.0,0.0,0.0,0.0,0.0,0.0,0.0,0.0,0.0,0.0,-1.7909,-1.8798,-1.8925,0.0,0.0,-1.9366,-1.9366,-1.9366,-1.9366,-1.9381,-1.9299,-1.9334,0.0,0.0,0.0,0.0,0.0,0.0,0.0,0.0,0.0,0.0,0.0,0.0,0.0,0.0,0.0,0.0,0.0,0.0,0.0,0.0,0.0,0.0,0.0,0.0,0.0,0.0,0.0,0.0,0.0,0.0,0.0,0.0,0.0,0.0,0.0,0.0,0.0,0.0,0.0,0.0,0.0,0.0,0.0,0.0,0.0,0.0,0.0,0.0,0.0,0.0,0.0,0.0,-0.9849,-0.9979,-1.0089,-1.0266,-1.0507,-1.0663,-1.0738,-1.0812,-1.126,-1.1632,0.0,0.0,0.0,0.0,0.0,0.0,0.0,0.0,0.0,0.0,0.0,0.0,0.0,0.0,0.0,0.0,0.0,0.0,0.0,0.0,0.0,0.0,0.0,0.0,0.0,0.0,0.0,0.0,-1.1944,-1.2191,-1.2768,0.0,0.0,0.0,0.0,0.0,0.0,0.0,0.0,0.0,0.0,-1.7642,-1.8531,-1.8738,-1.8898,-1.9192,-1.9312,-1.9366,-1.9366,-1.9408,-1.9354,-1.9275,0.0,0.0,0.0,0.0,0.0,0.0,0.0,0.0,0.0,0.0,0.0,0.0,0.0,0.0,0.0,0.0,0.0,0.0,0.0,0.0,0.0,0.0,0.0,0.0,0.0,0.0,0.0,0.0,0.0,0.0,-1.0031,0.0,0.0,0.0,0.0,0.0,0.0,0.0,0.0,0.0,0.0,0.0,0.0,0.0,0.0,0.0,0.0,0.0,0.0,0.0,0.0,0.0,0.0,-0.9544,-0.9974,-0.9735,-0.9824,-1.0507,-1.0519,-1.0599,-1.083,-1.1409,-1.1706,-1.17,0.0,0.0,0.0,0.0,0.0,0.0,0.0,0.0,0.0,0.0,0.0,0.0,0.0,0.0,0.0,0.0,0.0,0.0,0.0,0.0,0.0,0.0,0.0,0.0,0.0,0.0,-1.185,-1.2118,-1.2405,0.0,0.0,0.0,0.0,0.0,0.0,0.0,0.0,0.0,0.0,-1.672,-1.7054,-1.7936,-1.8317,-1.8597,-1.8891,-1.9165,-1.9359,-1.9359,-1.9341,-1.9261,0.0,0.0,0.0,0.0,0.0,0.0,0.0,0.0,0.0,0.0,0.0,0.0,0.0,0.0,0.0,0.0,0.0,0.0,0.0,0.0,0.0,0.0,0.0,0.0,0.0,0.0,0.0,-1.0243,-1.0027,0.0,0.0,0.0,0.0,0.0,0.0,0.0,0.0,0.0,0.0,0.0,-1.2539,-1.3058,0.0,0.0,0.0,0.0,0.0,0.0,0.0,0.0,0.0,0.0,0.0,0.0,-0.958,-0.9631,-0.9658,-0.9911,-1.0379,-1.0479,-1.0778,-1.1094,-1.1563,-1.1889,-1.2161,0.0,0.0,0.0,0.0,0.0,0.0,0.0,0.0,0.0,0.0,0.0,0.0,0.0,0.0,0.0,0.0,0.0,0.0,0.0,0.0,0.0,0.0,0.0,0.0,0.0,-1.1837,0.0,0.0,0.0,0.0,0.0,0.0,0.0,0.0,0.0,0.0,0.0,-1.5865,-1.6353,-1.6587,-1.6954,-1.7642,-1.8003,-1.8303,0.0,0.0,0.0,0.0,0.0,0.0,0.0,0.0,0.0,0.0,0.0,0.0,0.0,0.0,-2.0053,-1.8825,-1.8318,-1.791,-1.74,0.0,0.0,0.0,0.0,0.0,0.0,0.0,0.0,0.0,0.0,0.0,0.0,0.0,0.0,-1.1075,0.0,-1.0833,0.0,0.0,0.0,0.0,0.0,0.0,0.0,0.0,-1.2576,-1.2927,-1.3297,-1.3729,-1.395,0.0,-1.444,-1.4305,0.0,0.0,0.0,0.0,0.0,0.0,0.0,0.0,-0.9525,-0.9502,-0.9675,-0.9878,-1.0266,-1.0523,-1.0796,-1.1267,-1.1751,-1.2201,-1.2694,-1.3197,-1.3462,0.0,0.0,0.0,0.0,0.0,0.0,0.0,0.0,0.0,0.0,0.0,0.0,0.0,0.0,0.0,0.0,0.0,0.0,0.0,0.0,0.0,0.0,0.0,-1.2243,0.0,0.0,0.0,0.0,0.0,0.0,0.0,0.0,0.0,-1.5351,-1.5558,-1.5825,-1.6219,-1.6526,-1.6881,-1.7368,0.0,0.0,0.0,0.0,0.0,0.0,0.0,-1.8913,-1.9566,-1.9972,-2.045,-2.1154,-2.1623,-2.1827,-2.1632,0.0,0.0,-1.9633,-1.9234,-1.891,-1.8182,-1.7874,-1.7611,-1.7595,-1.7312,-1.717,0.0,0.0,0.0,0.0,0.0,0.0,0.0,0.0,-1.2077,-1.2084,0.0,-1.1821,0.0,0.0,0.0,0.0,0.0,-1.2539,0.0,0.0,-1.3141,-1.36,-1.4491,-1.4669,-1.4987,-1.5358,-1.5257,-1.4942,-1.45,-1.3531,0.0,0.0,0.0,0.0,0.0,0.0,-0.9457,-0.9438,-0.9542,-0.982,-1.0293,-1.0461,-1.0807,-1.1364,-1.1998,-1.2689,-1.3251,-1.3425,-1.3584,-1.3839,-1.3993,0.0,0.0,0.0,0.0,0.0,0.0,0.0,0.0,0.0,0.0,0.0,0.0,0.0,0.0,0.0,0.0,0.0,0.0,0.0,0.0,-1.2257,0.0,0.0,0.0,0.0,0.0,0.0,0.0,0.0,0.0,0.0,-1.5418,-1.5424,-1.5625,-1.6186,0.0,0.0,0.0,0.0,-1.8029,-1.8029,-1.827,-1.8551,-1.8844,-1.8837,-1.9083,-1.9612,0.0,0.0,-2.1928,-2.2123,-2.2131,-2.2123,-2.192,-2.1306,-1.9969,-1.9698,-1.9277,-1.8476,-1.806,-1.7912,-1.7717,-1.7579,-1.7347,-1.8929,0.0,0.0,0.0,0.0,-1.4566,-1.376,-1.3098,-1.282,-1.2499,-1.2282,-1.219,0.0,0.0,0.0,0.0,0.0,0.0,-1.3271,-1.3535,-1.374,-1.4122,-1.4747,-1.4909,-1.5019,-1.5023,-1.5154,-1.4972,-1.4429,-1.4019,-1.306,-1.1717,0.0,0.0,0.0,0.0,-0.9425,-0.9097,-0.9395,-0.9832,-1.0284,-1.038,-1.0891,-1.1946,-1.2431,-1.2888,-1.3286,-1.3572,-1.3927,-1.434,-1.4433,0.0,0.0,0.0,0.0,0.0,0.0,0.0,0.0,0.0,0.0,0.0,0.0,0.0,0.0,0.0,0.0,0.0,0.0,0.0,-1.2534,-1.2722,-1.291,0.0,0.0,0.0,0.0,0.0,0.0,0.0,0.0,0.0,-1.5678,-1.5705,-1.5765,0.0,0.0,-1.674,-1.682,-1.7341,-1.7716,-1.7716,-1.7902,0.0,0.0,-1.8714,-1.9077,-1.9828,-2.0786,-2.1623,-2.2342,-2.2443,-2.2443,-2.2434,-2.2434,-2.2089,-2.1476,-2.0744,-1.9936,-1.9228,-1.8758,-1.8301,-1.8077,-1.7893,-1.7807,-2.047,-1.9707,-1.8359,-1.7378,-1.6581,-1.5419,-1.4561,-1.3753,-1.347,-1.3184,-1.2919,-1.2728,-1.2815,-1.3075,-1.3169,0.0,0.0,0.0,-1.3615,-1.4026,-1.4137,-1.4438,-1.4941,-1.5055,-1.4973,-1.4875,-1.4964,-1.4783,-1.4425,-1.4281,-1.3446,-1.2004,0.0,0.0,-0.9426,-0.9519,-0.9308,-0.8826,-0.9269,-0.9725,-1.0168,-1.069,-1.1488,-1.2451,-1.2687,-1.3028,-1.346,-1.3659,-1.408,-1.4569,-1.4803,-1.503,0.0,0.0,0.0,0.0,0.0,0.0,0.0,0.0,0.0,0.0,0.0,-1.1847,0.0,0.0,0.0,0.0,-1.2402,-1.2785,-1.3091,-1.3233,0.0,0.0,0.0,0.0,0.0,0.0,0.0,-1.5205,-1.5586,-1.5912,-1.6089,-1.6109,-1.6021,-1.5832,-1.6339,-1.6707,-1.6707,0.0,-1.7799,-1.7793,-1.801,-1.8225,-1.8628,-1.8844,-1.9323,-2.0458,-2.1155,-2.1937,-2.2443,-2.2653,-2.2653,-2.2653,-2.2653,-2.2552,-2.2333,-2.1537,-2.0694,-2.0045,-1.9516,-1.8931,-1.8466,-1.8272,-1.8087,-2.1568,-2.1334,-1.9816,-1.8646,-1.7582,-1.6168,-1.5133,-1.441,-1.4274,-1.4094,-1.3901,-1.3469,-1.3653,-1.4216,-1.4129,0.0,-1.3797,-1.3645,-1.3903,-1.4506,-1.4272,-1.4589,-1.5268,-1.5101,-1.4935,-1.4867,-1.4662,-1.4497,-1.4433,-1.4353,-1.3651,-1.2337,-1.1778,-1.0862,-0.9572,-0.9429,-0.9093,-0.8638,-0.8958,-0.9459,-0.9938,-1.1244,-1.2122,-1.2632,-1.2725,-1.3074,-1.3682,-1.3746,-1.4,-1.4569,-1.4991,-1.5355,-1.5788,0.0,0.0,0.0,0.0,0.0,0.0,0.0,0.0,0.0,0.0,0.0,0.0,0.0,0.0,0.0,-1.2529,0.0,-1.3499,-1.3799,0.0,0.0,0.0,-1.4565,-1.4409,-1.514,-1.5693,-1.5665,0.0,0.0,-1.6588,-1.6588,-1.6393,-1.5927,-1.641,-1.678,-1.68,-1.7497,-1.7989,-1.801,-1.822,-1.8527,-1.8872,-1.9237,-1.9902,-2.1043,-2.153,-2.1928,-2.2443,-2.2653,-2.2653,-2.2653,-2.2653,-2.2653,-2.2653,-2.2053,-2.1492,-2.0928,-2.0313,-1.9702,-1.8986,-1.8542,-1.8272,-2.2176,-2.1593,-2.0815,-1.9718,-1.8414,-1.6813,-1.578,-1.5213,-1.4864,-1.4552,-1.4244,-1.4175,-1.4111,-1.4106,-1.4088,-1.4057,-1.3992,-1.3783,-1.3948,-1.4327,-1.4099,-1.4344,-1.493,-1.4767,-1.4795,-1.4852,-1.4662,-1.4569,-1.4569,-1.4281,-1.3729,-1.2773,-1.1922,-1.0801,-0.9554,-0.9192,-0.8875,-0.8573,-0.8441,-0.8778,-0.9545,-1.06,-1.1427,-1.1857,-1.211,-1.255,-1.3146,-1.34,-1.3928,-1.4569,-1.4991,-1.5346,-1.5805,-1.572,0.0,0.0,0.0,0.0,0.0,0.0,0.0,0.0,0.0,-1.2931,-1.3107,0.0,-1.305,0.0,-1.3042,-1.3294,-1.3836,-1.3931,0.0,0.0,-1.482,-1.4885,-1.4899,-1.5542,-1.5924,-1.5782,-1.6211,-1.6588,-1.6588,-1.6588,-1.6581,-1.6407,-1.6718,-1.7036,-1.7272,-1.7719,-1.806,-1.8276,-1.8541,-1.8891,-1.9157,-1.9747,-2.0506,-2.142,-2.1623,-2.1928,-2.2544,-2.2653,-2.2653,-2.2653,-2.2653,-2.2653,-2.2653,-2.2244,-2.1867,-2.149,-2.0707,-1.9911,-1.9486,-1.9112,-1.8912,-2.2628,-2.2285,-2.1385,-2.0343,-1.9156,-1.7636,-1.6572,-1.5788,-1.5434,-1.5078,-1.4784,-1.4776,-1.4561,-1.4353,-1.4274,-1.4274,-1.4209,-1.3992,-1.4109,-1.4426,-1.4208,-1.4305,-1.4537,-1.4517,-1.45,-1.456,-1.4519,-1.4569,-1.4569,-1.4274,-1.3658,-1.2893,-1.2058,-1.1068,-0.9919,-0.9125,-0.8607,-0.8225,-0.813,-0.8621,-0.953,-1.0368,-1.1027,-1.1588,-1.1907,-1.2369,-1.2961,-1.329,-1.3855,-1.4569,-1.507,-1.5497,-1.5938,-1.6008,-1.5843,0.0,0.0,0.0,0.0,0.0,0.0,0.0,0.0,0.0,0.0,0.0,-1.3411,-1.3548,-1.3563,-1.3768,-1.4463,-1.4627,-1.4866,-1.5145,-1.539,-1.5416,-1.5257,-1.5798,-1.6206,-1.6042,-1.6571,-1.6958,-1.6864,-1.6958,-1.6958,-1.6958,-1.7013,-1.7187,-1.7534,-1.7879,-1.8292,-1.8596,-1.8862,-1.9279,-1.9576,-2.0101,-2.0719,-2.1326,-2.1623,-2.1827,-2.2333,-2.2535,-2.2653,-2.2653,-2.2653,-2.2653,-2.2627,-2.209,-2.1758,-2.1518,-2.0874,-2.0197,-1.9987,-1.9654,-1.9296,-2.3075,-2.2894,-2.1829,-2.0885,-1.998,-1.8682,-1.7383,-1.6202,-1.6008,-1.5647,-1.5204,-1.5204,-1.5015,-1.4776,-1.4712,-1.4664,-1.4558,-1.4359,-1.4359,-1.4636,-1.4388,-1.4298,-1.4298,-1.4298,-1.4215,-1.4137,-1.4281,-1.4497,-1.4569,-1.4281,-1.3744,-1.2969,-1.2215,-1.1357,-1.0406,-0.9231,-0.8322,-0.7671,-0.8038,-0.867,-0.9581,-1.0247,-1.0846,-1.1476,-1.1834,-1.2311,-1.2906,-1.3262,-1.3855,-1.4569,-1.5141,-1.5743,-1.6131,-1.6281,-1.6237,0.0,-1.6014,0.0,0.0,0.0,0.0,0.0,0.0,0.0,0.0,-1.3382,-1.3467,-1.4011,-1.404,-1.4325,-1.5033,-1.5408,-1.5599,-1.5652,-1.5904,-1.5922,-1.5529,-1.6073,-1.6463,-1.6367,-1.693,-1.7333,-1.7333,-1.7333,-1.7333,-1.7239,-1.7246,-1.7384,-1.7527,-1.8003,-1.852,-1.8866,-1.9153,-1.9576,-1.9983,-2.03,-2.0719,-2.1224,-2.1522,-2.1717,-2.2021,-2.2333,-2.2544,-2.2544,-2.2653,-2.2653,-2.2653,-2.1936,-2.1439,-2.15,-2.0831,-2.0335,-2.03,-1.9936,-1.9679,-2.3446,-2.299,-2.2606,-2.1861,-2.0896,-1.9783,-1.8285,-1.67,-1.6351,-1.5929,-1.5426,-1.5275,-1.5306,-1.5577,-1.5585,-1.5601,-1.5694,-1.5181,-1.4954,-1.486,-1.4359,-1.4164,-1.4156,-1.4156,-1.4206,-1.4361,-1.4361,-1.4497,-1.4569,-1.4274,-1.3866,-1.3423,-1.2322,-1.1425,-1.0672,0.0,0.0,0.0,-0.8183,-0.8679,-0.8929,-0.9683,-1.0261,-1.0726,-1.1371,0.0,-1.2459,-1.3155,-1.3855,-1.4569,-1.5141,0.0,0.0,0.0,0.0,0.0,0.0,0.0,0.0,0.0,0.0,0.0,-1.4644,-1.404,-1.3558,-1.3585,-1.3791,-1.434,-1.444,-1.4636,-1.5208,-1.5458,-1.5698,-1.5957,-1.6049,-1.5997,-1.568,-1.6238,-1.6551,-1.647,-1.6938,-1.7326,-1.7333,-1.7333,-1.7333,-1.7333,-1.7333,-1.7392,-1.7652,-1.8083,-1.8411,-1.8833,-1.9405,-1.9975,-2.0086,-2.0506,-2.0917,-2.1224,-2.1326,-2.1522,-2.203,-2.2131,-2.2333,-2.2544,-2.2653,-2.2653,-2.2644,-2.1936,-2.15,-2.1692,-2.0991,-2.0382,-2.0564,-2.0201,-1.9936,-2.3615,0.0,-2.2841,-2.2137,0.0,-2.0594,-1.9456,-1.8048,-1.7003,-1.6378,-1.6062,-1.599,-1.6049,-1.618,-1.6321,-1.6263,-1.6117,-1.5616,-1.5306,-1.5141,-1.4517,-1.4281,-1.4281,-1.4129,-1.4129,-1.4281,-1.4353,-1.4433,-1.4497,-1.4353,-1.4047,-1.3584,-1.2778,-1.2061,-1.1436,-1.0511,-0.9344,-0.775,-0.8035,-0.8473,-0.8931,-0.9477,-1.0013,-1.0613,0.0,0.0,0.0,0.0,0.0,0.0,0.0,0.0,0.0,0.0,0.0,-1.7186,-1.7194,-1.7052,-1.6598,-1.6218,-1.5912,-1.5674,-1.5142,-1.4543,-1.3914,-1.3975,-1.4348,-1.4821,-1.4922,-1.5135,-1.5767,-1.5894,-1.6052,-1.6221,-1.6245,-1.6154,-1.5974,-1.6324,-1.6624,-1.661,-1.7029,-1.7333,-1.7333,-1.7333,-1.7333,-1.7333,-1.7333,-1.7391,-1.756,-1.786,-1.8225,-1.8708,-1.9558,-2.0078,-2.0189,-2.0498,-2.0925,-2.1121,-2.1224,-2.1428,-2.1827,-2.2021,-2.2232,-2.2544,-2.2754,-2.2745,-2.2785,-2.2132,-2.1605,-2.1631,-2.0991,-2.0408,-2.0654,-2.0382,-2.011,-2.37,-2.353,-2.3001,-2.2328,-2.1618,-2.1176,-2.0363,-1.9165,0.0,0.0,0.0,-1.6832,-1.681,-1.6852,-1.6987,-1.6869,-1.6596,-1.5963,-1.5625,-1.5535,-1.4832,-1.4505,-1.4425,-1.4209,-1.4129,-1.4209,-1.4274,-1.4353,-1.4433,-1.4353,-1.415,-1.3683,-1.3256,-1.2692,-1.2036,-1.1452,-1.0279,-0.8748,-0.8351,-0.8631,-0.9455,-0.9724,-1.0208,-1.093,-1.1515,-1.2159,-1.2763,-1.3357,-1.4148,-1.5154,-1.584,-1.6527,-1.7197,-1.7459,-1.7579,-1.7395,-1.7412,-1.726,-1.6868,-1.6492,-1.6175,-1.5864,-1.5553,-1.5068,-1.4474,-1.4631,-1.4914,-1.5403,-1.5499,-1.5767,-1.6363,-1.6476,-1.6476,-1.6476,-1.6476,-1.6402,-1.6193,-1.6528,-1.6733,-1.678,-1.7061,-1.7267,-1.7326,-1.7333,-1.7333,-1.7333,-1.7333,-1.7333,-1.7369,-1.7633,-1.8072,-1.8773,-1.9498,-2.0002,-2.0181,-2.0609,-2.0925,-2.0917,-2.1121,-2.1326,-2.1623,-2.1818,-2.2131,-2.2544,-2.2854,-2.2946,-2.3003,-2.2495,-2.1996,-2.19,-2.1154,-2.0559,-2.0663,-2.0473,-2.0292,-2.3728,-2.3519,-2.315,-2.266,-2.22,-2.1449,-2.0437,-1.9214,-1.834,-1.7658,-1.7125,-1.7375,-1.752,-1.764,-1.7631,-1.7735,-1.7666,-1.6834,-1.6295,-1.5883,-1.517,-1.4721,-1.4569,-1.4425,-1.4425,-1.4497,-1.4281,-1.4274,-1.4497,-1.4274,-1.4106,-1.3966,-1.336,-1.2529,-1.1592,-1.102,-1.0563,-1.0158,-1.0229,-1.0334,-1.0517,-1.0874,-1.1321,-1.1836,-1.2249,-1.2759,-1.3372,-1.3917,-1.465,-1.5311,-1.6144,-1.6843,-1.7433,-1.7786,-1.8082,-1.8241,-1.8196,-1.8117,-1.7797,-1.7548,-1.7227,-1.6587,-1.6335,-1.5975,-1.5458,-1.5435,-1.5572,-1.5973,-1.6152,-1.6257,-1.6394,-1.6566,-1.6648,-1.6648,-1.6648,-1.6566,-1.6409,-1.6683,-1.686,-1.677,-1.6959,-1.7239,-1.726,-1.7318,-1.7333,-1.7333,-1.7333,-1.7333,-1.7377,-1.7611,-1.8162,-1.8914,-1.9426,-1.9898,-2.0341,-2.0719,-2.0925,-2.0925,-2.0917,-2.1121,-2.1623,-2.1725,-2.203,-2.2535,-2.2854,-2.3055,-2.3038,-2.2804,-2.2479,-2.2247,-2.1591,-2.1055,-2.0823,-2.0473,-2.0382,-2.3559,-2.3412,-2.3139,-2.2777,-2.2317,-2.1515,-2.0783,-1.998,-1.9364,-1.8699,-1.806,-1.806,-1.813,-1.8338,-1.8426,-1.8347,-1.8158,-1.7235,-1.6598,-1.6244,-1.5341,-1.4864,-1.4784,-1.4577,-1.4497,-1.4497,-1.4353,-1.4274,-1.4281,-1.4209,-1.4065,-1.392,-1.341,-1.277,-1.2145,-1.186,-1.1646,-1.1279,-1.073,-1.041,-1.0375,-1.0761,-1.1264,-1.1877,-1.2402,-1.3033,-1.3653,-1.4287,-1.4922,-1.5646,-1.6358,-1.6991,-1.7581,-1.8123,-1.8394,-1.8486,-1.8504,-1.8413,-1.8331,-1.7972,-1.7448,-1.6976,-1.6804,-1.6585,-1.6273,-1.6013,-1.6001,-1.6229,-1.6312,-1.6476,-1.6558,-1.6648,-1.673,-1.673,-1.673,-1.6648,-1.6621,-1.6884,-1.7094,-1.6881,-1.7161,-1.739,-1.7261,-1.7309,-1.7326,-1.7333,-1.7333,-1.7333,-1.7333,-1.7559,-1.7986,-1.8783,-1.9275,-1.9844,-2.0341,-2.0719,-2.0925,-2.0925,-2.0925,-2.1121,-2.1623,-2.1725,-2.1928,-2.2443,-2.2955,-2.3155,-2.3247,-2.3135,-2.284,-2.2447,-2.1875,-2.1393,-2.0949,-2.0645,-2.0564,-2.3401,-2.3338,-2.3065,-2.2703,-2.2262,-2.1512,-2.1051,-2.0731,-2.0167,-1.9606,-1.9025,-1.8679,-1.8626,-1.8683,-1.8851,-1.8763,-1.8257,-1.7389,-1.6817,-1.6523,-1.5486,-1.4935,-1.4872,-1.4713,-1.4569,-1.4425,-1.4425,-1.4353,-1.4201,-1.4129,-1.3992,-1.379,-1.3419,-1.3046,-1.2753,-1.2689,-1.2507,-1.2088,-1.1118,-1.0568,-1.0629,-1.1101,-1.1565,-1.2151,-1.2744,-1.3396,-1.4006,-1.4655,-1.5329,-1.5901,-1.6725,-1.7299,-1.7736,-1.8428,-1.8725,-1.8725,-1.8725,-1.8674,-1.8571,-1.8158,-1.7629,-1.7302,-1.7221,-1.7049,-1.6812,-1.6492,-1.6327,-1.6484,-1.6476,-1.6566,-1.6648,-1.673,-1.6812,-1.6812,-1.6812,-1.686,-1.6881,-1.7109,-1.7188,-1.7032,-1.7384,-1.7484,-1.7333,-1.732,-1.7318,-1.7326,-1.7333,-1.7426,-1.7426,-1.7621,-1.8063,-1.8633,-1.9262,-1.9791,-2.0335,-2.068,-2.0909,-2.0925,-2.0925,-2.1121,-2.153,-2.1725,-2.1928,-2.2443,-2.3046,-2.3356,-2.3429,-2.344,-2.3284,-2.2903,-2.2335,-2.1692,-2.1112,-2.0916,-2.0654,-2.3338,-2.3224,-2.2927,-2.2478,-2.2101,-2.1436,-2.1215,-2.1051,-2.0498,-2.0089,-1.9709,-1.9395,-1.9027,-1.8692,-1.878,-1.8603,-1.8372,-1.7329,-1.6834,-1.6514,-1.5615,-1.5062,-1.4944,-1.4721,-1.4569,-1.4569,-1.4425,-1.4353,-1.4353,-1.4137,-1.4,-1.379,-1.3419,-1.32,-1.3127,-1.2788,-1.2499,-1.2271,-1.197,-1.196,-1.2236,-1.2605,-1.292,-1.3108,-1.3712,-1.4219,-1.4545,-1.5231,-1.5741,-1.6147,-1.725,-1.7937,-1.8079,-1.8744,-1.9119,-1.9127,-1.9119,-1.8973,-1.8631,-1.8396,-1.807,-1.7661,-1.7473,-1.731,-1.7057,-1.7049,-1.6894,-1.673,-1.6648,-1.6648,-1.673,-1.6894,-1.7049,-1.7057,-1.7057,-1.7179,-1.733,-1.706,-1.6889,-1.7336,-1.7404,-1.7359,-1.7274,-1.7497,-1.752,-1.7426,-1.7527,-1.7621,-1.7714,-1.79,-1.8287,-1.8861,-1.9314,-1.9771,-2.0316,-2.0726,-2.0885,-2.0925,-2.0925,-2.1121,-2.1522,-2.1725,-2.1937,-2.2434,-2.3046,-2.3356,-2.3555,-2.3692,-2.3843,-2.3368,-2.2758,-2.2137,-2.1318,-2.0997,-2.0916,-2.3254,-2.2861,-2.2756,-2.2478,-2.2035,-2.1425,-2.1215,-2.1128,-2.0586,-2.0186,-1.9863,-1.9627,-1.932,-1.9073,-1.8922,-1.8763,-1.847,-1.756,-1.6985,-1.669,-1.5841,-1.5284,-1.507,-1.4864,-1.4713,-1.4569,-1.4497,-1.4353,-1.4209,-1.392,-1.371,-1.3645,-1.3426,-1.3346,-1.32,-1.29,-1.2755,-1.2709,-1.2565,-1.2619,-1.2824,-1.2758,-1.2894,-1.3287,-1.3926,-1.4497,-1.5036,-1.5602,-1.6171,-1.6707,-1.7556,-1.812,-1.8327,-1.9039,-1.9504,-1.9513,-1.9513,-1.9341,-1.8965,-1.8641,-1.8362,-1.8044,-1.7744,-1.7546,-1.731,-1.7302,-1.7229,-1.7066,-1.6902,-1.673,-1.6894,-1.7049,-1.7139,-1.7221,-1.731,-1.7294,-1.7244,-1.7258,-1.7203,-1.7046,-1.736,-1.759,-1.7466,-1.7667,-1.7863,-1.78,-1.79,-1.79,-1.7908,-1.8187,-1.8435,-1.8707,-1.9223,-1.9881,-2.0329,-2.0694,-2.0885,-2.0925,-2.0925,-2.1121,-2.1318,-2.1623,-2.1827,-2.2232,-2.2846,-2.3247,-2.3347,-2.3628,-2.3826,-2.3505,-2.2875,-2.2208,-2.1563,-2.1284,-2.1203,-2.3106,-2.2616,-2.2606,-2.2338,-2.1873,-2.1425,-2.1128,-2.1051,-2.0576,-2.0186,-1.9863,-1.9715,-1.9548,-1.9301,-1.8993,-1.8772,-1.8523,-1.7665,-1.7156,-1.6858,-1.6024,-1.5463,-1.5213,-1.5007,-1.4792,-1.4649,-1.4497,-1.4408,-1.4179,-1.3917,-1.3748,-1.3748,-1.3762,-1.3688,-1.345,-1.3227,-1.3106,-1.3146,-1.302,-1.3019,-1.326,-1.2962,-1.2975,-1.3362,-1.4042,-1.4622,-1.5042,-1.5789,-1.6438,-1.6904,-1.7814,-1.8427,-1.8613,-1.9419,-1.9898,-1.9898,-1.9889,-1.9727,-1.935,-1.9059,-1.8735,-1.8447,-1.8076,-1.7809,-1.7563,-1.7465,-1.7473,-1.7383,-1.7066,-1.6976,-1.7139,-1.7212,-1.7383,-1.7473,-1.7473,-1.7416,-1.7466,-1.7556,-1.729,-1.706,-1.7541,-1.7819,-1.7714,-1.7972,-1.8087,-1.8087,-1.8179,-1.8179,-1.828,-1.8373,-1.8574,-1.8597,-1.9336,-1.9908,-2.0226,-2.0647,-2.0853,-2.0925,-2.0925,-2.1019,-2.1224,-2.1522,-2.1827,-2.2123,-2.2636,-2.3046,-2.3347,-2.3628,-2.3727,-2.3487,-2.3061,-2.2492,-2.1962,-2.1762,-2.159,-2.2927,-2.2617,-2.2241,-2.1873,-2.1512,-2.1282,-2.1051,-2.0896,-2.0654,-2.0333,-1.9942,-1.9863,-1.9706,-1.9301,-1.8931,-1.8612,-1.839,-1.7761,-1.7252,-1.6935,-1.636,-1.5769,-1.5221,-1.5007,-1.4792,-1.4649,-1.4617,-1.4621,-1.453,-1.4336,-1.4349,-1.4392,-1.437,-1.4314,-1.4044,-1.379,-1.3696,-1.3475,-1.3259,-1.3327,-1.3587,-1.3519,-1.3519,-1.3681,-1.4317,-1.4727,-1.4902,-1.59,-1.6606,-1.6629,-1.8073,-1.896,-1.9026,-1.9782,-2.024,-2.0249,-2.0249,-2.0095,-1.9778,-1.9658,-1.9358,-1.8759,-1.8614,-1.8326,-1.7792,-1.775,-1.7661,-1.7392,-1.7392,-1.7392,-1.7392,-1.7546,-1.7619,-1.77,-1.7691,-1.7769,-1.8071,-1.7491,-1.7343,-1.7487,-1.7642,-1.7976,-1.8286,-1.8257,-1.8179,-1.8179,-1.8381,-1.8481,-1.8465,-1.8651,-1.8735,-1.8862,-1.9368,-1.9868,-1.9955,-2.0496,-2.0869,-2.0925,-2.0925,-2.0925,-2.1224,-2.1522,-2.1818,-2.2123,-2.2535,-2.2946,-2.3347,-2.3574,-2.3637,-2.3587,-2.3432,-2.3061,-2.2428,-2.2327,-2.2108,-2.2703,-2.2252,-2.2025,-2.1731,-2.1512,-2.1282,-2.1051,-2.0916,-2.0576,-2.0255,-1.9942,-1.9794,-1.9478,-1.9082,-1.8851,-1.87,-1.8496,-1.7804,-1.7389,-1.7201,-1.657,-1.6066,-1.5559,-1.5256,-1.4927,-1.4673,-1.4879,-1.4942,-1.4935,-1.4736,-1.4572,-1.4513,-1.4465,-1.4387,-1.4137,-1.3895,-1.3756,-1.3776,-1.3568,-1.3627,-1.3888,-1.3928,-1.4005,-1.4164,-1.4511,-1.4916,-1.5298,-1.6104,-1.6782,-1.7201,-1.8362,-1.9133,-1.9364,-1.9951,-2.0292,-2.0292,-2.0292,-2.0232,-2.0086,-1.9864,-1.9632,-1.9367,-1.9093,-1.8793,-1.8394,-1.8292,-1.8124,-1.7857,-1.7797,-1.7789,-1.7789,-1.7789,-1.7781,-1.7861,-1.787,-1.7912,-1.7843,-1.7539,-1.7286,-1.73,-1.7568,-1.8041,-1.853,-1.8558,-1.855,-1.855,-1.8651,-1.8651,-1.8651,-1.8743,-1.8827,-1.8931,-1.9391,-1.986,-1.986,-2.0464,-2.0917,-2.0917,-2.0925,-2.0925,-2.1121,-2.142,-2.1725,-2.1928,-2.2333,-2.2837,-2.3147,-2.3529,-2.3664,-2.3642,-2.3505,-2.3428,-2.2841,-2.2749,-2.2529,-2.2402,-2.2035,-2.1807,-2.1578,-2.1359,-2.1205,-2.0984,-2.0673,-2.043,-2.0098,-1.9794,-1.9557,-1.932,-1.9002,-1.8692,-1.8612,-1.8505,-1.7933,-1.7586,-1.7441,-1.6944,-1.6495,-1.5989,-1.5683,-1.5332,-1.5006,-1.5213,-1.537,-1.5366,-1.5154,-1.4971,-1.4931,-1.4859,-1.4612,-1.4365,-1.4191,-1.4075,-1.4008,-1.3788,-1.3888,-1.4068,-1.4088,-1.4243,-1.4482,-1.465,-1.4916,-1.5412,-1.6286,-1.6934,-1.7451,-1.8522,-1.9414,-1.982,-2.0119,-2.0292,-2.0292,-2.0292,-2.0292,-2.0266,-2.0052,-1.9872,-1.9655,-1.9504,-1.9196,-1.8836,-1.8656,-1.8459,-1.8254,-1.8083,-1.8031,-1.7951,-1.787,-1.7861,-1.7951,-1.8031,-1.7951,-1.7781,-1.7627,-1.7516,-1.7538,-1.7664,-1.8065,-1.8653,-1.8796,-1.8735,-1.8827,-1.8827,-1.8827,-1.8827,-1.8827,-1.8827,-1.8875,-1.9304,-1.9685,-1.9868,-2.0345,-2.0805,-2.0869,-2.0917,-2.0925,-2.1019,-2.1326,-2.1623,-2.1725,-2.2131,-2.2535,-2.2937,-2.3447,-2.3592,-2.3572,-2.366,-2.3694,-2.3354,-2.3153,-2.282,-2.1959,-2.1807,-2.1578,-2.1349,-2.1205,-2.0974,-2.0664,-2.0342,-2.0274,-1.9951,-1.9557,-1.939,-1.9152,-1.8922,-1.8523,-1.8362,-1.8273,-1.7989,-1.7738,-1.7526,-1.7424,-1.6978,-1.6319,-1.616,-1.5992,-1.5634,-1.5666,-1.5794,-1.5895,-1.5671,-1.5551,-1.5569,-1.5418,-1.5051,-1.4706,-1.4643,-1.4441,-1.4216,-1.4041,-1.4068,-1.4088,-1.4088,-1.425,-1.4566,-1.465,-1.4853,-1.5147,-1.6376,-1.7064,-1.7282,-1.8643,-1.9737,-2.011,-2.0292,-2.0292,-2.0292,-2.0292,-2.0292,-2.0292,-2.0266,-2.0086,-1.9872,-1.9761,-1.9581,-1.9213,-1.8896,-1.8674,-1.8562,-1.8331,-1.8108,-1.81,-1.801,-1.7993,-1.8031,-1.8031,-1.7959,-1.7951,-1.7797,-1.7813,-1.7985,-1.7969,-1.8089,-1.8605,-1.8827,-1.8827,-1.8827,-1.8827,-1.8827,-1.8827,-1.8827,-1.8827,-1.8883,-1.9193,-1.955,-1.9852,-2.0162,-2.0527,-2.0813,-2.0885,-2.0925,-2.0917,-2.1224,-2.153,-2.1733,-2.2139,-2.2544,-2.2946,-2.3347,-2.3546,-2.3601,-2.3817,-2.3861,-2.3553,-2.322,-2.3135,-2.1655,-2.1578,-2.1359,-2.1205,-2.0974,-2.0741,-2.0566,-2.0274,-1.9951,-1.9636,-1.939,-1.9152,-1.8913,-1.8603,-1.8282,-1.8031,-1.7861,-1.7708,-1.7641,-1.7755,-1.7446,-1.712,-1.6735,-1.628,-1.6057,-1.6007,-1.6039,-1.6142,-1.6184,-1.5993,-1.5906,-1.5726,-1.5506,-1.5257,-1.4992,-1.4824,-1.4566,-1.4328,-1.4166,-1.4088,-1.4088,-1.4088,-1.425,-1.4482,-1.465,-1.4916,-1.5419,-1.6424,-1.709,-1.7407,-1.8482,-1.9379,-1.9928,-2.0201,-2.0292,-2.0292,-2.0292,-2.0292,-2.0292,-2.0292,-2.0249,-2.0138,-2.0112,-1.9941,-1.9632,-1.9444,-1.9239,-1.9042,-1.887,-1.8733,-1.8485,-1.8417,-1.8323,-1.8066,-1.8031,-1.804,-1.801,-1.7935,-1.7969,-1.8046,-1.8161,-1.8327,-1.8684,-1.8827,-1.8827,-1.8827,-1.8827,-1.8827,-1.8827,-1.8827,-1.8827,-1.8859,-1.9177,-1.9495,-1.982,-2.0162,-2.0512,-2.079,-2.079,-2.0925,-2.0917,-2.1019,-2.1326,-2.1733,-2.2139,-2.2443,-2.2846,-2.3147,-2.3356,-2.3456,-2.3601,-2.3538,-2.3493,-2.3341,-2.325,-2.1349,-2.1359,-2.1128,-2.0886,-2.0741,-2.0498,-2.0264,-2.0029,-1.9636,-1.9399,-1.9143,-1.8913,-1.8603,-1.8273,-1.8031,-1.7789,-1.7619,-1.7473,-1.7554,-1.7691,-1.7498,-1.7213,-1.6949,-1.6515,-1.6332,-1.6357,-1.6397,-1.6427,-1.6468,-1.6245,-1.5997,-1.5831,-1.559,-1.5264,-1.509,-1.4824,-1.4566,-1.4398,-1.425,-1.4088,-1.4088,-1.4088,-1.4159,-1.4419,-1.4677,-1.5155,-1.5727,-1.6485,-1.7101,-1.7689,-1.8545,-1.9371,-1.9837,-2.011,-2.0292,-2.0292,-2.0292,-2.0292,-2.0292,-2.0292,-2.0292,-2.0292,-2.0292,-2.0198,-1.9958,-1.9855,-1.9615,-1.9444,-1.9239,-1.9076,-1.8862,-1.8811,-1.8691,-1.8494,-1.8194,-1.8126,-1.8138,-1.8037,-1.8083,-1.8311,-1.8346,-1.8454,-1.8716,-1.8827,-1.8827,-1.8827,-1.8827,-1.8827,-1.8827,-1.8827,-1.8827,-1.8907,-1.9161,-1.9487,-1.9723,-2.0071,-2.0411,-2.064,-2.0814,-2.0822,-2.0925,-2.1019,-2.1224,-2.1623,-2.203,-2.2333,-2.2745,-2.2946,-2.3147,-2.3247,-2.3347,-2.3411,-2.3466,-2.3393,-2.3359,-2.1128,-2.1128,-2.0731,-2.0566,-2.0489,-2.0098,-1.9784,-1.9557,-1.9311,-1.9152,-1.8913,-1.8603,-1.8201,-1.7951,-1.7781,-1.7546,-1.7392,-1.731,-1.731,-1.731,-1.7269,-1.7172,-1.6976,-1.67,-1.6627,-1.6675,-1.669,-1.6714,-1.6648,-1.6252,-1.6095,-1.6004,-1.559,-1.5347,-1.509,-1.4824,-1.465,-1.4482,-1.4243,-1.4088,-1.4088,-1.4088,-1.4186,-1.4453,-1.4864,-1.5423,-1.5946,-1.6621,-1.7152,-1.775,-1.8776,-1.9487,-1.9845,-2.0119,-2.0292,-2.0292,-2.0292,-2.0292,-2.0292,-2.0292,-2.0292,-2.0382,-2.0292,-2.0292,-2.0206,-1.9992,-1.9829,-1.9761,-1.9513,-1.929,-1.923,-1.9204,-1.917,-1.9085,-1.8588,-1.8391,-1.8571,-1.8272,-1.8382,-1.8748,-1.8588,-1.8446,-1.8788,-1.8827,-1.8827,-1.8827,-1.8827,-1.8827,-1.8827,-1.8827,-1.8827,-1.8962,-1.9161,-1.9391,-1.9626,-1.9972,-2.031,-2.0578,-2.0727,-2.0822,-2.0925,-2.1019,-2.1121,-2.1522,-2.1928,-2.2232,-2.2434,-2.2636,-2.2846,-2.2946,-2.3155,-2.3356,-2.3356,-2.3256,-2.3247,-2.0731,-2.0722,-2.0255,-2.0098,-2.002,-1.9618,-1.9381,-1.9311,-1.9002,-1.8763,-1.8523,-1.8282,-1.7959,-1.7789,-1.7375,-1.7212,-1.7139,-1.6976,-1.6902,-1.6902,-1.6902,-1.6894,-1.6812,-1.673,-1.673,-1.673,-1.6648,-1.673,-1.6656,-1.6252,-1.6095,-1.6087,-1.559,-1.5347,-1.5257,-1.4908,-1.4657,-1.4566,-1.4243,-1.4088,-1.4102,-1.4102,-1.4195,-1.4482,-1.4843,-1.5415,-1.6056,-1.6948,-1.7587,-1.7957,-1.858,-1.9204,-1.9671,-1.9845,-2.011,-2.0292,-2.0292,-2.0292,-2.0292,-2.0292,-2.0382,-2.0564,-2.0382,-2.0382,-2.0564,-2.0296,-2.0146,-2.0129,-2.0026,-1.9864,-1.9658,-1.959,-1.9487,-1.9213,-1.8999,-1.8905,-1.8939,-1.8841,-1.8836,-1.8921,-1.8797,-1.8708,-1.8788,-1.8827,-1.8827,-1.8827,-1.8827,-1.8827,-1.8827,-1.8827,-1.8827,-1.8939,-1.9137,-1.9296,-1.9536,-1.9881,-2.0202,-2.0405,-2.0624,-2.0719,-2.0814,-2.1019,-2.1224,-2.142,-2.1623,-2.1928,-2.2123,-2.2325,-2.2434,-2.2644,-2.2854,-2.2946,-2.2854,-2.2754,-2.2854,-2.0333,-2.0255,-1.9854,-1.9627,-1.9627,-1.9222,-1.9082,-1.9002,-1.8603,-1.8371,-1.8201,-1.7878,-1.7627,-1.7456,-1.7221,-1.7057,-1.6894,-1.6738,-1.673,-1.673,-1.673,-1.673,-1.673,-1.673,-1.673,-1.6648,-1.6566,-1.6574,-1.6484,-1.6154,-1.5997,-1.5831,-1.559,-1.5431,-1.534,-1.4908,-1.4741,-1.465,-1.4334,-1.4135,-1.4255,-1.4269,-1.4429,-1.4764,-1.5089,-1.5673,-1.648,-1.7066,-1.7628,-1.8079,-1.8542,-1.9012,-1.9387,-1.9754,-1.9928,-2.011,-2.0201,-2.0292,-2.0292,-2.0292,-2.0382,-2.0473,-2.0473,-2.0473,-2.0564,-2.0473,-2.0473,-2.0275,-2.0292,-2.018,-2.0043,-1.9975,-1.9872,-1.9727,-1.9641,-1.9581,-1.9349,-1.9046,-1.9084,-1.906,-1.8967,-1.8827,-1.8827,-1.8827,-1.8827,-1.8827,-1.8827,-1.8827,-1.8827,-1.8827,-1.8843,-1.8931,-1.913,-1.9429,-1.9571,-1.9806,-1.9968,-2.0254,-2.0411,-2.0506,-2.0814,-2.1019,-2.1121,-2.1216,-2.142,-2.1623,-2.1818,-2.2021,-2.2224,-2.2333,-2.2443,-2.2561,-2.2569,-2.2653,-2.2653,-1.9784,-1.9784,-1.939,-1.9222,-1.9152,-1.8763,-1.8612,-1.8531,-1.8121,-1.7951,-1.7878,-1.7554,-1.7302,-1.7057,-1.7057,-1.6894,-1.6738,-1.6738,-1.673,-1.6648,-1.6648,-1.6648,-1.6648,-1.6648,-1.6648,-1.6566,-1.6394,-1.6402,-1.626,-1.5937,-1.5808,-1.5784,-1.5632,-1.5555,-1.5466,-1.5071,-1.4846,-1.4739,-1.444,-1.4382,-1.4536,-1.4576,-1.4716,-1.508,-1.5558,-1.6061,-1.6584,-1.6979,-1.7355,-1.7986,-1.845,-1.8859,-1.9228,-1.9629,-1.9962,-2.0079,-2.028,-2.0312,-2.0352,-2.0352,-2.0292,-2.0382,-2.0564,-2.0564,-2.0473,-2.0564,-2.0473,-2.0292,-2.0292,-2.0266,-2.0249,-2.0266,-2.0223,-2.0155,-2.0215,-1.9923,-1.9533,-1.9173,-1.9118,-1.9131,-1.9004,-1.8827,-1.8827,-1.8827,-1.8827,-1.8827,-1.8827,-1.8827,-1.8827,-1.8827,-1.8827,-1.8851,-1.917,-1.9513,-1.9636,-1.9845,-1.9872,-1.9887,-2.0197,-2.0403,-2.0712,-2.0917,-2.1019,-2.1121,-2.1224,-2.1428,-2.1623,-2.1827,-2.1945,-2.2131,-2.2232,-2.2477,-2.2612,-2.2569,-2.2653,-1.939,-1.9152,-1.8931,-1.8763,-1.8594,-1.8282,-1.804,-1.7968,-1.7652,-1.7621,-1.749,-1.7327,-1.7172,-1.709,-1.6958,-1.673,-1.6794,-1.6711,-1.673,-1.6648,-1.6566,-1.6484,-1.65,-1.6531,-1.6425,-1.6268,-1.6177,-1.6185,-1.6148,-1.6193,-1.6122,-1.6067,-1.6073,-1.6075,-1.5784,-1.5559,-1.5381,-1.5211,-1.4926,-1.4763,-1.4836,-1.4883,-1.5003,-1.5291,-1.5765,-1.6135,-1.6386,-1.6791,-1.716,-1.7527,-1.8031,-1.8637,-1.9161,-1.9601,-2.0005,-2.0515,-2.0491,-2.0568,-2.0703,-2.0497,-2.0391,-2.0598,-2.049,-2.0473,-2.0564,-2.0473,-2.0382,-2.0292,-2.0292,-2.0292,-2.0292,-2.0292,-2.0292,-2.0292,-2.011,-1.9903,-1.9654,-1.9538,-1.9389,-1.9163,-1.8912,-1.8827,-1.8827,-1.8827,-1.8827,-1.8827,-1.8827,-1.8827,-1.8827,-1.8827,-1.8875,-1.8907,-1.9178,-1.9493,-1.9575,-1.9682,-1.9641,-1.968,-1.999,-2.0197,-2.0403,-2.0712,-2.0814,-2.0917,-2.1027,-2.113,-2.1326,-2.1493,-2.1722,-2.1877,-2.208,-2.2299,-2.2562,-2.257,-2.267,-1.9379,-1.9215,-1.8985,-1.8737,-1.8571,-1.8304,-1.8138,-1.7962,-1.7811,-1.7736,-1.7652,-1.7467,-1.7467,-1.7391,-1.7307,-1.7231,-1.7215,-1.7054,-1.7062,-1.6985,-1.6815,-1.6638,-1.6537,-1.6514,-1.6492,-1.6285,-1.624,-1.6216,-1.6312,-1.6268,-1.6292,-1.6292,-1.6309,-1.6066,-1.5938,-1.5686,-1.5479,-1.5294,-1.5149,-1.5017,-1.5144,-1.5177,-1.5304,-1.5545,-1.5859,-1.6082,-1.6423,-1.6731,-1.7095,-1.7558,-1.7978,-1.8441,-1.909,-1.9511,-2.0087,-2.0465,-2.0791,-2.076,-2.0857,-2.0712,-2.0666,-2.0732,-2.0594,-2.0499,-2.0564,-2.0473,-2.0473,-2.0292,-2.0292,-2.0292,-2.0292,-2.0292,-2.0292,-2.0292,-2.0019,-1.9845,-1.9671,-1.9479,-1.9296,-1.9096,-1.892,-1.8827,-1.8827,-1.8827,-1.8827,-1.8827,-1.8827,-1.8827,-1.8827,-1.8851,-1.8994,-1.9051,-1.927,-1.945,-1.9414,-1.9502,-1.9487,-1.9583,-1.968,-1.9887,-2.0094,-2.03,-2.0601,-2.0719,-2.0941,-2.0925,-2.113,-2.1312,-2.1569,-2.1816,-2.2072,-2.2345,-2.2492,-2.2426,-2.2536,-1.9504,-1.9221,-1.9059,-1.8904,-1.8654,-1.8448,-1.8329,-1.8259,-1.8118,-1.7951,-1.8032,-1.7858,-1.7746,-1.7739,-1.7715,-1.7755,-1.766,-1.7383,-1.7226,-1.7147,-1.6972,-1.679,-1.671,-1.6608,-1.6498,-1.6485,-1.6253,-1.6285,-1.6448,-1.6426,-1.6263,-1.6277,-1.626,-1.609,-1.5944,-1.5652,-1.554,-1.5372,-1.5288,-1.5257,-1.5424,-1.5464,-1.5591,-1.5745,-1.5905,-1.6128,-1.6511,-1.671,-1.7043,-1.7796,-1.8151,-1.852,-1.9,-1.9563,-2.0011,-2.0329,-2.0703,-2.0937,-2.0933,-2.0933,-2.0738,-2.0857,-2.0698,-2.0499,-2.0382,-2.0473,-2.0473,-2.0382,-2.0292,-2.0292,-2.0292,-2.0292,-2.0292,-2.0201,-2.0019,-1.9754,-1.9579,-1.9288,-1.9012,-1.892,-1.8827,-1.8827,-1.8827,-1.8827,-1.8827,-1.8827,-1.8827,-1.8835,-1.8843,-1.8939,-1.9105,-1.9265,-1.9466,-1.9392,-1.937,-1.9358,-1.9339,-1.9376,-1.9583,-1.9695,-1.9791,-1.999,-2.03,-2.064,-2.0862,-2.0893,-2.1131,-2.1547,-2.1764,-2.1909,-2.1965,-2.2133,-2.2217,-2.2264,-2.2401,-1.8818,-1.8543,-1.8535,-1.8378,-1.8221,-1.8135,-1.808,-1.7945,-1.7922,-1.7866,-1.789,-1.7874,-1.7826,-1.7803,-1.7779,-1.77,-1.7523,-1.729,-1.7178,-1.7082,-1.6906,-1.6728,-1.6662,-1.6417,-1.6349,-1.6414,-1.621,-1.613,-1.6217,-1.6166,-1.6211,-1.619,-1.6359,-1.6371,-1.6185,-1.6067,-1.5798,-1.5665,-1.5578,-1.5645,-1.5685,-1.5718,-1.5758,-1.5885,-1.6052,-1.6323,-1.6444,-1.683,-1.7073,-1.7341,-1.7973,-1.8455,-1.8929,-1.9576,-2.0123,-2.0551,-2.074,-2.0917,-2.1048,-2.0824,-2.0592,-2.0517,-2.0465,-2.0417,-2.03,-2.0382,-2.0382,-2.0382,-2.0292,-2.0292,-2.0292,-2.0292,-2.0201,-2.0027,-1.9754,-1.9571,-1.9288,-1.9104,-1.892,-1.8827,-1.8827,-1.8827,-1.8827,-1.8827,-1.8827,-1.8827,-1.8827,-1.8891,-1.8947,-1.9105,-1.9304,-1.9406,-1.9548,-1.9482,-1.9361,-1.9376,-1.9272,-1.9272,-1.9383,-1.9524,-1.9613,-1.9687,-2.0013,-2.0508,-2.0914,-2.1073,-2.1352,-2.1648,-2.1754,-2.1827,-2.1861,-2.1981,-2.2059,-2.2022,-2.2162,-1.9051,-1.8848,-1.884,-1.8669,-1.8498,-1.8506,-1.8409,-1.8311,-1.8319,-1.8229,-1.8147,-1.8147,-1.8049,-1.7959,-1.7951,-1.7869,-1.7673,-1.7515,-1.7341,-1.7341,-1.7069,-1.6887,-1.6766,-1.6408,-1.6409,-1.6487,-1.6303,-1.612,-1.6338,-1.6373,-1.6337,-1.6385,-1.6438,-1.6312,-1.6218,-1.6001,-1.5933,-1.5825,-1.5825,-1.5832,-1.5832,-1.5838,-1.5892,-1.6072,-1.6219,-1.642,-1.6827,-1.6935,-1.7333,-1.7579,-1.7929,-1.8405,-1.8832,-1.936,-1.9918,-2.0546,-2.0766,-2.0982,-2.1219,-2.0974,-2.0853,-2.0769,-2.0526,-2.0405,-2.0352,-2.0292,-2.0292,-2.0292,-2.0292,-2.0292,-2.0292,-2.0201,-2.0019,-1.9837,-1.9571,-1.9379,-1.9196,-1.8912,-1.8819,-1.8735,-1.8827,-1.8827,-1.8827,-1.8827,-1.8827,-1.8827,-1.8827,-1.8923,-1.9042,-1.9256,-1.9487,-1.9564,-1.9583,-1.9524,-1.9332,-1.9354,-1.9272,-1.9272,-1.9345,-1.9486,-1.9672,-1.9702,-2.0068,-2.0476,-2.0849,-2.1069,-2.1368,-2.1731,-2.1684,-2.1719,-2.1682,-2.1772,-2.1779,-2.1898,-2.1886,-1.9296,-1.9096,-1.9096,-1.9012,-1.8743,-1.8735,-1.8727,-1.8643,-1.8619,-1.8519,-1.8481,-1.8357,-1.8241,-1.8064,-1.8064,-1.7978,-1.7994,-1.7692,-1.7483,-1.7375,-1.7095,-1.6943,-1.6871,-1.669,-1.6459,-1.623,-1.6149,-1.6211,-1.6317,-1.6344,-1.6379,-1.6271,-1.6109,-1.6123,-1.6028,-1.5927,-1.5825,-1.5825,-1.5825,-1.5845,-1.5905,-1.5932,-1.6019,-1.6286,-1.638,-1.6673,-1.6914,-1.7154,-1.7425,-1.7789,-1.7982,-1.8213,-1.8653,-1.9078,-1.9487,-2.0205,-2.0514,-2.0814,-2.1025,-2.107,-2.0892,-2.0873,-2.062,-2.0449,-2.0314,-2.0195,-2.0201,-2.0292,-2.0292,-2.0292,-2.0201,-2.0027,-1.9837,-1.9646,-1.9371,-1.9096,-1.892,-1.8827,-1.8643,-1.8651,-1.8743,-1.8735,-1.8735,-1.8827,-1.8827,-1.8827,-1.8827,-1.9026,-1.9169,-1.932,-1.9539,-1.9699,-1.9732,-1.9538,-1.9368,-1.9264,-1.9272,-1.9272,-1.9418,-1.9641,-1.9773,-1.9891,-2.0197,-2.0614,-2.0831,-2.1171,-2.1449,-2.1642,-2.1695,-2.1577,-2.1494,-2.1409,-2.1434,-2.1425,-2.1431,-1.892,-1.8827,-1.8827,-1.8743,-1.8566,-1.8574,-1.8373,-1.8179,-1.8179,-1.8288,-1.8295,-1.8187,-1.7978,-1.7785,-1.7707,-1.7721,-1.7628,-1.7347,-1.7073,-1.7066,-1.6784,-1.6588,-1.6588,-1.6414,-1.6116,-1.5927,-1.5737,-1.5737,-1.5825,-1.592,-1.5832,-1.5737,-1.5832,-1.5832,-1.5832,-1.5832,-1.5825,-1.5825,-1.5825,-1.5939,-1.6132,-1.6172,-1.6233,-1.6406,-1.6707,-1.6954,-1.6981,-1.7261,-1.7634,-1.766,-1.7911,-1.8016,-1.8227,-1.8653,-1.9078,-1.948,-1.9887,-2.0292,-2.0562,-2.0545,-2.0616,-2.0752,-2.0687,-2.0429,-2.0287,-2.0046,-2.0078,-2.0292,-2.0292,-2.011,-2.0027,-1.9928,-1.9654,-1.9379,-1.9104,-1.8735,-1.8651,-1.855,-1.8458,-1.8465,-1.8558,-1.8643,-1.8643,-1.8735,-1.8827,-1.8827,-1.8883,-1.9098,-1.9288,-1.9403,-1.9489,-1.9727,-1.9648,-1.9443,-1.9376,-1.9272,-1.9345,-1.9323,-1.9491,-1.9703,-1.9952,-2.0142,-2.034,-2.0707,-2.0928,-2.1042,-2.1038,-2.1217,-2.1441,-2.1454,-2.1254,-2.1122,-2.102,-2.1043,-2.1121,-1.8179,-1.8473,-1.8465,-1.8373,-1.828,-1.828,-1.8187,-1.8087,-1.8087,-1.8094,-1.8016,-1.7714,-1.7419,-1.7225,-1.7052,-1.7066,-1.7059,-1.6871,-1.6777,-1.6683,-1.6501,-1.6305,-1.6109,-1.5927,-1.5642,-1.5458,-1.5261,-1.5172,-1.5261,-1.5356,-1.5356,-1.5356,-1.5547,-1.5635,-1.5635,-1.5737,-1.5825,-1.5825,-1.5737,-1.5695,-1.584,-1.5901,-1.5967,-1.6328,-1.6744,-1.7012,-1.7248,-1.7388,-1.7582,-1.7582,-1.7799,-1.7911,-1.8016,-1.8233,-1.8555,-1.9078,-1.9279,-1.9687,-2.0174,-2.024,-2.0405,-2.0532,-2.0531,-2.0403,-2.0342,-2.0185,-2.0054,-2.0146,-1.9954,-1.9887,-1.9787,-1.9563,-1.9288,-1.902,-1.879,-1.8566,-1.8288,-1.828,-1.8179,-1.828,-1.8396,-1.8512,-1.8644,-1.8769,-1.8776,-1.8838,-1.8902,-1.9178,-1.9369,-1.9506,-1.9573,-1.9648,-1.9546,-1.9376,-1.9376,-1.9279,-1.9462,-1.9513,-1.963,-1.9886,-2.0274,-2.0516,-2.0669,-2.083,-2.1016,-2.1048,-2.0816,-2.0869,-2.1163,-2.1085,-2.0961,-2.0892,-2.0846,-2.0941,-2.1019,-1.7426,-1.7815,-1.79,-1.79,-1.7815,-1.7807,-1.7807,-1.7714,-1.7714,-1.7621,-1.7448,-1.7246,-1.6857,-1.6676,-1.6683,-1.6683,-1.6588,-1.6494,-1.6393,-1.6305,-1.6116,-1.5832,-1.5642,-1.5452,-1.5267,-1.4987,-1.4981,-1.4885,-1.4783,-1.4783,-1.4885,-1.4981,-1.5267,-1.5356,-1.5452,-1.5547,-1.5547,-1.5553,-1.5549,-1.5538,-1.5661,-1.571,-1.6021,-1.624,-1.6581,-1.6912,-1.7239,-1.7463,-1.7483,-1.7582,-1.7582,-1.7694,-1.7905,-1.8016,-1.8233,-1.8653,-1.8862,-1.9175,-1.9687,-1.9826,-2.0043,-2.0187,-2.03,-2.0333,-2.0419,-2.0262,-2.0231,-2.0239,-2.0083,-1.9934,-1.9674,-1.9503,-1.9284,-1.898,-1.8629,-1.8279,-1.8039,-1.7976,-1.7968,-1.8047,-1.8186,-1.8387,-1.8511,-1.8746,-1.8832,-1.8769,-1.8981,-1.9325,-1.9467,-1.9539,-1.9611,-1.9576,-1.9472,-1.939,-1.9308,-1.9352,-1.9528,-1.974,-1.9857,-2.0084,-2.0479,-2.075,-2.0925,-2.1086,-2.1196,-2.0837,-2.0604,-2.0798,-2.0848,-2.0574,-2.0462,-2.0599,-2.0617,-2.0846,-2.0956,-1.6574,-1.6452,-1.7037,-1.7239,-1.7073,-1.7073,-1.6972,-1.6871,-1.6777,-1.6777,-1.6791,-1.648,-1.6372,-1.6487,-1.64,-1.6494,-1.6487,-1.6109,-1.592,-1.573,-1.5452,-1.5267,-1.5172,-1.5077,-1.4981,-1.479,-1.4694,-1.4592,-1.44,-1.4496,-1.4592,-1.4694,-1.4981,-1.5083,-1.5198,-1.5223,-1.5332,-1.539,-1.5434,-1.5573,-1.5776,-1.591,-1.6099,-1.6304,-1.6507,-1.6714,-1.6814,-1.7147,-1.7384,-1.7589,-1.7582,-1.7589,-1.7694,-1.7799,-1.8016,-1.8233,-1.8548,-1.8862,-1.9063,-1.9472,-1.9872,-2.0066,-2.0116,-2.0147,-2.0353,-2.0239,-2.0257,-2.0393,-2.0158,-2.0158,-1.9999,-1.9862,-1.9327,-1.8931,-1.8544,-1.8286,-1.8013,-1.772,-1.7705,-1.7834,-1.8025,-1.8308,-1.8563,-1.875,-1.8881,-1.8915,-1.8947,-1.9276,-1.9375,-1.9463,-1.9472,-1.948,-1.9376,-1.9294,-1.9345,-1.9477,-1.9711,-2.0003,-2.0216,-2.042,-2.0706,-2.0925,-2.1101,-2.1145,-2.1174,-2.0779,-2.0479,-2.0611,-2.0584,-2.0091,-2.0021,-2.0343,-2.074,-2.0898,-2.0947,-1.554,-1.5425,-1.5825,-1.6305,-1.6777,-1.6784,-1.6683,-1.6581,-1.6386,-1.6197,-1.592,-1.5596,-1.5507,-1.5635,-1.5648,-1.5648,-1.5648,-1.5458,-1.5369,-1.5363,-1.5172,-1.4987,-1.4987,-1.4808,-1.4688,-1.4496,-1.449,-1.4394,-1.4298,-1.4298,-1.4394,-1.449,-1.4712,-1.479,-1.491,-1.5158,-1.5325,-1.531,-1.5381,-1.5614,-1.5607,-1.5754,-1.5909,-1.6043,-1.628,-1.658,-1.6721,-1.7009,-1.7265,-1.7391,-1.7496,-1.7635,-1.7649,-1.7748,-1.786,-1.7973,-1.8401,-1.8499,-1.8681,-1.9189,-1.9576,-1.9864,-1.9964,-2.0084,-2.0147,-1.9992,-2.0035,-2.0047,-1.9921,-1.9873,-1.9786,-1.9478,-1.9197,-1.8836,-1.8581,-1.8312,-1.8111,-1.7808,-1.7794,-1.8001,-1.823,-1.8499,-1.8648,-1.8882,-1.8882,-1.8995,-1.9155,-1.9197,-1.9358,-1.945,-1.9457,-1.9449,-1.936,-1.9499,-1.9564,-1.9725,-1.9916,-2.0223,-2.0545,-2.0735,-2.0911,-2.1035,-2.1174,-2.1203,-2.1174,-2.0903,-2.0698,-2.07,-2.0441,-1.9978,-2.0084,-2.031,-2.0688,-2.1051,-2.1125,-1.4968,-1.486,-1.4975,-1.5452,-1.6116,-1.6123,-1.6116,-1.6116,-1.5913,-1.573,-1.5255,-1.5032,-1.4949,-1.5077,-1.5083,-1.5178,-1.5178,-1.5089,-1.5044,-1.5088,-1.5036,-1.4914,-1.4721,-1.4709,-1.4606,-1.434,-1.4298,-1.4298,-1.4298,-1.4298,-1.437,-1.4516,-1.4624,-1.4734,-1.4795,-1.5072,-1.5419,-1.5382,-1.5462,-1.5509,-1.5462,-1.5579,-1.5737,-1.5965,-1.6137,-1.6299,-1.6543,-1.6825,-1.7116,-1.7368,-1.7615,-1.7762,-1.7869,-1.7849,-1.7956,-1.8063,-1.8276,-1.8376,-1.8568,-1.8933,-1.9294,-1.9569,-1.9768,-1.996,-1.9922,-1.9872,-1.9953,-2.0031,-1.9737,-1.9476,-1.9659,-1.9568,-1.9284,-1.9024,-1.8758,-1.8585,-1.8331,-1.8123,-1.816,-1.8294,-1.8434,-1.8659,-1.877,-1.891,-1.9056,-1.9089,-1.9216,-1.9286,-1.9295,-1.9457,-1.9427,-1.9418,-1.9491,-1.9659,-1.9842,-2.0084,-2.0303,-2.045,-2.0742,-2.0933,-2.1101,-2.1189,-2.1211,-2.1211,-2.1145,-2.1035,-2.0874,-2.0684,-2.0369,-1.9968,-2.0248,-2.0505,-2.0627,-2.0987,-2.1156,-1.4765,-1.486,-1.4981,-1.5077,-1.5077,-1.5172,-1.5172,-1.5267,-1.5172,-1.5077,-1.4981,-1.4879,-1.4885,-1.4994,-1.4827,-1.4858,-1.4877,-1.4774,-1.4777,-1.4857,-1.4734,-1.4672,-1.4654,-1.4612,-1.4449,-1.4334,-1.4304,-1.431,-1.434,-1.437,-1.4479,-1.4672,-1.4745,-1.4838,-1.4745,-1.4974,-1.5095,-1.5137,-1.5366,-1.5567,-1.5646,-1.5716,-1.5913,-1.601,-1.6035,-1.6184,-1.6516,-1.6748,-1.7041,-1.7392,-1.7766,-1.7954,-1.8207,-1.8337,-1.833,-1.842,-1.855,-1.8796,-1.8803,-1.8851,-1.9067,-1.933,-1.9554,-1.9687,-1.9783,-1.9842,-2.001,-1.9941,-1.9831,-1.9854,-1.9907,-1.9789,-1.9381,-1.9175,-1.9006,-1.8846,-1.8599,-1.8525,-1.8577,-1.8606,-1.8694,-1.8803,-1.8899,-1.9008,-1.914,-1.9295,-1.9235,-1.9279,-1.939,-1.9493,-1.9477,-1.9572,-1.9674,-1.9945,-2.0172,-2.0464,-2.0676,-2.0801,-2.0918,-2.1079,-2.1159,-2.1196,-2.1211,-2.1211,-2.1167,-2.1101,-2.0925,-2.0735,-2.0582,-2.0376,-2.0397,-2.0572,-2.0798,-2.0974,-2.1205,-1.3919,-1.3913,-1.4022,-1.4022,-1.4124,-1.4598,-1.479,-1.4783,-1.4496,-1.4208,-1.4016,-1.4022,-1.4022,-1.4063,-1.4308,-1.4374,-1.4299,-1.4395,-1.4524,-1.4518,-1.4313,-1.4325,-1.4394,-1.4404,-1.4237,-1.4328,-1.431,-1.4455,-1.4588,-1.457,-1.4733,-1.4932,-1.5113,-1.5125,-1.5095,-1.5221,-1.5366,-1.5415,-1.5602,-1.5759,-1.5771,-1.5861,-1.5982,-1.6133,-1.6151,-1.6332,-1.6582,-1.6827,-1.7098,-1.7331,-1.7719,-1.8086,-1.8197,-1.8308,-1.843,-1.829,-1.8312,-1.8306,-1.8347,-1.8434,-1.8872,-1.912,-1.9237,-1.9352,-1.939,-1.948,-1.9672,-1.9813,-1.9762,-1.9754,-1.9761,-1.9561,-1.9361,-1.9251,-1.9111,-1.9096,-1.9023,-1.9016,-1.903,-1.9045,-1.9111,-1.9103,-1.9162,-1.9301,-1.944,-1.944,-1.9455,-1.936,-1.9442,-1.9641,-1.9681,-1.9784,-1.9916,-2.0216,-2.0494,-2.072,-2.0896,-2.0998,-2.1064,-2.1145,-2.1203,-2.1211,-2.1211,-2.1211,-2.1196,-2.1167,-2.1042,-2.0955,-2.0984,-2.0896,-2.0803,-2.087,-2.0951,-2.116,-2.1504,-1.3443,-1.3448,-1.3539,-1.3665,-1.3762,-1.4249,-1.4485,-1.446,-1.4172,-1.3883,-1.3802,-1.3802,-1.3808,-1.3859,-1.3945,-1.4036,-1.4048,-1.4179,-1.4373,-1.4248,-1.4156,-1.4288,-1.4295,-1.4272,-1.4421,-1.4406,-1.4558,-1.4702,-1.4841,-1.4853,-1.5004,-1.5246,-1.5499,-1.5511,-1.5487,-1.5565,-1.5632,-1.5674,-1.5801,-1.5922,-1.5982,-1.6079,-1.6175,-1.635,-1.6447,-1.6507,-1.6776,-1.6992,-1.7159,-1.7397,-1.7685,-1.8075,-1.8181,-1.8308,-1.8328,-1.817,-1.8217,-1.8245,-1.8293,-1.8158,-1.8555,-1.8863,-1.8978,-1.9198,-1.9404,-1.9575,-1.9667,-1.9758,-1.9579,-1.9685,-1.979,-1.9564,-1.955,-1.9557,-1.9469,-1.9462,-1.9403,-1.9389,-1.9272,-1.9308,-1.9338,-1.9352,-1.9455,-1.9594,-1.974,-1.9689,-1.9638,-1.955,-1.9499,-1.9725,-1.9967,-2.0091,-2.0223,-2.0501,-2.0728,-2.0903,-2.1057,-2.1189,-2.1211,-2.1211,-2.1211,-2.1211,-2.1211,-2.1211,-2.1203,-2.1196,-2.1203,-2.1174,-2.1137,-2.1094,-2.1006,-2.1035,-2.1196,-2.1325,-2.1554,-1.3346,-1.338,-1.3715,-1.3823,-1.3922,-1.3945,-1.4065,-1.4146,-1.4146,-1.414,-1.4146,-1.401,-1.3982,-1.4129,-1.4168,-1.418,-1.4111,-1.4134,-1.4292,-1.4446,-1.4304,-1.4441,-1.4587,-1.463,-1.4566,-1.4748,-1.4896,-1.4974,-1.5107,-1.5197,-1.533,-1.5511,-1.5771,-1.5831,-1.5861,-1.5928,-1.594,-1.5952,-1.6024,-1.6163,-1.6266,-1.6302,-1.6453,-1.6616,-1.6718,-1.6761,-1.6881,-1.7104,-1.7297,-1.751,-1.7884,-1.8093,-1.8294,-1.8358,-1.8376,-1.8307,-1.8393,-1.833,-1.8332,-1.8144,-1.8171,-1.861,-1.8919,-1.9372,-1.9548,-1.9528,-1.9614,-1.9787,-1.9794,-1.9874,-2.0034,-2.0012,-1.999,-1.9888,-1.9872,-1.9806,-1.9733,-1.963,-1.9469,-1.944,-1.9462,-1.9535,-1.9762,-1.9916,-1.9959,-2.0018,-1.9996,-2.004,-2.0011,-2.0084,-2.0311,-2.0501,-2.064,-2.0815,-2.0969,-2.1013,-2.1013,-2.1064,-2.1189,-2.1211,-2.1211,-2.1211,-2.1211,-2.1211,-2.1211,-2.1211,-2.1211,-2.1211,-2.1196,-2.1167,-2.113,-2.1145,-2.1211,-2.1211,-2.1325,-1.3193,-1.3226,-1.3467,-1.3678,-1.3603,-1.3751,-1.3778,-1.3685,-1.3674,-1.3674,-1.368,-1.368,-1.3826,-1.3685,-1.3838,-1.3909,-1.3991,-1.4095,-1.4215,-1.4289,-1.4322,-1.4475,-1.4596,-1.4698,-1.4773,-1.4951,-1.5101,-1.5258,-1.5409,-1.5529,-1.5656,-1.5807,-1.5935,-1.6133,-1.6235,-1.6362,-1.6302,-1.6266,-1.6338,-1.6453,-1.6543,-1.6573,-1.6748,-1.6899,-1.6978,-1.7038,-1.7195,-1.7274,-1.745,-1.7505,-1.7793,-1.8021,-1.7759,-1.8014,-1.802,-1.7844,-1.78,-1.7829,-1.7862,-1.7969,-1.8023,-1.8164,-1.8489,-1.883,-1.9007,-1.9217,-1.941,-1.9669,-1.9797,-1.9847,-1.9971,-1.9964,-2.0039,-2.004,-2.0019,-1.9903,-1.9923,-1.9777,-1.963,-1.963,-1.9645,-1.9777,-2.0003,-2.0084,-2.0135,-2.0259,-2.034,-2.0362,-2.0413,-2.0442,-2.0516,-2.0691,-2.0735,-2.0815,-2.0911,-2.0962,-2.094,-2.0947,-2.1094,-2.1203,-2.1211,-2.1211,-2.1211,-2.1211,-2.1211,-2.1211,-2.1211,-2.1211,-2.1218,-2.1218,-2.1189,-2.1196,-2.1211,-2.1225,-2.1218,-1.3254,-1.3287,-1.3513,-1.3669,-1.3776,-1.3911,-1.3884,-1.3771,-1.376,-1.376,-1.3766,-1.3771,-1.3766,-1.3798,-1.3911,-1.397,-1.3986,-1.4281,-1.4369,-1.4415,-1.4384,-1.4582,-1.4792,-1.4838,-1.5082,-1.5179,-1.5275,-1.5344,-1.5493,-1.5577,-1.5725,-1.5634,-1.5979,-1.608,-1.6069,-1.6216,-1.6405,-1.6446,-1.6558,-1.6761,-1.6821,-1.6863,-1.702,-1.7177,-1.7231,-1.734,-1.7449,-1.7479,-1.7479,-1.7449,-1.767,-1.7621,-1.7363,-1.7472,-1.7512,-1.7391,-1.7449,-1.7556,-1.7675,-1.7762,-1.7836,-1.7916,-1.8063,-1.8286,-1.8666,-1.8981,-1.9257,-1.9542,-1.9654,-1.9738,-1.9843,-1.9934,-1.9982,-2.0022,-1.9988,-2.007,-1.9932,-1.9901,-1.985,-1.9842,-1.9908,-2.0018,-2.0135,-2.0201,-2.0245,-2.0267,-2.0296,-2.0325,-2.0428,-2.0537,-2.0596,-2.0713,-2.0691,-2.0691,-2.0801,-2.0918,-2.094,-2.0976,-2.1115,-2.1203,-2.1203,-2.1211,-2.1211,-2.1211,-2.1211,-2.1225,-2.1262,-2.1233,-2.1225,-2.1262,-2.1306,-2.1298,-2.1298,-2.1276,-2.1262,-1.3507,-1.3523,-1.3755,-1.3965,-1.4175,-1.4175,-1.4169,-1.4196,-1.4148,-1.418,-1.4159,-1.4175,-1.4137,-1.4089,-1.4132,-1.4143,-1.4137,-1.439,-1.4396,-1.46,-1.4546,-1.4756,-1.4844,-1.5106,-1.5106,-1.5305,-1.5399,-1.5382,-1.5439,-1.5516,-1.5557,-1.5452,-1.5692,-1.5931,-1.5977,-1.6189,-1.6385,-1.6477,-1.6618,-1.6732,-1.708,-1.7153,-1.7225,-1.7412,-1.7455,-1.7479,-1.7479,-1.7479,-1.7467,-1.7376,-1.7267,-1.7117,-1.694,-1.695,-1.7009,-1.7225,-1.7368,-1.7495,-1.7702,-1.7869,-1.7809,-1.7776,-1.7675,-1.7889,-1.8367,-1.8632,-1.8899,-1.9277,-1.9401,-1.9463,-1.9583,-1.9605,-1.964,-1.9771,-1.9871,-1.9968,-1.9961,-1.9959,-1.9901,-1.993,-2.004,-2.0135,-2.0113,-2.0172,-2.0237,-2.0245,-2.0259,-2.0296,-2.0406,-2.0559,-2.0633,-2.0698,-2.0691,-2.0676,-2.075,-2.0867,-2.0947,-2.1028,-2.1137,-2.1196,-2.1203,-2.1211,-2.1211,-2.124,-2.1276,-2.1306,-2.1328,-2.1401,-2.1489,-2.1489,-2.1503,-2.1437,-2.1401,-2.1357,-2.1276,-1.3739,-1.376,-1.4003,-1.4143,-1.4186,-1.4196,-1.4196,-1.4196,-1.4196,-1.4196,-1.4196,-1.4191,-1.4196,-1.4196,-1.4196,-1.4196,-1.4191,-1.4293,-1.4293,-1.4396,-1.4511,-1.4686,-1.482,-1.5005,-1.5039,-1.5068,-1.5148,-1.5298,-1.5349,-1.5438,-1.5603,-1.562,-1.5835,-1.5966,-1.5983,-1.6198,-1.64,-1.6506,-1.6465,-1.6768,-1.7205,-1.7376,-1.7443,-1.7479,-1.7479,-1.7349,-1.7343,-1.7461,-1.7346,-1.7207,-1.7147,-1.6881,-1.6483,-1.6582,-1.6714,-1.6894,-1.7335,-1.7598,-1.7836,-1.8041,-1.8156,-1.821,-1.8203,-1.8136,-1.8163,-1.823,-1.85,-1.8901,-1.909,-1.9138,-1.9258,-1.9255,-1.9361,-1.9486,-1.9718,-1.9837,-1.9961,-1.9996,-1.9923,-1.9989,-2.0106,-2.0128,-2.0091,-2.0128,-2.0216,-2.0237,-2.0245,-2.0281,-2.0391,-2.0516,-2.0567,-2.0633,-2.0691,-2.0706,-2.0757,-2.083,-2.0925,-2.1006,-2.1094,-2.1152,-2.1225,-2.1342,-2.1445,-2.1372,-2.1364,-2.1489,-2.1657,-2.1847,-2.1898,-2.1847,-2.173,-2.1679,-2.1518,-2.1437,-2.1313,-1.355,-1.3576,-1.3696,-1.3753,-1.3759,-1.3862,-1.3759,-1.3759,-1.3753,-1.3759,-1.3867,-1.4083,-1.4191,-1.4191,-1.4196,-1.4196,-1.4191,-1.4401,-1.4396,-1.4504,-1.4611,-1.4815,-1.4826,-1.4951,-1.5132,-1.5167,-1.5119,-1.516,-1.5272,-1.5366,-1.5515,-1.5549,-1.5732,-1.5865,-1.5882,-1.6004,-1.6188,-1.6307,-1.6312,-1.6543,-1.7015,-1.7126,-1.7009,-1.7003,-1.7114,-1.7079,-1.6973,-1.6949,-1.6807,-1.6882,-1.6792,-1.6712,-1.6465,-1.6551,-1.6802,-1.6937,-1.735,-1.7687,-1.7929,-1.8177,-1.8419,-1.8453,-1.851,-1.8343,-1.8323,-1.837,-1.8263,-1.8621,-1.8729,-1.8783,-1.8796,-1.8834,-1.8892,-1.8988,-1.9224,-1.9348,-1.9606,-1.9769,-1.9667,-1.9601,-1.9762,-1.9938,-1.9916,-1.9916,-2.0025,-2.0237,-2.0237,-2.0259,-2.0369,-2.0523,-2.0559,-2.0618,-2.0713,-2.072,-2.0735,-2.0815,-2.0911,-2.0991,-2.1123,-2.1276,-2.1445,-2.1598,-2.1686,-2.1679,-2.1723,-2.1847,-2.2023,-2.2176,-2.2264,-2.2235,-2.2081,-2.1928,-2.1752,-2.162,-2.1613,-1.3305,-1.332,-1.332,-1.332,-1.332,-1.332,-1.332,-1.332,-1.332,-1.332,-1.3428,-1.3867,-1.4083,-1.4083,-1.4196,-1.4196,-1.4191,-1.4293,-1.4498,-1.4504,-1.4719,-1.478,-1.4803,-1.4905,-1.5051,-1.5149,-1.5233,-1.5084,-1.5053,-1.527,-1.5422,-1.5343,-1.5451,-1.5596,-1.5601,-1.5601,-1.5839,-1.5963,-1.6081,-1.6188,-1.6307,-1.6537,-1.6537,-1.6532,-1.6486,-1.6377,-1.624,-1.6218,-1.6223,-1.6261,-1.6399,-1.6386,-1.6462,-1.6492,-1.6818,-1.6992,-1.7309,-1.7679,-1.7879,-1.8136,-1.8374,-1.8592,-1.8624,-1.8604,-1.8617,-1.8537,-1.843,-1.8384,-1.849,-1.8531,-1.8551,-1.847,-1.8529,-1.8646,-1.8881,-1.9141,-1.942,-1.9703,-1.9594,-1.9469,-1.963,-1.985,-1.9872,-1.9857,-1.9974,-2.0179,-2.0267,-2.0281,-2.0347,-2.0523,-2.064,-2.0728,-2.0823,-2.0808,-2.0808,-2.0896,-2.1035,-2.1218,-2.1379,-2.1518,-2.1664,-2.1825,-2.1972,-2.2074,-2.214,-2.2213,-2.2286,-2.2403,-2.2484,-2.255,-2.2396,-2.2213,-2.2103,-2.2008,-2.2059,-1.3202,-1.332,-1.332,-1.332,-1.332,-1.332,-1.332,-1.332,-1.332,-1.332,-1.332,-1.332,-1.3537,-1.3759,-1.4083,-1.4196,-1.4088,-1.4202,-1.4196,-1.4299,-1.438,-1.4456,-1.4548,-1.463,-1.4738,-1.4939,-1.5156,-1.516,-1.4961,-1.5274,-1.5526,-1.5408,-1.5413,-1.5601,-1.5601,-1.5601,-1.5596,-1.572,-1.572,-1.5833,-1.5952,-1.6065,-1.6419,-1.6474,-1.6343,-1.6252,-1.6138,-1.596,-1.5977,-1.5913,-1.5919,-1.6115,-1.6286,-1.6511,-1.6876,-1.7225,-1.7432,-1.7762,-1.8121,-1.8365,-1.8648,-1.9023,-1.9087,-1.9199,-1.9152,-1.9011,-1.8871,-1.8664,-1.8718,-1.8718,-1.8704,-1.8544,-1.8507,-1.894,-1.9206,-1.9424,-1.9736,-1.9946,-2.0003,-1.9967,-2.0018,-2.0128,-2.0164,-2.0164,-2.0194,-2.0347,-2.0384,-2.042,-2.0625,-2.0691,-2.0779,-2.0896,-2.1028,-2.1064,-2.113,-2.1137,-2.1254,-2.1452,-2.1664,-2.1847,-2.1986,-2.2074,-2.2206,-2.2381,-2.2469,-2.2535,-2.2608,-2.2659,-2.2689,-2.2725,-2.2637,-2.2506,-2.2418,-2.2374,-2.241]}]]